Darstellungsparameter: Aktuell verwendete Einstellungen:
Skalierung der Graphiken ... ?
xyx+y,   Skalierungsfaktor:      Skalierung: Modus: x, Faktor: 1
Darstellungszeitraum ... ?
Vom - - bis: - -   Zeitraum: 17.05.2016 - 16.11.2016
Min/Max/Avg-Anzeige ... ?
Zeige MMA aktuell
Zeige MMA Monat
Zeige MMA alles
Zeige --A aktuell
Zeige --A Monat
Zeige --A alles
Keine MMA-Anzeige
MMA:
Keine MMA-Graphiken
MMA-Basis: 17.05.2016 - 16.11.2016
Quicknavigation für Darstellung... ?
Tage:      1T, 2T, 3T, 5T -1T -2T -3T -5T +1T +2T +3T +5T
Wochen: 1W, 2W, 3W -1W -2W -3W +1W +2W +3W
Monate: 1M, 3M, 6M -1M -3M -6M +1M +3M +6M
Jahre:    1J, 3J, 5J, 10J -1J -3J -5J -10J +1J +3J +5J +10J
Nutze für die Darstellung ... ?
Originaldaten oder Mittelwerte auf ...
Stundenbasis Tagesbasis Wochenbasis
Monatsbasis Jahresbasis      Datenbasis: Original-Daten
Darstellen als:
Statistik (Auto) Statistik J:M      Darstellung:
Zur Graphik,    zurück zur Übersicht aller Sensoren.
 
Tabellarische Datenbersicht: ?
 
Sensor: Nr:Datum:Temp:Feuchte:Taupunkt:
Aussen-T/F 1 17-05-2016 00:00:00 8.7 C 82 % 5.8 C
2 17-05-2016 00:05:00 8.7 C 82 % 5.8 C
3 17-05-2016 00:10:00 8.6 C 82 % 5.71 C
4 17-05-2016 00:15:00 8.6 C 82 % 5.71 C
5 17-05-2016 00:20:00 8.6 C 82 % 5.71 C
6 17-05-2016 00:25:00 8.6 C 83 % 5.88 C
7 17-05-2016 00:30:00 8.6 C 83 % 5.88 C
8 17-05-2016 00:35:00 8.6 C 83 % 5.88 C
9 17-05-2016 00:40:00 8.5 C 83 % 5.78 C
10 17-05-2016 00:45:00 8.4 C 82 % 5.51 C
11 17-05-2016 00:50:00 8.4 C 83 % 5.69 C
12 17-05-2016 00:55:00 8.3 C 83 % 5.59 C
13 17-05-2016 01:00:00 8.3 C 83 % 5.59 C
14 17-05-2016 01:05:00 8.3 C 83 % 5.59 C
15 17-05-2016 01:10:00 8.2 C 83 % 5.49 C
16 17-05-2016 01:15:00 8.2 C 84 % 5.66 C
17 17-05-2016 01:20:00 8.1 C 84 % 5.56 C
18 17-05-2016 01:25:00 8.1 C 84 % 5.56 C
19 17-05-2016 01:30:00 8.1 C 84 % 5.56 C
20 17-05-2016 01:35:00 8.1 C 84 % 5.56 C
21 17-05-2016 01:40:00 8 C 84 % 5.47 C
22 17-05-2016 01:45:00 8 C 84 % 5.47 C
23 17-05-2016 01:50:00 7.9 C 85 % 5.54 C
24 17-05-2016 01:55:00 7.9 C 85 % 5.54 C
25 17-05-2016 02:00:00 7.9 C 85 % 5.54 C
Sensor: Nr:Datum:Temp:Feuchte:Taupunkt:
Aussen-T/F 26 17-05-2016 02:05:00 7.9 C 85 % 5.54 C
27 17-05-2016 02:10:00 7.9 C 85 % 5.54 C
28 17-05-2016 02:15:00 7.8 C 85 % 5.44 C
29 17-05-2016 02:20:00 7.8 C 85 % 5.44 C
30 17-05-2016 02:25:00 7.8 C 85 % 5.44 C
31 17-05-2016 02:30:00 7.8 C 85 % 5.44 C
32 17-05-2016 02:35:00 7.8 C 85 % 5.44 C
33 17-05-2016 02:40:00 7.8 C 85 % 5.44 C
34 17-05-2016 02:45:00 7.8 C 85 % 5.44 C
35 17-05-2016 02:50:00 7.8 C 86 % 5.61 C
36 17-05-2016 02:55:00 7.8 C 86 % 5.61 C
37 17-05-2016 03:00:00 7.8 C 86 % 5.61 C
38 17-05-2016 03:05:00 7.8 C 86 % 5.61 C
39 17-05-2016 03:10:00 7.8 C 86 % 5.61 C
40 17-05-2016 03:15:00 7.8 C 86 % 5.61 C
41 17-05-2016 03:20:00 7.8 C 86 % 5.61 C
42 17-05-2016 03:25:00 7.8 C 86 % 5.61 C
43 17-05-2016 03:30:00 7.8 C 87 % 5.78 C
44 17-05-2016 03:35:00 7.8 C 86 % 5.61 C
45 17-05-2016 03:40:00 7.7 C 87 % 5.68 C
46 17-05-2016 03:45:00 7.7 C 87 % 5.68 C
47 17-05-2016 03:50:00 7.7 C 87 % 5.68 C
48 17-05-2016 03:55:00 7.7 C 87 % 5.68 C
49 17-05-2016 04:00:00 7.7 C 87 % 5.68 C
50 17-05-2016 04:05:00 7.7 C 87 % 5.68 C
Sensor: Nr:Datum:Temp:Feuchte:Taupunkt:
Aussen-T/F 51 17-05-2016 04:10:00 7.7 C 87 % 5.68 C
52 17-05-2016 04:15:00 7.7 C 87 % 5.68 C
53 17-05-2016 04:20:00 7.7 C 88 % 5.84 C
54 17-05-2016 04:25:00 7.7 C 88 % 5.84 C
55 17-05-2016 04:30:00 7.7 C 88 % 5.84 C
56 17-05-2016 04:35:00 7.7 C 88 % 5.84 C
57 17-05-2016 04:40:00 7.6 C 88 % 5.74 C
58 17-05-2016 04:45:00 7.6 C 88 % 5.74 C
59 17-05-2016 04:50:00 7.6 C 88 % 5.74 C
60 17-05-2016 04:55:00 7.6 C 88 % 5.74 C
61 17-05-2016 05:00:00 7.6 C 87 % 5.58 C
62 17-05-2016 05:05:00 7.6 C 86 % 5.41 C
63 17-05-2016 05:10:00 7.6 C 86 % 5.41 C
64 17-05-2016 05:15:00 7.6 C 87 % 5.58 C
65 17-05-2016 05:20:00 7.7 C 87 % 5.68 C
66 17-05-2016 05:25:00 7.7 C 87 % 5.68 C
67 17-05-2016 05:30:00 7.7 C 86 % 5.51 C
68 17-05-2016 05:35:00 7.7 C 86 % 5.51 C
69 17-05-2016 05:40:00 7.7 C 86 % 5.51 C
70 17-05-2016 05:45:00 7.7 C 86 % 5.51 C
71 17-05-2016 05:50:00 7.7 C 86 % 5.51 C
72 17-05-2016 05:55:00 7.7 C 87 % 5.68 C
73 17-05-2016 06:00:00 7.7 C 87 % 5.68 C
74 17-05-2016 06:05:00 7.7 C 87 % 5.68 C
75 17-05-2016 06:10:00 7.7 C 87 % 5.68 C
Sensor: Nr:Datum:Temp:Feuchte:Taupunkt:
Aussen-T/F 76 17-05-2016 06:15:00 7.7 C 87 % 5.68 C
77 17-05-2016 06:20:00 7.8 C 87 % 5.78 C
78 17-05-2016 06:25:00 7.8 C 86 % 5.61 C
79 17-05-2016 06:30:00 7.8 C 86 % 5.61 C
80 17-05-2016 06:35:00 7.8 C 86 % 5.61 C
81 17-05-2016 06:40:00 7.8 C 86 % 5.61 C
82 17-05-2016 06:45:00 7.9 C 85 % 5.54 C
83 17-05-2016 06:50:00 8 C 85 % 5.64 C
84 17-05-2016 06:55:00 8.1 C 85 % 5.73 C
85 17-05-2016 07:00:00 8.1 C 85 % 5.73 C
86 17-05-2016 07:05:00 8.2 C 85 % 5.83 C
87 17-05-2016 07:10:00 8.2 C 85 % 5.83 C
88 17-05-2016 07:15:00 8.3 C 84 % 5.76 C
89 17-05-2016 07:20:00 8.3 C 83 % 5.59 C
90 17-05-2016 07:25:00 8.4 C 84 % 5.86 C
91 17-05-2016 07:30:00 8.4 C 84 % 5.86 C
92 17-05-2016 07:35:00 8.6 C 84 % 6.05 C
93 17-05-2016 07:40:00 8.7 C 84 % 6.15 C
94 17-05-2016 07:45:00 8.7 C 83 % 5.98 C
95 17-05-2016 07:50:00 8.8 C 83 % 6.08 C
96 17-05-2016 07:55:00 8.9 C 82 % 6 C
97 17-05-2016 08:00:00 9 C 82 % 6.1 C
98 17-05-2016 08:05:00 9.1 C 81 % 6.02 C
99 17-05-2016 08:10:00 9.2 C 81 % 6.11 C
100 17-05-2016 08:15:00 9.3 C 81 % 6.21 C
Sensor: Nr:Datum:Temp:Feuchte:Taupunkt:
Aussen-T/F 101 17-05-2016 08:20:00 9.4 C 80 % 6.13 C
102 17-05-2016 08:25:00 9.5 C 79 % 6.05 C
103 17-05-2016 08:30:00 9.6 C 79 % 6.14 C
104 17-05-2016 08:35:00 9.7 C 79 % 6.24 C
105 17-05-2016 08:40:00 9.8 C 78 % 6.15 C
106 17-05-2016 08:45:00 9.9 C 79 % 6.43 C
107 17-05-2016 08:50:00 10.1 C 78 % 6.44 C
108 17-05-2016 08:55:00 10.3 C 77 % 6.45 C
109 17-05-2016 09:00:00 10.4 C 75 % 6.17 C
110 17-05-2016 09:05:00 10.5 C 76 % 6.45 C
111 17-05-2016 09:10:00 10.6 C 76 % 6.55 C
112 17-05-2016 09:15:00 10.8 C 75 % 6.55 C
113 17-05-2016 09:20:00 10.9 C 75 % 6.65 C
114 17-05-2016 09:25:00 11.1 C 74 % 6.65 C
115 17-05-2016 09:30:00 11.2 C 73 % 6.55 C
116 17-05-2016 09:35:00 11.3 C 72 % 6.44 C
117 17-05-2016 09:40:00 11.4 C 71 % 6.34 C
118 17-05-2016 09:45:00 11.6 C 70 % 6.32 C
119 17-05-2016 09:50:00 11.6 C 69 % 6.11 C
120 17-05-2016 09:55:00 11.7 C 70 % 6.42 C
121 17-05-2016 10:00:00 11.8 C 69 % 6.31 C
122 17-05-2016 10:05:00 11.9 C 69 % 6.4 C
123 17-05-2016 10:10:00 11.9 C 69 % 6.4 C
124 17-05-2016 10:15:00 12.1 C 69 % 6.59 C
125 17-05-2016 10:20:00 12.2 C 69 % 6.69 C
Sensor: Nr:Datum:Temp:Feuchte:Taupunkt:
Aussen-T/F 126 17-05-2016 10:25:00 12.3 C 67 % 6.36 C
127 17-05-2016 10:30:00 12.5 C 67 % 6.55 C
128 17-05-2016 10:35:00 12.7 C 65 % 6.3 C
129 17-05-2016 10:40:00 12.8 C 67 % 6.83 C
130 17-05-2016 10:45:00 12.9 C 66 % 6.71 C
131 17-05-2016 10:50:00 13.1 C 66 % 6.9 C
132 17-05-2016 10:55:00 13.2 C 65 % 6.77 C
133 17-05-2016 11:00:00 13.3 C 64 % 6.64 C
134 17-05-2016 11:05:00 13.4 C 64 % 6.74 C
135 17-05-2016 11:10:00 13.6 C 62 % 6.47 C
136 17-05-2016 11:15:00 13.8 C 60 % 6.18 C
137 17-05-2016 11:20:00 13.8 C 61 % 6.42 C
138 17-05-2016 11:25:00 14 C 61 % 6.61 C
139 17-05-2016 11:30:00 14.1 C 60 % 6.46 C
140 17-05-2016 11:35:00 14.2 C 59 % 6.31 C
141 17-05-2016 11:40:00 14.3 C 60 % 6.65 C
142 17-05-2016 11:45:00 14.5 C 58 % 6.35 C
143 17-05-2016 11:50:00 14.6 C 55 % 5.67 C
144 17-05-2016 11:55:00 14.7 C 55 % 5.76 C
145 17-05-2016 12:00:00 14.8 C 53 % 5.32 C
146 17-05-2016 12:05:00 14.8 C 55 % 5.86 C
147 17-05-2016 12:10:00 14.9 C 55 % 5.95 C
148 17-05-2016 12:15:00 15 C 54 % 5.78 C
149 17-05-2016 12:20:00 15.1 C 55 % 6.14 C
150 17-05-2016 12:25:00 15.1 C 53 % 5.6 C
Sensor: Nr:Datum:Temp:Feuchte:Taupunkt:
Aussen-T/F 151 17-05-2016 12:30:00 15.2 C 53 % 5.69 C
152 17-05-2016 12:35:00 15.2 C 53 % 5.69 C
153 17-05-2016 12:40:00 15.2 C 52 % 5.42 C
154 17-05-2016 12:45:00 15.2 C 54 % 5.96 C
155 17-05-2016 12:50:00 15.3 C 49 % 4.66 C
156 17-05-2016 12:55:00 15.3 C 51 % 5.23 C
157 17-05-2016 13:00:00 15.5 C 51 % 5.42 C
158 17-05-2016 13:05:00 15.6 C 49 % 4.94 C
159 17-05-2016 13:10:00 15.6 C 51 % 5.51 C
160 17-05-2016 13:15:00 15.6 C 50 % 5.23 C
161 17-05-2016 13:20:00 15.6 C 49 % 4.94 C
162 17-05-2016 13:25:00 15.5 C 49 % 4.84 C
163 17-05-2016 13:30:00 15.6 C 51 % 5.51 C
164 17-05-2016 13:35:00 15.6 C 51 % 5.51 C
165 17-05-2016 13:40:00 15.8 C 50 % 5.41 C
166 17-05-2016 13:45:00 16.1 C 47 % 4.8 C
167 17-05-2016 13:50:00 16.3 C 47 % 4.98 C
168 17-05-2016 13:55:00 16.6 C 47 % 5.25 C
169 17-05-2016 14:00:00 16.7 C 46 % 5.04 C
170 17-05-2016 14:05:00 16.7 C 45 % 4.72 C
171 17-05-2016 14:10:00 16.7 C 45 % 4.72 C
172 17-05-2016 14:15:00 16.9 C 47 % 5.53 C
173 17-05-2016 14:20:00 17.1 C 45 % 5.08 C
174 17-05-2016 14:25:00 17.1 C 45 % 5.08 C
175 17-05-2016 14:30:00 17.2 C 44 % 4.85 C
Sensor: Nr:Datum:Temp:Feuchte:Taupunkt:
Aussen-T/F 176 17-05-2016 14:35:00 17.1 C 42 % 4.1 C
177 17-05-2016 14:40:00 17 C 45 % 4.99 C
178 17-05-2016 14:45:00 17.1 C 46 % 5.4 C
179 17-05-2016 14:50:00 17.2 C 44 % 4.85 C
180 17-05-2016 14:55:00 17.3 C 45 % 5.27 C
181 17-05-2016 15:00:00 17.2 C 43 % 4.53 C
182 17-05-2016 15:05:00 17.1 C 45 % 5.08 C
183 17-05-2016 15:10:00 17 C 44 % 4.67 C
184 17-05-2016 15:15:00 16.9 C 46 % 5.22 C
185 17-05-2016 15:20:00 16.7 C 47 % 5.34 C
186 17-05-2016 15:25:00 16.6 C 48 % 5.56 C
187 17-05-2016 15:30:00 16.7 C 47 % 5.34 C
188 17-05-2016 15:35:00 17 C 48 % 5.92 C
189 17-05-2016 15:40:00 17.3 C 45 % 5.27 C
190 17-05-2016 15:45:00 17.3 C 45 % 5.27 C
191 17-05-2016 15:50:00 17.2 C 46 % 5.49 C
192 17-05-2016 15:55:00 17.2 C 46 % 5.49 C
193 17-05-2016 16:00:00 17.5 C 48 % 6.38 C
194 17-05-2016 16:05:00 17.8 C 46 % 6.04 C
195 17-05-2016 16:10:00 17.9 C 45 % 5.81 C
196 17-05-2016 16:15:00 17.7 C 47 % 6.26 C
197 17-05-2016 16:20:00 17.7 C 47 % 6.26 C
198 17-05-2016 16:25:00 17.7 C 46 % 5.95 C
199 17-05-2016 16:30:00 17.7 C 46 % 5.95 C
200 17-05-2016 16:35:00 17.7 C 48 % 6.56 C
Sensor: Nr:Datum:Temp:Feuchte:Taupunkt:
Aussen-T/F 201 17-05-2016 16:40:00 17.4 C 48 % 6.29 C
202 17-05-2016 16:45:00 17.1 C 49 % 6.31 C
203 17-05-2016 16:50:00 16.8 C 50 % 6.33 C
204 17-05-2016 16:55:00 16.7 C 49 % 5.95 C
205 17-05-2016 17:00:00 16.7 C 48 % 5.65 C
206 17-05-2016 17:05:00 16.9 C 52 % 6.99 C
207 17-05-2016 17:10:00 17.3 C 50 % 6.79 C
208 17-05-2016 17:15:00 17.4 C 49 % 6.59 C
209 17-05-2016 17:20:00 17.2 C 48 % 6.11 C
210 17-05-2016 17:25:00 17 C 50 % 6.51 C
211 17-05-2016 17:30:00 16.7 C 51 % 6.52 C
212 17-05-2016 17:35:00 16.4 C 50 % 5.96 C
213 17-05-2016 17:40:00 16.2 C 51 % 6.06 C
214 17-05-2016 17:45:00 16.1 C 52 % 6.25 C
215 17-05-2016 17:50:00 16.1 C 55 % 7.07 C
216 17-05-2016 17:55:00 16.1 C 54 % 6.8 C
217 17-05-2016 18:00:00 16.1 C 55 % 7.07 C
218 17-05-2016 18:05:00 16.2 C 56 % 7.42 C
219 17-05-2016 18:10:00 16.3 C 53 % 6.71 C
220 17-05-2016 18:15:00 16.6 C 54 % 7.26 C
221 17-05-2016 18:20:00 16.9 C 52 % 6.99 C
222 17-05-2016 18:25:00 17 C 53 % 7.36 C
223 17-05-2016 18:30:00 17 C 52 % 7.08 C
224 17-05-2016 18:35:00 16.9 C 54 % 7.54 C
225 17-05-2016 18:40:00 16.8 C 53 % 7.18 C
Sensor: Nr:Datum:Temp:Feuchte:Taupunkt:
Aussen-T/F 226 17-05-2016 18:45:00 16.7 C 53 % 7.08 C
227 17-05-2016 18:50:00 16.6 C 59 % 8.56 C
228 17-05-2016 18:55:00 16.5 C 54 % 7.17 C
229 17-05-2016 19:00:00 16.4 C 59 % 8.38 C
230 17-05-2016 19:05:00 16.3 C 60 % 8.53 C
231 17-05-2016 19:10:00 16.2 C 61 % 8.68 C
232 17-05-2016 19:15:00 16.1 C 60 % 8.34 C
233 17-05-2016 19:20:00 15.9 C 63 % 8.87 C
234 17-05-2016 19:25:00 15.9 C 60 % 8.15 C
235 17-05-2016 19:30:00 15.9 C 59 % 7.91 C
236 17-05-2016 19:35:00 15.8 C 62 % 8.54 C
237 17-05-2016 19:40:00 15.7 C 63 % 8.68 C
238 17-05-2016 19:45:00 15.7 C 65 % 9.15 C
239 17-05-2016 19:50:00 15.6 C 64 % 8.82 C
240 17-05-2016 19:55:00 15.4 C 67 % 9.31 C
241 17-05-2016 20:00:00 15.3 C 67 % 9.21 C
242 17-05-2016 20:05:00 15.1 C 66 % 8.8 C
243 17-05-2016 20:10:00 14.9 C 67 % 8.83 C
244 17-05-2016 20:15:00 14.8 C 67 % 8.74 C
245 17-05-2016 20:20:00 14.6 C 67 % 8.55 C
246 17-05-2016 20:25:00 14.5 C 66 % 8.23 C
247 17-05-2016 20:30:00 14.4 C 67 % 8.36 C
248 17-05-2016 20:35:00 14.4 C 65 % 7.91 C
249 17-05-2016 20:40:00 14.4 C 65 % 7.91 C
250 17-05-2016 20:45:00 14.4 C 67 % 8.36 C
Sensor: Nr:Datum:Temp:Feuchte:Taupunkt:
Aussen-T/F 251 17-05-2016 20:50:00 14.3 C 68 % 8.48 C
252 17-05-2016 20:55:00 14.2 C 67 % 8.17 C
253 17-05-2016 21:00:00 14.2 C 68 % 8.39 C
254 17-05-2016 21:05:00 14.1 C 69 % 8.5 C
255 17-05-2016 21:10:00 13.9 C 69 % 8.31 C
256 17-05-2016 21:15:00 13.8 C 70 % 8.43 C
257 17-05-2016 21:20:00 13.7 C 70 % 8.33 C
258 17-05-2016 21:25:00 13.7 C 71 % 8.54 C
259 17-05-2016 21:30:00 13.6 C 72 % 8.65 C
260 17-05-2016 21:35:00 13.4 C 72 % 8.46 C
261 17-05-2016 21:40:00 13.3 C 71 % 8.16 C
262 17-05-2016 21:45:00 13.3 C 72 % 8.36 C
263 17-05-2016 21:50:00 13.2 C 72 % 8.27 C
264 17-05-2016 21:55:00 13.2 C 72 % 8.27 C
265 17-05-2016 22:00:00 13.1 C 72 % 8.17 C
266 17-05-2016 22:05:00 13.1 C 72 % 8.17 C
267 17-05-2016 22:10:00 13.1 C 73 % 8.38 C
268 17-05-2016 22:15:00 13 C 73 % 8.28 C
269 17-05-2016 22:20:00 12.9 C 73 % 8.18 C
270 17-05-2016 22:25:00 12.9 C 73 % 8.18 C
271 17-05-2016 22:30:00 12.8 C 73 % 8.09 C
272 17-05-2016 22:35:00 12.7 C 74 % 8.19 C
273 17-05-2016 22:40:00 12.6 C 74 % 8.09 C
274 17-05-2016 22:45:00 12.5 C 74 % 8 C
275 17-05-2016 22:50:00 12.4 C 74 % 7.9 C
Sensor: Nr:Datum:Temp:Feuchte:Taupunkt:
Aussen-T/F 276 17-05-2016 22:55:00 12.3 C 75 % 8 C
277 17-05-2016 23:00:00 12.3 C 75 % 8 C
278 17-05-2016 23:05:00 12.2 C 75 % 7.91 C
279 17-05-2016 23:10:00 12.1 C 76 % 8 C
280 17-05-2016 23:15:00 12.1 C 76 % 8 C
281 17-05-2016 23:20:00 12 C 76 % 7.91 C
282 17-05-2016 23:25:00 11.9 C 76 % 7.81 C
283 17-05-2016 23:30:00 11.9 C 77 % 8 C
284 17-05-2016 23:35:00 11.9 C 77 % 8 C
285 17-05-2016 23:40:00 11.9 C 77 % 8 C
286 17-05-2016 23:45:00 11.8 C 78 % 8.09 C
287 17-05-2016 23:50:00 11.8 C 78 % 8.09 C
288 17-05-2016 23:55:00 11.8 C 78 % 8.09 C
289 18-05-2016 00:00:00 11.8 C 78 % 8.09 C
290 18-05-2016 00:05:00 11.8 C 78 % 8.09 C
291 18-05-2016 00:10:00 11.8 C 78 % 8.09 C
292 18-05-2016 00:15:00 11.8 C 78 % 8.09 C
293 18-05-2016 00:20:00 11.8 C 78 % 8.09 C
294 18-05-2016 00:25:00 11.8 C 77 % 7.9 C
295 18-05-2016 00:30:00 11.8 C 78 % 8.09 C
296 18-05-2016 00:35:00 11.8 C 78 % 8.09 C
297 18-05-2016 00:40:00 11.8 C 77 % 7.9 C
298 18-05-2016 00:45:00 11.8 C 78 % 8.09 C
299 18-05-2016 00:50:00 11.8 C 78 % 8.09 C
300 18-05-2016 00:55:00 11.8 C 78 % 8.09 C
Sensor: Nr:Datum:Temp:Feuchte:Taupunkt:
Aussen-T/F 301 18-05-2016 01:00:00 11.8 C 78 % 8.09 C
302 18-05-2016 01:05:00 11.8 C 79 % 8.28 C
303 18-05-2016 01:10:00 11.7 C 79 % 8.18 C
304 18-05-2016 01:15:00 11.6 C 79 % 8.09 C
305 18-05-2016 01:20:00 11.5 C 79 % 7.99 C
306 18-05-2016 01:25:00 11.4 C 80 % 8.08 C
307 18-05-2016 01:30:00 11.4 C 80 % 8.08 C
308 18-05-2016 01:35:00 11.3 C 79 % 7.8 C
309 18-05-2016 01:40:00 11.3 C 80 % 7.98 C
310 18-05-2016 01:45:00 11.3 C 80 % 7.98 C
311 18-05-2016 01:50:00 11.2 C 81 % 8.06 C
312 18-05-2016 01:55:00 11.2 C 81 % 8.06 C
313 18-05-2016 02:00:00 11.1 C 81 % 7.97 C
314 18-05-2016 02:05:00 11.1 C 81 % 7.97 C
315 18-05-2016 02:10:00 11.1 C 81 % 7.97 C
316 18-05-2016 02:15:00 11.1 C 81 % 7.97 C
317 18-05-2016 02:20:00 11.1 C 81 % 7.97 C
318 18-05-2016 02:25:00 11.1 C 82 % 8.15 C
319 18-05-2016 02:30:00 11.1 C 82 % 8.15 C
320 18-05-2016 02:35:00 11.1 C 83 % 8.33 C
321 18-05-2016 02:40:00 11.1 C 83 % 8.33 C
322 18-05-2016 02:45:00 11 C 83 % 8.23 C
323 18-05-2016 02:50:00 11 C 83 % 8.23 C
324 18-05-2016 02:55:00 10.9 C 83 % 8.13 C
325 18-05-2016 03:00:00 10.9 C 83 % 8.13 C
Sensor: Nr:Datum:Temp:Feuchte:Taupunkt:
Aussen-T/F 326 18-05-2016 03:05:00 10.9 C 83 % 8.13 C
327 18-05-2016 03:10:00 10.9 C 84 % 8.31 C
328 18-05-2016 03:15:00 10.9 C 84 % 8.31 C
329 18-05-2016 03:20:00 10.9 C 84 % 8.31 C
330 18-05-2016 03:25:00 10.9 C 84 % 8.31 C
331 18-05-2016 03:30:00 10.9 C 84 % 8.31 C
332 18-05-2016 03:35:00 10.8 C 84 % 8.21 C
333 18-05-2016 03:40:00 10.9 C 84 % 8.31 C
334 18-05-2016 03:45:00 10.9 C 84 % 8.31 C
335 18-05-2016 03:50:00 10.8 C 84 % 8.21 C
336 18-05-2016 03:55:00 10.8 C 84 % 8.21 C
337 18-05-2016 04:00:00 10.8 C 84 % 8.21 C
338 18-05-2016 04:05:00 10.8 C 84 % 8.21 C
339 18-05-2016 04:10:00 10.9 C 84 % 8.31 C
340 18-05-2016 04:15:00 10.8 C 83 % 8.03 C
341 18-05-2016 04:20:00 10.9 C 83 % 8.13 C
342 18-05-2016 04:25:00 10.9 C 83 % 8.13 C
343 18-05-2016 04:30:00 10.9 C 83 % 8.13 C
344 18-05-2016 04:35:00 10.9 C 83 % 8.13 C
345 18-05-2016 04:40:00 10.9 C 83 % 8.13 C
346 18-05-2016 04:45:00 10.9 C 83 % 8.13 C
347 18-05-2016 04:50:00 11 C 83 % 8.23 C
348 18-05-2016 04:55:00 11 C 83 % 8.23 C
349 18-05-2016 05:00:00 11 C 83 % 8.23 C
350 18-05-2016 05:05:00 11.1 C 83 % 8.33 C
Sensor: Nr:Datum:Temp:Feuchte:Taupunkt:
Aussen-T/F 351 18-05-2016 05:10:00 11.1 C 83 % 8.33 C
352 18-05-2016 05:15:00 11.1 C 82 % 8.15 C
353 18-05-2016 05:20:00 11.1 C 83 % 8.33 C
354 18-05-2016 05:25:00 11.1 C 82 % 8.15 C
355 18-05-2016 05:30:00 11.1 C 83 % 8.33 C
356 18-05-2016 05:35:00 11.1 C 83 % 8.33 C
357 18-05-2016 05:40:00 11.1 C 83 % 8.33 C
358 18-05-2016 05:45:00 11.1 C 83 % 8.33 C
359 18-05-2016 05:50:00 11.2 C 82 % 8.25 C
360 18-05-2016 05:55:00 11.2 C 83 % 8.42 C
361 18-05-2016 06:00:00 11.2 C 83 % 8.42 C
362 18-05-2016 06:05:00 11.2 C 83 % 8.42 C
363 18-05-2016 06:10:00 11.2 C 83 % 8.42 C
364 18-05-2016 06:15:00 11.2 C 83 % 8.42 C
365 18-05-2016 06:20:00 11.1 C 83 % 8.33 C
366 18-05-2016 06:25:00 11.1 C 83 % 8.33 C
367 18-05-2016 06:30:00 11.1 C 83 % 8.33 C
368 18-05-2016 06:35:00 11.1 C 83 % 8.33 C
369 18-05-2016 06:40:00 11.1 C 84 % 8.5 C
370 18-05-2016 06:45:00 11.2 C 84 % 8.6 C
371 18-05-2016 06:50:00 11.1 C 84 % 8.5 C
372 18-05-2016 06:55:00 11.1 C 84 % 8.5 C
373 18-05-2016 07:00:00 11.2 C 85 % 8.77 C
374 18-05-2016 07:05:00 11.2 C 85 % 8.77 C
375 18-05-2016 07:10:00 11.2 C 84 % 8.6 C
Sensor: Nr:Datum:Temp:Feuchte:Taupunkt:
Aussen-T/F 376 18-05-2016 07:15:00 11.2 C 85 % 8.77 C
377 18-05-2016 07:20:00 11.3 C 84 % 8.7 C
378 18-05-2016 07:25:00 11.3 C 84 % 8.7 C
379 18-05-2016 07:30:00 11.4 C 84 % 8.8 C
380 18-05-2016 07:35:00 11.5 C 84 % 8.89 C
381 18-05-2016 07:40:00 11.6 C 84 % 8.99 C
382 18-05-2016 07:45:00 11.7 C 84 % 9.09 C
383 18-05-2016 07:50:00 11.8 C 84 % 9.19 C
384 18-05-2016 07:55:00 11.8 C 84 % 9.19 C
385 18-05-2016 08:00:00 11.9 C 83 % 9.11 C
386 18-05-2016 08:05:00 12.1 C 83 % 9.3 C
387 18-05-2016 08:10:00 12.2 C 82 % 9.22 C
388 18-05-2016 08:15:00 12.4 C 81 % 9.23 C
389 18-05-2016 08:20:00 12.6 C 82 % 9.61 C
390 18-05-2016 08:25:00 12.7 C 80 % 9.34 C
391 18-05-2016 08:30:00 12.7 C 81 % 9.53 C
392 18-05-2016 08:35:00 12.8 C 81 % 9.62 C
393 18-05-2016 08:40:00 13 C 80 % 9.63 C
394 18-05-2016 08:45:00 13.1 C 80 % 9.73 C
395 18-05-2016 08:50:00 13.2 C 80 % 9.83 C
396 18-05-2016 08:55:00 13.3 C 79 % 9.74 C
397 18-05-2016 09:00:00 13.4 C 79 % 9.84 C
398 18-05-2016 09:05:00 13.6 C 80 % 10.22 C
399 18-05-2016 09:10:00 13.7 C 79 % 10.13 C
400 18-05-2016 09:15:00 13.8 C 78 % 10.03 C
Sensor: Nr:Datum:Temp:Feuchte:Taupunkt:
Aussen-T/F 401 18-05-2016 09:20:00 13.9 C 78 % 10.13 C
402 18-05-2016 09:25:00 14.1 C 78 % 10.33 C
403 18-05-2016 09:30:00 14.1 C 77 % 10.13 C
404 18-05-2016 09:35:00 14.2 C 77 % 10.23 C
405 18-05-2016 09:40:00 14.3 C 77 % 10.33 C
406 18-05-2016 09:45:00 14.4 C 77 % 10.42 C
407 18-05-2016 09:50:00 14.6 C 76 % 10.42 C
408 18-05-2016 09:55:00 14.8 C 77 % 10.81 C
409 18-05-2016 10:00:00 15 C 75 % 10.61 C
410 18-05-2016 10:05:00 15.1 C 74 % 10.5 C
411 18-05-2016 10:10:00 15.3 C 75 % 10.9 C
412 18-05-2016 10:15:00 15.4 C 73 % 10.59 C
413 18-05-2016 10:20:00 15.6 C 72 % 10.57 C
414 18-05-2016 10:25:00 15.8 C 72 % 10.77 C
415 18-05-2016 10:30:00 15.9 C 70 % 10.44 C
416 18-05-2016 10:35:00 16 C 71 % 10.75 C
417 18-05-2016 10:40:00 16.2 C 71 % 10.94 C
418 18-05-2016 10:45:00 16.3 C 72 % 11.25 C
419 18-05-2016 10:50:00 16.4 C 71 % 11.13 C
420 18-05-2016 10:55:00 16.6 C 67 % 10.45 C
421 18-05-2016 11:00:00 16.6 C 66 % 10.23 C
422 18-05-2016 11:05:00 16.7 C 66 % 10.32 C
423 18-05-2016 11:10:00 16.7 C 65 % 10.09 C
424 18-05-2016 11:15:00 16.7 C 66 % 10.32 C
425 18-05-2016 11:20:00 16.7 C 66 % 10.32 C
Sensor: Nr:Datum:Temp:Feuchte:Taupunkt:
Aussen-T/F 426 18-05-2016 11:25:00 16.7 C 65 % 10.09 C
427 18-05-2016 11:30:00 16.7 C 65 % 10.09 C
428 18-05-2016 11:35:00 16.7 C 67 % 10.55 C
429 18-05-2016 11:40:00 16.8 C 64 % 9.96 C
430 18-05-2016 11:45:00 17 C 63 % 9.91 C
431 18-05-2016 11:50:00 17.1 C 63 % 10.01 C
432 18-05-2016 11:55:00 17.2 C 62 % 9.86 C
433 18-05-2016 12:00:00 17.2 C 62 % 9.86 C
434 18-05-2016 12:05:00 17.2 C 65 % 10.57 C
435 18-05-2016 12:10:00 17.2 C 63 % 10.1 C
436 18-05-2016 12:15:00 17.2 C 61 % 9.62 C
437 18-05-2016 12:20:00 17.2 C 61 % 9.62 C
438 18-05-2016 12:25:00 17.3 C 63 % 10.2 C
439 18-05-2016 12:30:00 17.4 C 60 % 9.56 C
440 18-05-2016 12:35:00 17.6 C 61 % 10 C
441 18-05-2016 12:40:00 17.7 C 59 % 9.59 C
442 18-05-2016 12:45:00 17.7 C 60 % 9.84 C
443 18-05-2016 12:50:00 17.7 C 61 % 10.09 C
444 18-05-2016 12:55:00 17.7 C 61 % 10.09 C
445 18-05-2016 13:00:00 17.8 C 60 % 9.94 C
446 18-05-2016 13:05:00 17.9 C 59 % 9.78 C
447 18-05-2016 13:10:00 18.1 C 60 % 10.22 C
448 18-05-2016 13:15:00 18.3 C 59 % 10.16 C
449 18-05-2016 13:20:00 18.4 C 58 % 9.99 C
450 18-05-2016 13:25:00 18.4 C 58 % 9.99 C
Sensor: Nr:Datum:Temp:Feuchte:Taupunkt:
Aussen-T/F 451 18-05-2016 13:30:00 18.4 C 57 % 9.74 C
452 18-05-2016 13:35:00 18.6 C 58 % 10.18 C
453 18-05-2016 13:40:00 18.6 C 54 % 9.12 C
454 18-05-2016 13:45:00 18.5 C 57 % 9.83 C
455 18-05-2016 13:50:00 18.4 C 56 % 9.47 C
456 18-05-2016 13:55:00 18.5 C 55 % 9.3 C
457 18-05-2016 14:00:00 18.7 C 54 % 9.21 C
458 18-05-2016 14:05:00 18.9 C 54 % 9.4 C
459 18-05-2016 14:10:00 19 C 54 % 9.49 C
460 18-05-2016 14:15:00 19.1 C 53 % 9.3 C
461 18-05-2016 14:20:00 19.1 C 52 % 9.02 C
462 18-05-2016 14:25:00 19 C 52 % 8.93 C
463 18-05-2016 14:30:00 18.8 C 52 % 8.75 C
464 18-05-2016 14:35:00 18.7 C 53 % 8.93 C
465 18-05-2016 14:40:00 18.7 C 54 % 9.21 C
466 18-05-2016 14:45:00 18.7 C 58 % 10.28 C
467 18-05-2016 14:50:00 18.7 C 53 % 8.93 C
468 18-05-2016 14:55:00 18.7 C 54 % 9.21 C
469 18-05-2016 15:00:00 18.6 C 53 % 8.84 C
470 18-05-2016 15:05:00 18.6 C 60 % 10.69 C
471 18-05-2016 15:10:00 18.7 C 61 % 11.03 C
472 18-05-2016 15:15:00 18.5 C 61 % 10.84 C
473 18-05-2016 15:20:00 18.4 C 61 % 10.75 C
474 18-05-2016 15:25:00 18.4 C 54 % 8.93 C
475 18-05-2016 15:30:00 18.5 C 61 % 10.84 C
Sensor: Nr:Datum:Temp:Feuchte:Taupunkt:
Aussen-T/F 476 18-05-2016 15:35:00 18.5 C 57 % 9.83 C
477 18-05-2016 15:40:00 18.7 C 56 % 9.75 C
478 18-05-2016 15:45:00 19 C 53 % 9.21 C
479 18-05-2016 15:50:00 19.3 C 54 % 9.77 C
480 18-05-2016 15:55:00 19.4 C 53 % 9.58 C
481 18-05-2016 16:00:00 19.4 C 50 % 8.72 C
482 18-05-2016 16:05:00 19.2 C 51 % 8.83 C
483 18-05-2016 16:10:00 19.2 C 51 % 8.83 C
484 18-05-2016 16:15:00 19.2 C 54 % 9.67 C
485 18-05-2016 16:20:00 19.2 C 53 % 9.4 C
486 18-05-2016 16:25:00 19.3 C 52 % 9.21 C
487 18-05-2016 16:30:00 19.4 C 53 % 9.58 C
488 18-05-2016 16:35:00 19.5 C 52 % 9.39 C
489 18-05-2016 16:40:00 19.6 C 51 % 9.2 C
490 18-05-2016 16:45:00 19.6 C 52 % 9.48 C
491 18-05-2016 16:50:00 19.7 C 54 % 10.14 C
492 18-05-2016 16:55:00 19.9 C 49 % 8.88 C
493 18-05-2016 17:00:00 20 C 49 % 8.97 C
494 18-05-2016 17:05:00 20 C 50 % 9.27 C
495 18-05-2016 17:10:00 19.8 C 49 % 8.79 C
496 18-05-2016 17:15:00 19.7 C 50 % 8.99 C
497 18-05-2016 17:20:00 19.4 C 51 % 9.01 C
498 18-05-2016 17:25:00 19.1 C 57 % 10.39 C
499 18-05-2016 17:30:00 18.7 C 52 % 8.65 C
500 18-05-2016 17:35:00 18.6 C 59 % 10.44 C
Sensor: Nr:Datum:Temp:Feuchte:Taupunkt:
Aussen-T/F 501 18-05-2016 17:40:00 18.4 C 60 % 10.5 C
502 18-05-2016 17:45:00 18.3 C 59 % 10.16 C
503 18-05-2016 17:50:00 18.4 C 63 % 11.23 C
504 18-05-2016 17:55:00 18.5 C 64 % 11.57 C
505 18-05-2016 18:00:00 18.6 C 64 % 11.66 C
506 18-05-2016 18:05:00 18.5 C 59 % 10.34 C
507 18-05-2016 18:10:00 18.6 C 64 % 11.66 C
508 18-05-2016 18:15:00 18.6 C 66 % 12.13 C
509 18-05-2016 18:20:00 18.6 C 68 % 12.58 C
510 18-05-2016 18:25:00 18.6 C 69 % 12.8 C
511 18-05-2016 18:30:00 18.4 C 69 % 12.61 C
512 18-05-2016 18:35:00 18.3 C 65 % 11.61 C
513 18-05-2016 18:40:00 18.2 C 67 % 11.98 C
514 18-05-2016 18:45:00 18.1 C 68 % 12.11 C
515 18-05-2016 18:50:00 17.9 C 68 % 11.91 C
516 18-05-2016 18:55:00 17.7 C 69 % 11.95 C
517 18-05-2016 19:00:00 17.6 C 69 % 11.85 C
518 18-05-2016 19:05:00 17.3 C 69 % 11.56 C
519 18-05-2016 19:10:00 17.2 C 69 % 11.47 C
520 18-05-2016 19:15:00 17 C 70 % 11.49 C
521 18-05-2016 19:20:00 16.8 C 71 % 11.52 C
522 18-05-2016 19:25:00 16.7 C 71 % 11.42 C
523 18-05-2016 19:30:00 16.5 C 72 % 11.44 C
524 18-05-2016 19:35:00 16.3 C 71 % 11.04 C
525 18-05-2016 19:40:00 16.2 C 71 % 10.94 C
Sensor: Nr:Datum:Temp:Feuchte:Taupunkt:
Aussen-T/F 526 18-05-2016 19:45:00 16.1 C 71 % 10.84 C
527 18-05-2016 19:50:00 15.9 C 71 % 10.65 C
528 18-05-2016 19:55:00 15.8 C 71 % 10.56 C
529 18-05-2016 20:00:00 15.8 C 71 % 10.56 C
530 18-05-2016 20:05:00 15.7 C 70 % 10.25 C
531 18-05-2016 20:10:00 15.6 C 73 % 10.78 C
532 18-05-2016 20:15:00 15.5 C 75 % 11.09 C
533 18-05-2016 20:20:00 15.3 C 79 % 11.68 C
534 18-05-2016 20:25:00 15 C 78 % 11.2 C
535 18-05-2016 20:30:00 14.8 C 80 % 11.39 C
536 18-05-2016 20:35:00 14.5 C 82 % 11.47 C
537 18-05-2016 20:40:00 14.3 C 83 % 11.45 C
538 18-05-2016 20:45:00 14.1 C 85 % 11.62 C
539 18-05-2016 20:50:00 13.8 C 86 % 11.5 C
540 18-05-2016 20:55:00 13.7 C 87 % 11.58 C
541 18-05-2016 21:00:00 13.5 C 88 % 11.55 C
542 18-05-2016 21:05:00 13.3 C 88 % 11.36 C
543 18-05-2016 21:10:00 13.2 C 88 % 11.26 C
544 18-05-2016 21:15:00 13.2 C 89 % 11.43 C
545 18-05-2016 21:20:00 13.1 C 90 % 11.5 C
546 18-05-2016 21:25:00 12.9 C 90 % 11.3 C
547 18-05-2016 21:30:00 12.9 C 90 % 11.3 C
548 18-05-2016 21:35:00 12.8 C 90 % 11.2 C
549 18-05-2016 21:40:00 12.8 C 90 % 11.2 C
550 18-05-2016 21:45:00 12.7 C 91 % 11.27 C
Sensor: Nr:Datum:Temp:Feuchte:Taupunkt:
Aussen-T/F 551 18-05-2016 21:50:00 12.7 C 91 % 11.27 C
552 18-05-2016 21:55:00 12.6 C 91 % 11.17 C
553 18-05-2016 22:00:00 12.4 C 91 % 10.97 C
554 18-05-2016 22:05:00 12.3 C 91 % 10.87 C
555 18-05-2016 22:10:00 12.2 C 91 % 10.78 C
556 18-05-2016 22:15:00 12.2 C 91 % 10.78 C
557 18-05-2016 22:20:00 12.1 C 91 % 10.68 C
558 18-05-2016 22:25:00 12 C 91 % 10.58 C
559 18-05-2016 22:30:00 11.9 C 91 % 10.48 C
560 18-05-2016 22:35:00 11.9 C 91 % 10.48 C
561 18-05-2016 22:40:00 11.8 C 91 % 10.38 C
562 18-05-2016 22:45:00 11.8 C 91 % 10.38 C
563 18-05-2016 22:50:00 11.7 C 92 % 10.44 C
564 18-05-2016 22:55:00 11.7 C 92 % 10.44 C
565 18-05-2016 23:00:00 11.7 C 92 % 10.44 C
566 18-05-2016 23:05:00 11.7 C 92 % 10.44 C
567 18-05-2016 23:10:00 11.6 C 92 % 10.35 C
568 18-05-2016 23:15:00 11.6 C 92 % 10.35 C
569 18-05-2016 23:20:00 11.7 C 93 % 10.61 C
570 18-05-2016 23:25:00 11.7 C 93 % 10.61 C
571 18-05-2016 23:30:00 11.7 C 93 % 10.61 C
572 18-05-2016 23:35:00 11.7 C 93 % 10.61 C
573 18-05-2016 23:40:00 11.7 C 93 % 10.61 C
574 18-05-2016 23:45:00 11.7 C 93 % 10.61 C
575 18-05-2016 23:50:00 11.8 C 93 % 10.71 C
Sensor: Nr:Datum:Temp:Feuchte:Taupunkt:
Aussen-T/F 576 18-05-2016 23:55:00 11.8 C 93 % 10.71 C
577 19-05-2016 00:00:00 11.8 C 93 % 10.71 C
578 19-05-2016 00:05:00 11.8 C 93 % 10.71 C
579 19-05-2016 00:10:00 11.8 C 93 % 10.71 C
580 19-05-2016 00:15:00 11.8 C 93 % 10.71 C
581 19-05-2016 00:20:00 11.8 C 93 % 10.71 C
582 19-05-2016 00:25:00 11.7 C 93 % 10.61 C
583 19-05-2016 00:30:00 11.7 C 93 % 10.61 C
584 19-05-2016 00:35:00 11.7 C 94 % 10.77 C
585 19-05-2016 00:40:00 11.6 C 94 % 10.67 C
586 19-05-2016 00:45:00 11.6 C 93 % 10.51 C
587 19-05-2016 00:50:00 11.4 C 93 % 10.31 C
588 19-05-2016 00:55:00 11.3 C 93 % 10.21 C
589 19-05-2016 01:00:00 11.3 C 94 % 10.37 C
590 19-05-2016 01:05:00 11.3 C 94 % 10.37 C
591 19-05-2016 01:10:00 11.3 C 94 % 10.37 C
592 19-05-2016 01:15:00 11.3 C 94 % 10.37 C
593 19-05-2016 01:20:00 11.2 C 94 % 10.27 C
594 19-05-2016 01:25:00 11.2 C 94 % 10.27 C
595 19-05-2016 01:30:00 11.1 C 94 % 10.17 C
596 19-05-2016 01:35:00 11.1 C 94 % 10.17 C
597 19-05-2016 01:40:00 11.1 C 94 % 10.17 C
598 19-05-2016 01:45:00 11.2 C 94 % 10.27 C
599 19-05-2016 01:50:00 11.2 C 94 % 10.27 C
600 19-05-2016 01:55:00 11.2 C 94 % 10.27 C
Sensor: Nr:Datum:Temp:Feuchte:Taupunkt:
Aussen-T/F 601 19-05-2016 02:00:00 11.3 C 94 % 10.37 C
602 19-05-2016 02:05:00 11.3 C 95 % 10.53 C
603 19-05-2016 02:10:00 11.3 C 95 % 10.53 C
604 19-05-2016 02:15:00 11.3 C 95 % 10.53 C
605 19-05-2016 02:20:00 11.3 C 95 % 10.53 C
606 19-05-2016 02:25:00 11.3 C 95 % 10.53 C
607 19-05-2016 02:30:00 11.4 C 95 % 10.63 C
608 19-05-2016 02:35:00 11.4 C 95 % 10.63 C
609 19-05-2016 02:40:00 11.4 C 95 % 10.63 C
610 19-05-2016 02:45:00 11.4 C 95 % 10.63 C
611 19-05-2016 02:50:00 11.4 C 95 % 10.63 C
612 19-05-2016 02:55:00 11.4 C 95 % 10.63 C
613 19-05-2016 03:00:00 11.4 C 94 % 10.47 C
614 19-05-2016 03:05:00 11.3 C 94 % 10.37 C
615 19-05-2016 03:10:00 11.3 C 94 % 10.37 C
616 19-05-2016 03:15:00 11.3 C 94 % 10.37 C
617 19-05-2016 03:20:00 11.3 C 94 % 10.37 C
618 19-05-2016 03:25:00 11.3 C 94 % 10.37 C
619 19-05-2016 03:30:00 11.3 C 94 % 10.37 C
620 19-05-2016 03:35:00 11.3 C 94 % 10.37 C
621 19-05-2016 03:40:00 11.3 C 94 % 10.37 C
622 19-05-2016 03:45:00 11.3 C 94 % 10.37 C
623 19-05-2016 03:50:00 11.2 C 94 % 10.27 C
624 19-05-2016 03:55:00 11.2 C 94 % 10.27 C
625 19-05-2016 04:00:00 11.1 C 93 % 10.01 C
Sensor: Nr:Datum:Temp:Feuchte:Taupunkt:
Aussen-T/F 626 19-05-2016 04:05:00 11.1 C 93 % 10.01 C
627 19-05-2016 04:10:00 11 C 93 % 9.91 C
628 19-05-2016 04:15:00 11 C 93 % 9.91 C
629 19-05-2016 04:20:00 10.9 C 93 % 9.81 C
630 19-05-2016 04:25:00 10.9 C 93 % 9.81 C
631 19-05-2016 04:30:00 10.9 C 93 % 9.81 C
632 19-05-2016 04:35:00 10.9 C 93 % 9.81 C
633 19-05-2016 04:40:00 10.9 C 93 % 9.81 C
634 19-05-2016 04:45:00 10.9 C 93 % 9.81 C
635 19-05-2016 04:50:00 10.9 C 93 % 9.81 C
636 19-05-2016 04:55:00 10.9 C 93 % 9.81 C
637 19-05-2016 05:00:00 10.9 C 93 % 9.81 C
638 19-05-2016 05:05:00 10.9 C 93 % 9.81 C
639 19-05-2016 05:10:00 10.9 C 92 % 9.65 C
640 19-05-2016 05:15:00 10.9 C 93 % 9.81 C
641 19-05-2016 05:20:00 10.9 C 93 % 9.81 C
642 19-05-2016 05:25:00 10.8 C 93 % 9.71 C
643 19-05-2016 05:30:00 10.8 C 93 % 9.71 C
644 19-05-2016 05:35:00 10.8 C 93 % 9.71 C
645 19-05-2016 05:40:00 10.8 C 93 % 9.71 C
646 19-05-2016 05:45:00 10.7 C 93 % 9.62 C
647 19-05-2016 05:50:00 10.7 C 93 % 9.62 C
648 19-05-2016 05:55:00 10.7 C 93 % 9.62 C
649 19-05-2016 06:00:00 10.8 C 93 % 9.71 C
650 19-05-2016 06:05:00 10.8 C 93 % 9.71 C
Sensor: Nr:Datum:Temp:Feuchte:Taupunkt:
Aussen-T/F 651 19-05-2016 06:10:00 10.8 C 94 % 9.87 C
652 19-05-2016 06:15:00 10.8 C 94 % 9.87 C
653 19-05-2016 06:20:00 10.8 C 94 % 9.87 C
654 19-05-2016 06:25:00 10.9 C 94 % 9.97 C
655 19-05-2016 06:30:00 10.9 C 94 % 9.97 C
656 19-05-2016 06:35:00 10.9 C 94 % 9.97 C
657 19-05-2016 06:40:00 11 C 94 % 10.07 C
658 19-05-2016 06:45:00 11.1 C 95 % 10.33 C
659 19-05-2016 06:50:00 11.2 C 95 % 10.43 C
660 19-05-2016 06:55:00 11.2 C 95 % 10.43 C
661 19-05-2016 07:00:00 11.2 C 95 % 10.43 C
662 19-05-2016 07:05:00 11.3 C 94 % 10.37 C
663 19-05-2016 07:10:00 11.3 C 95 % 10.53 C
664 19-05-2016 07:15:00 11.3 C 95 % 10.53 C
665 19-05-2016 07:20:00 11.3 C 94 % 10.37 C
666 19-05-2016 07:25:00 11.3 C 94 % 10.37 C
667 19-05-2016 07:30:00 11.3 C 94 % 10.37 C
668 19-05-2016 07:35:00 11.4 C 94 % 10.47 C
669 19-05-2016 07:40:00 11.4 C 93 % 10.31 C
670 19-05-2016 07:45:00 11.4 C 93 % 10.31 C
671 19-05-2016 07:50:00 11.4 C 93 % 10.31 C
672 19-05-2016 07:55:00 11.4 C 93 % 10.31 C
673 19-05-2016 08:00:00 11.4 C 93 % 10.31 C
674 19-05-2016 08:05:00 11.5 C 93 % 10.41 C
675 19-05-2016 08:10:00 11.5 C 93 % 10.41 C
Sensor: Nr:Datum:Temp:Feuchte:Taupunkt:
Aussen-T/F 676 19-05-2016 08:15:00 11.6 C 93 % 10.51 C
677 19-05-2016 08:20:00 11.6 C 92 % 10.35 C
678 19-05-2016 08:25:00 11.7 C 92 % 10.44 C
679 19-05-2016 08:30:00 11.7 C 92 % 10.44 C
680 19-05-2016 08:35:00 11.7 C 92 % 10.44 C
681 19-05-2016 08:40:00 11.7 C 91 % 10.28 C
682 19-05-2016 08:45:00 11.8 C 91 % 10.38 C
683 19-05-2016 08:50:00 11.8 C 89 % 10.05 C
684 19-05-2016 08:55:00 11.8 C 88 % 9.88 C
685 19-05-2016 09:00:00 11.8 C 86 % 9.54 C
686 19-05-2016 09:05:00 11.9 C 85 % 9.46 C
687 19-05-2016 09:10:00 12.1 C 86 % 9.83 C
688 19-05-2016 09:15:00 12.2 C 87 % 10.1 C
689 19-05-2016 09:20:00 12.3 C 87 % 10.2 C
690 19-05-2016 09:25:00 12.3 C 85 % 9.85 C
691 19-05-2016 09:30:00 12.4 C 84 % 9.78 C
692 19-05-2016 09:35:00 12.6 C 84 % 9.97 C
693 19-05-2016 09:40:00 12.7 C 82 % 9.71 C
694 19-05-2016 09:45:00 12.9 C 82 % 9.9 C
695 19-05-2016 09:50:00 13.1 C 80 % 9.73 C
696 19-05-2016 09:55:00 13.2 C 77 % 9.26 C
697 19-05-2016 10:00:00 13.3 C 79 % 9.74 C
698 19-05-2016 10:05:00 13.4 C 80 % 10.02 C
699 19-05-2016 10:10:00 13.5 C 80 % 10.12 C
700 19-05-2016 10:15:00 13.6 C 76 % 9.45 C
Sensor: Nr:Datum:Temp:Feuchte:Taupunkt:
Aussen-T/F 701 19-05-2016 10:20:00 13.8 C 76 % 9.65 C
702 19-05-2016 10:25:00 13.8 C 74 % 9.25 C
703 19-05-2016 10:30:00 13.8 C 73 % 9.05 C
704 19-05-2016 10:35:00 13.8 C 74 % 9.25 C
705 19-05-2016 10:40:00 13.8 C 74 % 9.25 C
706 19-05-2016 10:45:00 13.9 C 74 % 9.35 C
707 19-05-2016 10:50:00 14 C 70 % 8.62 C
708 19-05-2016 10:55:00 14.1 C 71 % 8.93 C
709 19-05-2016 11:00:00 14.1 C 70 % 8.72 C
710 19-05-2016 11:05:00 14.2 C 71 % 9.02 C
711 19-05-2016 11:10:00 14.3 C 70 % 8.91 C
712 19-05-2016 11:15:00 14.3 C 71 % 9.12 C
713 19-05-2016 11:20:00 14.4 C 70 % 9 C
714 19-05-2016 11:25:00 14.7 C 69 % 9.08 C
715 19-05-2016 11:30:00 14.7 C 69 % 9.08 C
716 19-05-2016 11:35:00 14.7 C 68 % 8.86 C
717 19-05-2016 11:40:00 14.8 C 69 % 9.17 C
718 19-05-2016 11:45:00 15 C 69 % 9.36 C
719 19-05-2016 11:50:00 15.1 C 69 % 9.46 C
720 19-05-2016 11:55:00 15.1 C 68 % 9.24 C
721 19-05-2016 12:00:00 15.2 C 69 % 9.56 C
722 19-05-2016 12:05:00 15.3 C 66 % 8.99 C
723 19-05-2016 12:10:00 15.4 C 66 % 9.09 C
724 19-05-2016 12:15:00 15.5 C 65 % 8.96 C
725 19-05-2016 12:20:00 15.4 C 63 % 8.4 C
Sensor: Nr:Datum:Temp:Feuchte:Taupunkt:
Aussen-T/F 726 19-05-2016 12:25:00 15.4 C 63 % 8.4 C
727 19-05-2016 12:30:00 15.4 C 63 % 8.4 C
728 19-05-2016 12:35:00 15.5 C 64 % 8.73 C
729 19-05-2016 12:40:00 15.6 C 62 % 8.35 C
730 19-05-2016 12:45:00 15.7 C 63 % 8.68 C
731 19-05-2016 12:50:00 15.8 C 65 % 9.24 C
732 19-05-2016 12:55:00 15.9 C 61 % 8.4 C
733 19-05-2016 13:00:00 16.1 C 62 % 8.82 C
734 19-05-2016 13:05:00 16.2 C 61 % 8.68 C
735 19-05-2016 13:10:00 16.2 C 60 % 8.43 C
736 19-05-2016 13:15:00 16.3 C 59 % 8.28 C
737 19-05-2016 13:20:00 16.3 C 60 % 8.53 C
738 19-05-2016 13:25:00 16.4 C 59 % 8.38 C
739 19-05-2016 13:30:00 16.4 C 58 % 8.12 C
740 19-05-2016 13:35:00 16.5 C 59 % 8.47 C
741 19-05-2016 13:40:00 16.6 C 59 % 8.56 C
742 19-05-2016 13:45:00 16.6 C 59 % 8.56 C
743 19-05-2016 13:50:00 16.6 C 61 % 9.06 C
744 19-05-2016 13:55:00 16.7 C 63 % 9.63 C
745 19-05-2016 14:00:00 16.8 C 60 % 9 C
746 19-05-2016 14:05:00 16.9 C 59 % 8.84 C
747 19-05-2016 14:10:00 16.9 C 58 % 8.59 C
748 19-05-2016 14:15:00 17 C 59 % 8.94 C
749 19-05-2016 14:20:00 17.1 C 56 % 8.26 C
750 19-05-2016 14:25:00 17.1 C 55 % 8 C
Sensor: Nr:Datum:Temp:Feuchte:Taupunkt:
Aussen-T/F 751 19-05-2016 14:30:00 17.3 C 59 % 9.22 C
752 19-05-2016 14:35:00 17.4 C 55 % 8.28 C
753 19-05-2016 14:40:00 17.5 C 54 % 8.1 C
754 19-05-2016 14:45:00 17.8 C 57 % 9.18 C
755 19-05-2016 14:50:00 18.1 C 52 % 8.1 C
756 19-05-2016 14:55:00 18.1 C 53 % 8.38 C
757 19-05-2016 15:00:00 18.1 C 57 % 9.46 C
758 19-05-2016 15:05:00 17.8 C 54 % 8.38 C
759 19-05-2016 15:10:00 17.6 C 55 % 8.46 C
760 19-05-2016 15:15:00 17.4 C 54 % 8.01 C
761 19-05-2016 15:20:00 17.3 C 56 % 8.45 C
762 19-05-2016 15:25:00 17.3 C 58 % 8.97 C
763 19-05-2016 15:30:00 17.4 C 56 % 8.54 C
764 19-05-2016 15:35:00 17.4 C 53 % 7.73 C
765 19-05-2016 15:40:00 17.5 C 55 % 8.37 C
766 19-05-2016 15:45:00 17.6 C 58 % 9.25 C
767 19-05-2016 15:50:00 17.7 C 53 % 8.01 C
768 19-05-2016 15:55:00 17.8 C 53 % 8.1 C
769 19-05-2016 16:00:00 17.8 C 54 % 8.38 C
770 19-05-2016 16:05:00 17.9 C 53 % 8.19 C
771 19-05-2016 16:10:00 18.1 C 53 % 8.38 C
772 19-05-2016 16:15:00 18.2 C 52 % 8.19 C
773 19-05-2016 16:20:00 18.1 C 53 % 8.38 C
774 19-05-2016 16:25:00 18.2 C 53 % 8.47 C
775 19-05-2016 16:30:00 18.4 C 53 % 8.66 C
Sensor: Nr:Datum:Temp:Feuchte:Taupunkt:
Aussen-T/F 776 19-05-2016 16:35:00 18.7 C 49 % 7.78 C
777 19-05-2016 16:40:00 18.7 C 49 % 7.78 C
778 19-05-2016 16:45:00 19.1 C 52 % 9.02 C
779 19-05-2016 16:50:00 20 C 49 % 8.97 C
780 19-05-2016 16:55:00 20.2 C 46 % 8.22 C
781 19-05-2016 17:00:00 20.1 C 46 % 8.13 C
782 19-05-2016 17:05:00 19.4 C 47 % 7.81 C
783 19-05-2016 17:10:00 19.1 C 47 % 7.53 C
784 19-05-2016 17:15:00 18.8 C 49 % 7.87 C
785 19-05-2016 17:20:00 18.7 C 48 % 7.48 C
786 19-05-2016 17:25:00 18.5 C 49 % 7.6 C
787 19-05-2016 17:30:00 18.4 C 51 % 8.09 C
788 19-05-2016 17:35:00 18.4 C 49 % 7.5 C
789 19-05-2016 17:40:00 18.4 C 52 % 8.38 C
790 19-05-2016 17:45:00 18.3 C 57 % 9.64 C
791 19-05-2016 17:50:00 18.3 C 56 % 9.38 C
792 19-05-2016 17:55:00 18.4 C 63 % 11.23 C
793 19-05-2016 18:00:00 18.4 C 56 % 9.47 C
794 19-05-2016 18:05:00 18.5 C 49 % 7.6 C
795 19-05-2016 18:10:00 18.6 C 52 % 8.56 C
796 19-05-2016 18:15:00 18.7 C 62 % 11.28 C
797 19-05-2016 18:20:00 18.7 C 62 % 11.28 C
798 19-05-2016 18:25:00 19.1 C 51 % 8.73 C
799 19-05-2016 18:30:00 19.6 C 45 % 7.35 C
800 19-05-2016 18:35:00 19.6 C 46 % 7.67 C
Sensor: Nr:Datum:Temp:Feuchte:Taupunkt:
Aussen-T/F 801 19-05-2016 18:40:00 19.5 C 47 % 7.9 C
802 19-05-2016 18:45:00 19.7 C 46 % 7.77 C
803 19-05-2016 18:50:00 20.1 C 44 % 7.48 C
804 19-05-2016 18:55:00 20.1 C 44 % 7.48 C
805 19-05-2016 19:00:00 20.1 C 45 % 7.81 C
806 19-05-2016 19:05:00 20.2 C 43 % 7.23 C
807 19-05-2016 19:10:00 20.2 C 45 % 7.9 C
808 19-05-2016 19:15:00 20.2 C 45 % 7.9 C
809 19-05-2016 19:20:00 20.3 C 44 % 7.66 C
810 19-05-2016 19:25:00 20.3 C 44 % 7.66 C
811 19-05-2016 19:30:00 20.1 C 53 % 10.23 C
812 19-05-2016 19:35:00 19.7 C 47 % 8.08 C
813 19-05-2016 19:40:00 19.2 C 56 % 10.22 C
814 19-05-2016 19:45:00 18.6 C 60 % 10.69 C
815 19-05-2016 19:50:00 17.8 C 62 % 10.43 C
816 19-05-2016 19:55:00 17.3 C 63 % 10.2 C
817 19-05-2016 20:00:00 16.7 C 63 % 9.63 C
818 19-05-2016 20:05:00 16.3 C 65 % 9.71 C
819 19-05-2016 20:10:00 16.2 C 65 % 9.62 C
820 19-05-2016 20:15:00 15.9 C 66 % 9.56 C
821 19-05-2016 20:20:00 15.7 C 67 % 9.6 C
822 19-05-2016 20:25:00 15.4 C 68 % 9.53 C
823 19-05-2016 20:30:00 15.3 C 69 % 9.65 C
824 19-05-2016 20:35:00 15.2 C 69 % 9.56 C
825 19-05-2016 20:40:00 14.9 C 70 % 9.48 C
Sensor: Nr:Datum:Temp:Feuchte:Taupunkt:
Aussen-T/F 826 19-05-2016 20:45:00 14.7 C 69 % 9.08 C
827 19-05-2016 20:50:00 14.5 C 71 % 9.31 C
828 19-05-2016 20:55:00 14.3 C 71 % 9.12 C
829 19-05-2016 21:00:00 14.2 C 73 % 9.43 C
830 19-05-2016 21:05:00 13.9 C 73 % 9.15 C
831 19-05-2016 21:10:00 13.7 C 73 % 8.95 C
832 19-05-2016 21:15:00 13.6 C 74 % 9.06 C
833 19-05-2016 21:20:00 13.4 C 74 % 8.87 C
834 19-05-2016 21:25:00 13.3 C 75 % 8.97 C
835 19-05-2016 21:30:00 13.2 C 75 % 8.87 C
836 19-05-2016 21:35:00 13.1 C 76 % 8.97 C
837 19-05-2016 21:40:00 13 C 77 % 9.07 C
838 19-05-2016 21:45:00 12.9 C 77 % 8.97 C
839 19-05-2016 21:50:00 12.8 C 78 % 9.06 C
840 19-05-2016 21:55:00 12.7 C 78 % 8.97 C
841 19-05-2016 22:00:00 12.6 C 78 % 8.87 C
842 19-05-2016 22:05:00 12.4 C 79 % 8.86 C
843 19-05-2016 22:10:00 12.3 C 79 % 8.77 C
844 19-05-2016 22:15:00 12.3 C 80 % 8.95 C
845 19-05-2016 22:20:00 12.2 C 80 % 8.86 C
846 19-05-2016 22:25:00 12.1 C 80 % 8.76 C
847 19-05-2016 22:30:00 12.1 C 80 % 8.76 C
848 19-05-2016 22:35:00 12 C 81 % 8.84 C
849 19-05-2016 22:40:00 11.9 C 81 % 8.75 C
850 19-05-2016 22:45:00 11.9 C 81 % 8.75 C
Sensor: Nr:Datum:Temp:Feuchte:Taupunkt:
Aussen-T/F 851 19-05-2016 22:50:00 11.8 C 82 % 8.83 C
852 19-05-2016 22:55:00 11.8 C 82 % 8.83 C
853 19-05-2016 23:00:00 11.7 C 82 % 8.73 C
854 19-05-2016 23:05:00 11.7 C 83 % 8.91 C
855 19-05-2016 23:10:00 11.6 C 83 % 8.81 C
856 19-05-2016 23:15:00 11.5 C 83 % 8.72 C
857 19-05-2016 23:20:00 11.4 C 83 % 8.62 C
858 19-05-2016 23:25:00 11.4 C 84 % 8.8 C
859 19-05-2016 23:30:00 11.3 C 84 % 8.7 C
860 19-05-2016 23:35:00 11.3 C 84 % 8.7 C
861 19-05-2016 23:40:00 11.2 C 84 % 8.6 C
862 19-05-2016 23:45:00 11.2 C 85 % 8.77 C
863 19-05-2016 23:50:00 11.1 C 85 % 8.68 C
864 19-05-2016 23:55:00 11.1 C 85 % 8.68 C
865 20-05-2016 00:00:00 11.1 C 85 % 8.68 C
866 20-05-2016 00:05:00 11.1 C 86 % 8.85 C
867 20-05-2016 00:10:00 11 C 86 % 8.75 C
868 20-05-2016 00:15:00 11 C 86 % 8.75 C
869 20-05-2016 00:20:00 10.9 C 86 % 8.65 C
870 20-05-2016 00:25:00 10.9 C 86 % 8.65 C
871 20-05-2016 00:30:00 10.8 C 86 % 8.56 C
872 20-05-2016 00:35:00 10.8 C 86 % 8.56 C
873 20-05-2016 00:40:00 10.7 C 87 % 8.63 C
874 20-05-2016 00:45:00 10.7 C 87 % 8.63 C
875 20-05-2016 00:50:00 10.6 C 87 % 8.53 C
Sensor: Nr:Datum:Temp:Feuchte:Taupunkt:
Aussen-T/F 876 20-05-2016 00:55:00 10.6 C 87 % 8.53 C
877 20-05-2016 01:00:00 10.6 C 87 % 8.53 C
878 20-05-2016 01:05:00 10.5 C 88 % 8.6 C
879 20-05-2016 01:10:00 10.5 C 88 % 8.6 C
880 20-05-2016 01:15:00 10.4 C 88 % 8.5 C
881 20-05-2016 01:20:00 10.4 C 88 % 8.5 C
882 20-05-2016 01:25:00 10.3 C 88 % 8.4 C
883 20-05-2016 01:30:00 10.3 C 88 % 8.4 C
884 20-05-2016 01:35:00 10.3 C 89 % 8.57 C
885 20-05-2016 01:40:00 10.3 C 89 % 8.57 C
886 20-05-2016 01:45:00 10.3 C 89 % 8.57 C
887 20-05-2016 01:50:00 10.2 C 89 % 8.47 C
888 20-05-2016 01:55:00 10.3 C 88 % 8.4 C
889 20-05-2016 02:00:00 10.3 C 88 % 8.4 C
890 20-05-2016 02:05:00 10.2 C 88 % 8.3 C
891 20-05-2016 02:10:00 10.2 C 88 % 8.3 C
892 20-05-2016 02:15:00 10.2 C 88 % 8.3 C
893 20-05-2016 02:20:00 10.1 C 89 % 8.37 C
894 20-05-2016 02:25:00 10.1 C 89 % 8.37 C
895 20-05-2016 02:30:00 10 C 89 % 8.27 C
896 20-05-2016 02:35:00 9.9 C 89 % 8.17 C
897 20-05-2016 02:40:00 9.9 C 89 % 8.17 C
898 20-05-2016 02:45:00 9.8 C 89 % 8.08 C
899 20-05-2016 02:50:00 9.8 C 90 % 8.24 C
900 20-05-2016 02:55:00 9.8 C 90 % 8.24 C
Sensor: Nr:Datum:Temp:Feuchte:Taupunkt:
Aussen-T/F 901 20-05-2016 03:00:00 9.8 C 90 % 8.24 C
902 20-05-2016 03:05:00 9.8 C 90 % 8.24 C
903 20-05-2016 03:10:00 9.8 C 90 % 8.24 C
904 20-05-2016 03:15:00 9.8 C 90 % 8.24 C
905 20-05-2016 03:20:00 9.8 C 90 % 8.24 C
906 20-05-2016 03:25:00 9.8 C 90 % 8.24 C
907 20-05-2016 03:30:00 9.8 C 90 % 8.24 C
908 20-05-2016 03:35:00 9.8 C 90 % 8.24 C
909 20-05-2016 03:40:00 9.8 C 90 % 8.24 C
910 20-05-2016 03:45:00 9.7 C 90 % 8.14 C
911 20-05-2016 03:50:00 9.7 C 89 % 7.98 C
912 20-05-2016 03:55:00 9.6 C 89 % 7.88 C
913 20-05-2016 04:00:00 9.5 C 89 % 7.78 C
914 20-05-2016 04:05:00 9.4 C 90 % 7.85 C
915 20-05-2016 04:10:00 9.3 C 90 % 7.75 C
916 20-05-2016 04:15:00 9.2 C 90 % 7.65 C
917 20-05-2016 04:20:00 9.2 C 91 % 7.81 C
918 20-05-2016 04:25:00 9.2 C 91 % 7.81 C
919 20-05-2016 04:30:00 9.2 C 91 % 7.81 C
920 20-05-2016 04:35:00 9.2 C 91 % 7.81 C
921 20-05-2016 04:40:00 9.3 C 92 % 8.07 C
922 20-05-2016 04:45:00 9.3 C 91 % 7.91 C
923 20-05-2016 04:50:00 9.3 C 91 % 7.91 C
924 20-05-2016 04:55:00 9.3 C 91 % 7.91 C
925 20-05-2016 05:00:00 9.2 C 91 % 7.81 C
Sensor: Nr:Datum:Temp:Feuchte:Taupunkt:
Aussen-T/F 926 20-05-2016 05:05:00 9.2 C 91 % 7.81 C
927 20-05-2016 05:10:00 9.1 C 91 % 7.71 C
928 20-05-2016 05:15:00 9.1 C 91 % 7.71 C
929 20-05-2016 05:20:00 9.1 C 92 % 7.87 C
930 20-05-2016 05:25:00 9.1 C 91 % 7.71 C
931 20-05-2016 05:30:00 9.1 C 92 % 7.87 C
932 20-05-2016 05:35:00 9.1 C 92 % 7.87 C
933 20-05-2016 05:40:00 9.1 C 92 % 7.87 C
934 20-05-2016 05:45:00 9.1 C 92 % 7.87 C
935 20-05-2016 05:50:00 9.1 C 92 % 7.87 C
936 20-05-2016 05:55:00 9.1 C 92 % 7.87 C
937 20-05-2016 06:00:00 9.1 C 92 % 7.87 C
938 20-05-2016 06:05:00 9.1 C 92 % 7.87 C
939 20-05-2016 06:10:00 9.1 C 92 % 7.87 C
940 20-05-2016 06:15:00 9.1 C 92 % 7.87 C
941 20-05-2016 06:20:00 9.2 C 92 % 7.97 C
942 20-05-2016 06:25:00 9.2 C 92 % 7.97 C
943 20-05-2016 06:30:00 9.2 C 92 % 7.97 C
944 20-05-2016 06:35:00 9.2 C 92 % 7.97 C
945 20-05-2016 06:40:00 9.2 C 92 % 7.97 C
946 20-05-2016 06:45:00 9.2 C 92 % 7.97 C
947 20-05-2016 06:50:00 9.2 C 92 % 7.97 C
948 20-05-2016 06:55:00 9.2 C 92 % 7.97 C
949 20-05-2016 07:00:00 9.2 C 92 % 7.97 C
950 20-05-2016 07:05:00 9.3 C 92 % 8.07 C
Sensor: Nr:Datum:Temp:Feuchte:Taupunkt:
Aussen-T/F 951 20-05-2016 07:10:00 9.4 C 92 % 8.17 C
952 20-05-2016 07:15:00 9.5 C 92 % 8.27 C
953 20-05-2016 07:20:00 9.6 C 92 % 8.37 C
954 20-05-2016 07:25:00 9.8 C 92 % 8.56 C
955 20-05-2016 07:30:00 10 C 91 % 8.6 C
956 20-05-2016 07:35:00 10.2 C 91 % 8.8 C
957 20-05-2016 07:40:00 10.4 C 90 % 8.83 C
958 20-05-2016 07:45:00 10.7 C 89 % 8.96 C
959 20-05-2016 07:50:00 10.8 C 89 % 9.06 C
960 20-05-2016 07:55:00 11 C 88 % 9.09 C
961 20-05-2016 08:00:00 11.1 C 88 % 9.19 C
962 20-05-2016 08:05:00 11.2 C 88 % 9.29 C
963 20-05-2016 08:10:00 11.3 C 88 % 9.39 C
964 20-05-2016 08:15:00 11.4 C 87 % 9.32 C
965 20-05-2016 08:20:00 11.6 C 87 % 9.51 C
966 20-05-2016 08:25:00 11.8 C 87 % 9.71 C
967 20-05-2016 08:30:00 11.9 C 87 % 9.81 C
968 20-05-2016 08:35:00 12 C 86 % 9.73 C
969 20-05-2016 08:40:00 12.2 C 86 % 9.93 C
970 20-05-2016 08:45:00 12.3 C 85 % 9.85 C
971 20-05-2016 08:50:00 12.4 C 85 % 9.95 C
972 20-05-2016 08:55:00 12.6 C 84 % 9.97 C
973 20-05-2016 09:00:00 12.7 C 84 % 10.07 C
974 20-05-2016 09:05:00 12.8 C 84 % 10.17 C
975 20-05-2016 09:10:00 13 C 84 % 10.36 C
Sensor: Nr:Datum:Temp:Feuchte:Taupunkt:
Aussen-T/F 976 20-05-2016 09:15:00 13.2 C 83 % 10.38 C
977 20-05-2016 09:20:00 13.2 C 83 % 10.38 C
978 20-05-2016 09:25:00 13.3 C 83 % 10.48 C
979 20-05-2016 09:30:00 13.5 C 83 % 10.67 C
980 20-05-2016 09:35:00 13.6 C 83 % 10.77 C
981 20-05-2016 09:40:00 13.8 C 82 % 10.78 C
982 20-05-2016 09:45:00 13.9 C 82 % 10.88 C
983 20-05-2016 09:50:00 14 C 82 % 10.98 C
984 20-05-2016 09:55:00 14.1 C 82 % 11.08 C
985 20-05-2016 10:00:00 14.3 C 81 % 11.09 C
986 20-05-2016 10:05:00 14.5 C 80 % 11.09 C
987 20-05-2016 10:10:00 14.6 C 80 % 11.19 C
988 20-05-2016 10:15:00 14.6 C 80 % 11.19 C
989 20-05-2016 10:20:00 14.6 C 79 % 11 C
990 20-05-2016 10:25:00 14.7 C 80 % 11.29 C
991 20-05-2016 10:30:00 14.9 C 79 % 11.29 C
992 20-05-2016 10:35:00 14.9 C 78 % 11.1 C
993 20-05-2016 10:40:00 15.1 C 77 % 11.1 C
994 20-05-2016 10:45:00 15.1 C 76 % 10.9 C
995 20-05-2016 10:50:00 15.1 C 77 % 11.1 C
996 20-05-2016 10:55:00 15.2 C 76 % 11 C
997 20-05-2016 11:00:00 15.3 C 76 % 11.1 C
998 20-05-2016 11:05:00 15.4 C 77 % 11.39 C
999 20-05-2016 11:10:00 15.6 C 76 % 11.39 C
1000 20-05-2016 11:15:00 15.7 C 75 % 11.28 C
Sensor: Nr:Datum:Temp:Feuchte:Taupunkt:
Aussen-T/F 1001 20-05-2016 11:20:00 15.9 C 74 % 11.28 C
1002 20-05-2016 11:25:00 16.1 C 74 % 11.47 C
1003 20-05-2016 11:30:00 16.2 C 73 % 11.36 C
1004 20-05-2016 11:35:00 16.3 C 73 % 11.46 C
1005 20-05-2016 11:40:00 16.5 C 71 % 11.23 C
1006 20-05-2016 11:45:00 16.8 C 72 % 11.73 C
1007 20-05-2016 11:50:00 17 C 69 % 11.28 C
1008 20-05-2016 11:55:00 17.2 C 70 % 11.68 C
1009 20-05-2016 12:00:00 17.3 C 69 % 11.56 C
1010 20-05-2016 12:05:00 17.3 C 68 % 11.34 C
1011 20-05-2016 12:10:00 17.3 C 67 % 11.12 C
1012 20-05-2016 12:15:00 17.2 C 68 % 11.25 C
1013 20-05-2016 12:20:00 17.3 C 67 % 11.12 C
1014 20-05-2016 12:25:00 17.3 C 69 % 11.56 C
1015 20-05-2016 12:30:00 17.5 C 67 % 11.31 C
1016 20-05-2016 12:35:00 17.6 C 67 % 11.4 C
1017 20-05-2016 12:40:00 17.4 C 66 % 10.99 C
1018 20-05-2016 12:45:00 17.3 C 67 % 11.12 C
1019 20-05-2016 12:50:00 17.2 C 68 % 11.25 C
1020 20-05-2016 12:55:00 17.3 C 69 % 11.56 C
1021 20-05-2016 13:00:00 17.3 C 68 % 11.34 C
1022 20-05-2016 13:05:00 17.3 C 68 % 11.34 C
1023 20-05-2016 13:10:00 17.2 C 67 % 11.02 C
1024 20-05-2016 13:15:00 17.2 C 69 % 11.47 C
1025 20-05-2016 13:20:00 17.1 C 69 % 11.37 C
Sensor: Nr:Datum:Temp:Feuchte:Taupunkt:
Aussen-T/F 1026 20-05-2016 13:25:00 17.1 C 70 % 11.59 C
1027 20-05-2016 13:30:00 16.8 C 72 % 11.73 C
1028 20-05-2016 13:35:00 16.7 C 76 % 12.45 C
1029 20-05-2016 13:40:00 16.6 C 76 % 12.36 C
1030 20-05-2016 13:45:00 16.4 C 79 % 12.75 C
1031 20-05-2016 13:50:00 16.3 C 78 % 12.46 C
1032 20-05-2016 13:55:00 16.2 C 79 % 12.56 C
1033 20-05-2016 14:00:00 16.2 C 80 % 12.75 C
1034 20-05-2016 14:05:00 16.1 C 77 % 12.07 C
1035 20-05-2016 14:10:00 16 C 75 % 11.57 C
1036 20-05-2016 14:15:00 16.1 C 74 % 11.47 C
1037 20-05-2016 14:20:00 16.2 C 74 % 11.56 C
1038 20-05-2016 14:25:00 16.3 C 73 % 11.46 C
1039 20-05-2016 14:30:00 16.4 C 73 % 11.55 C
1040 20-05-2016 14:35:00 16.6 C 73 % 11.74 C
1041 20-05-2016 14:40:00 16.7 C 73 % 11.84 C
1042 20-05-2016 14:45:00 16.9 C 73 % 12.03 C
1043 20-05-2016 14:50:00 17.1 C 72 % 12.02 C
1044 20-05-2016 14:55:00 17.2 C 70 % 11.68 C
1045 20-05-2016 15:00:00 17.4 C 69 % 11.66 C
1046 20-05-2016 15:05:00 17.5 C 69 % 11.75 C
1047 20-05-2016 15:10:00 17.6 C 68 % 11.63 C
1048 20-05-2016 15:15:00 17.7 C 72 % 12.59 C
1049 20-05-2016 15:20:00 17.7 C 71 % 12.38 C
1050 20-05-2016 15:25:00 17.7 C 71 % 12.38 C
Sensor: Nr:Datum:Temp:Feuchte:Taupunkt:
Aussen-T/F 1051 20-05-2016 15:30:00 17.6 C 68 % 11.63 C
1052 20-05-2016 15:35:00 17.6 C 69 % 11.85 C
1053 20-05-2016 15:40:00 17.7 C 68 % 11.72 C
1054 20-05-2016 15:45:00 17.7 C 71 % 12.38 C
1055 20-05-2016 15:50:00 17.8 C 69 % 12.04 C
1056 20-05-2016 15:55:00 17.8 C 68 % 11.82 C
1057 20-05-2016 16:00:00 17.8 C 69 % 12.04 C
1058 20-05-2016 16:05:00 17.8 C 69 % 12.04 C
1059 20-05-2016 16:10:00 17.8 C 67 % 11.6 C
1060 20-05-2016 16:15:00 17.8 C 67 % 11.6 C
1061 20-05-2016 16:20:00 17.8 C 67 % 11.6 C
1062 20-05-2016 16:25:00 17.7 C 66 % 11.27 C
1063 20-05-2016 16:30:00 17.6 C 67 % 11.4 C
1064 20-05-2016 16:35:00 17.6 C 69 % 11.85 C
1065 20-05-2016 16:40:00 17.6 C 67 % 11.4 C
1066 20-05-2016 16:45:00 17.7 C 69 % 11.95 C
1067 20-05-2016 16:50:00 17.9 C 69 % 12.14 C
1068 20-05-2016 16:55:00 18.3 C 67 % 12.07 C
1069 20-05-2016 17:00:00 18.7 C 64 % 11.76 C
1070 20-05-2016 17:05:00 18.8 C 64 % 11.85 C
1071 20-05-2016 17:10:00 19.2 C 65 % 12.47 C
1072 20-05-2016 17:15:00 19.4 C 62 % 11.94 C
1073 20-05-2016 17:20:00 19.9 C 61 % 12.16 C
1074 20-05-2016 17:25:00 20.1 C 60 % 12.1 C
1075 20-05-2016 17:30:00 19.8 C 59 % 11.56 C
Sensor: Nr:Datum:Temp:Feuchte:Taupunkt:
Aussen-T/F 1076 20-05-2016 17:35:00 19.6 C 62 % 12.13 C
1077 20-05-2016 17:40:00 19.5 C 62 % 12.03 C
1078 20-05-2016 17:45:00 19.3 C 62 % 11.84 C
1079 20-05-2016 17:50:00 19.2 C 65 % 12.47 C
1080 20-05-2016 17:55:00 19 C 62 % 11.56 C
1081 20-05-2016 18:00:00 18.8 C 64 % 11.85 C
1082 20-05-2016 18:05:00 18.6 C 64 % 11.66 C
1083 20-05-2016 18:10:00 18.3 C 64 % 11.38 C
1084 20-05-2016 18:15:00 18.2 C 66 % 11.75 C
1085 20-05-2016 18:20:00 18.2 C 66 % 11.75 C
1086 20-05-2016 18:25:00 18.1 C 66 % 11.65 C
1087 20-05-2016 18:30:00 18.1 C 66 % 11.65 C
1088 20-05-2016 18:35:00 17.9 C 66 % 11.46 C
1089 20-05-2016 18:40:00 17.8 C 67 % 11.6 C
1090 20-05-2016 18:45:00 17.8 C 67 % 11.6 C
1091 20-05-2016 18:50:00 18 C 67 % 11.79 C
1092 20-05-2016 18:55:00 18.2 C 67 % 11.98 C
1093 20-05-2016 19:00:00 18.2 C 67 % 11.98 C
1094 20-05-2016 19:05:00 18.2 C 67 % 11.98 C
1095 20-05-2016 19:10:00 18.1 C 67 % 11.88 C
1096 20-05-2016 19:15:00 18 C 68 % 12.01 C
1097 20-05-2016 19:20:00 17.9 C 70 % 12.35 C
1098 20-05-2016 19:25:00 17.9 C 70 % 12.35 C
1099 20-05-2016 19:30:00 17.8 C 70 % 12.26 C
1100 20-05-2016 19:35:00 17.7 C 69 % 11.95 C
Sensor: Nr:Datum:Temp:Feuchte:Taupunkt:
Aussen-T/F 1101 20-05-2016 19:40:00 17.6 C 70 % 12.07 C
1102 20-05-2016 19:45:00 17.5 C 72 % 12.4 C
1103 20-05-2016 19:50:00 17.5 C 70 % 11.97 C
1104 20-05-2016 19:55:00 17.4 C 72 % 12.3 C
1105 20-05-2016 20:00:00 17.4 C 72 % 12.3 C
1106 20-05-2016 20:05:00 17.4 C 71 % 12.09 C
1107 20-05-2016 20:10:00 17.4 C 71 % 12.09 C
1108 20-05-2016 20:15:00 17.4 C 72 % 12.3 C
1109 20-05-2016 20:20:00 17.4 C 73 % 12.51 C
1110 20-05-2016 20:25:00 17.3 C 72 % 12.21 C
1111 20-05-2016 20:30:00 17.3 C 72 % 12.21 C
1112 20-05-2016 20:35:00 17.2 C 72 % 12.11 C
1113 20-05-2016 20:40:00 17.1 C 72 % 12.02 C
1114 20-05-2016 20:45:00 16.9 C 74 % 12.24 C
1115 20-05-2016 20:50:00 16.8 C 74 % 12.14 C
1116 20-05-2016 20:55:00 16.6 C 76 % 12.36 C
1117 20-05-2016 21:00:00 16.4 C 77 % 12.36 C
1118 20-05-2016 21:05:00 16.2 C 77 % 12.17 C
1119 20-05-2016 21:10:00 16 C 79 % 12.36 C
1120 20-05-2016 21:15:00 15.9 C 80 % 12.46 C
1121 20-05-2016 21:20:00 15.7 C 80 % 12.26 C
1122 20-05-2016 21:25:00 15.6 C 80 % 12.16 C
1123 20-05-2016 21:30:00 15.4 C 81 % 12.16 C
1124 20-05-2016 21:35:00 15.3 C 81 % 12.06 C
1125 20-05-2016 21:40:00 15.2 C 82 % 12.15 C
Sensor: Nr:Datum:Temp:Feuchte:Taupunkt:
Aussen-T/F 1126 20-05-2016 21:45:00 15.1 C 82 % 12.05 C
1127 20-05-2016 21:50:00 14.9 C 83 % 12.04 C
1128 20-05-2016 21:55:00 14.9 C 83 % 12.04 C
1129 20-05-2016 22:00:00 14.8 C 83 % 11.94 C
1130 20-05-2016 22:05:00 14.8 C 84 % 12.12 C
1131 20-05-2016 22:10:00 14.8 C 84 % 12.12 C
1132 20-05-2016 22:15:00 14.7 C 84 % 12.03 C
1133 20-05-2016 22:20:00 14.7 C 85 % 12.21 C
1134 20-05-2016 22:25:00 14.7 C 85 % 12.21 C
1135 20-05-2016 22:30:00 14.7 C 85 % 12.21 C
1136 20-05-2016 22:35:00 14.6 C 85 % 12.11 C
1137 20-05-2016 22:40:00 14.6 C 85 % 12.11 C
1138 20-05-2016 22:45:00 14.6 C 85 % 12.11 C
1139 20-05-2016 22:50:00 14.6 C 86 % 12.29 C
1140 20-05-2016 22:55:00 14.6 C 86 % 12.29 C
1141 20-05-2016 23:00:00 14.6 C 86 % 12.29 C
1142 20-05-2016 23:05:00 14.6 C 86 % 12.29 C
1143 20-05-2016 23:10:00 14.5 C 86 % 12.19 C
1144 20-05-2016 23:15:00 14.5 C 86 % 12.19 C
1145 20-05-2016 23:20:00 14.4 C 86 % 12.09 C
1146 20-05-2016 23:25:00 14.4 C 86 % 12.09 C
1147 20-05-2016 23:30:00 14.3 C 86 % 11.99 C
1148 20-05-2016 23:35:00 14.3 C 86 % 11.99 C
1149 20-05-2016 23:40:00 14.2 C 86 % 11.89 C
1150 20-05-2016 23:45:00 14.1 C 86 % 11.8 C
Sensor: Nr:Datum:Temp:Feuchte:Taupunkt:
Aussen-T/F 1151 20-05-2016 23:50:00 13.9 C 86 % 11.6 C
1152 20-05-2016 23:55:00 13.8 C 87 % 11.68 C
1153 21-05-2016 00:00:00 13.6 C 87 % 11.48 C
1154 21-05-2016 00:05:00 13.4 C 87 % 11.28 C
1155 21-05-2016 00:10:00 13.3 C 88 % 11.36 C
1156 21-05-2016 00:15:00 13.2 C 88 % 11.26 C
1157 21-05-2016 00:20:00 13.1 C 88 % 11.16 C
1158 21-05-2016 00:25:00 13 C 89 % 11.23 C
1159 21-05-2016 00:30:00 12.9 C 89 % 11.13 C
1160 21-05-2016 00:35:00 12.8 C 89 % 11.03 C
1161 21-05-2016 00:40:00 12.7 C 90 % 11.1 C
1162 21-05-2016 00:45:00 12.6 C 90 % 11 C
1163 21-05-2016 00:50:00 12.6 C 90 % 11 C
1164 21-05-2016 00:55:00 12.5 C 91 % 11.07 C
1165 21-05-2016 01:00:00 12.5 C 91 % 11.07 C
1166 21-05-2016 01:05:00 12.5 C 91 % 11.07 C
1167 21-05-2016 01:10:00 12.5 C 92 % 11.24 C
1168 21-05-2016 01:15:00 12.6 C 92 % 11.34 C
1169 21-05-2016 01:20:00 12.6 C 92 % 11.34 C
1170 21-05-2016 01:25:00 12.5 C 92 % 11.24 C
1171 21-05-2016 01:30:00 12.5 C 92 % 11.24 C
1172 21-05-2016 01:35:00 12.5 C 92 % 11.24 C
1173 21-05-2016 01:40:00 12.5 C 92 % 11.24 C
1174 21-05-2016 01:45:00 12.4 C 92 % 11.14 C
1175 21-05-2016 01:50:00 12.4 C 92 % 11.14 C
Sensor: Nr:Datum:Temp:Feuchte:Taupunkt:
Aussen-T/F 1176 21-05-2016 01:55:00 12.4 C 92 % 11.14 C
1177 21-05-2016 02:00:00 12.4 C 92 % 11.14 C
1178 21-05-2016 02:05:00 12.4 C 92 % 11.14 C
1179 21-05-2016 02:10:00 12.4 C 92 % 11.14 C
1180 21-05-2016 02:15:00 12.3 C 92 % 11.04 C
1181 21-05-2016 02:20:00 12.3 C 92 % 11.04 C
1182 21-05-2016 02:25:00 12.3 C 92 % 11.04 C
1183 21-05-2016 02:30:00 12.3 C 93 % 11.2 C
1184 21-05-2016 02:35:00 12.3 C 92 % 11.04 C
1185 21-05-2016 02:40:00 12.3 C 92 % 11.04 C
1186 21-05-2016 02:45:00 12.3 C 92 % 11.04 C
1187 21-05-2016 02:50:00 12.2 C 93 % 11.1 C
1188 21-05-2016 02:55:00 12.2 C 93 % 11.1 C
1189 21-05-2016 03:00:00 12.2 C 93 % 11.1 C
1190 21-05-2016 03:05:00 12.2 C 93 % 11.1 C
1191 21-05-2016 03:10:00 12.2 C 93 % 11.1 C
1192 21-05-2016 03:15:00 12.2 C 93 % 11.1 C
1193 21-05-2016 03:20:00 12.1 C 93 % 11 C
1194 21-05-2016 03:25:00 11.9 C 92 % 10.64 C
1195 21-05-2016 03:30:00 11.9 C 93 % 10.81 C
1196 21-05-2016 03:35:00 11.8 C 93 % 10.71 C
1197 21-05-2016 03:40:00 11.8 C 93 % 10.71 C
1198 21-05-2016 03:45:00 11.7 C 93 % 10.61 C
1199 21-05-2016 03:50:00 11.6 C 93 % 10.51 C
1200 21-05-2016 03:55:00 11.5 C 93 % 10.41 C
Sensor: Nr:Datum:Temp:Feuchte:Taupunkt:
Aussen-T/F 1201 21-05-2016 04:00:00 11.4 C 93 % 10.31 C
1202 21-05-2016 04:05:00 11.3 C 93 % 10.21 C
1203 21-05-2016 04:10:00 11.3 C 93 % 10.21 C
1204 21-05-2016 04:15:00 11.3 C 93 % 10.21 C
1205 21-05-2016 04:20:00 11.3 C 94 % 10.37 C
1206 21-05-2016 04:25:00 11.4 C 94 % 10.47 C
1207 21-05-2016 04:30:00 11.5 C 94 % 10.57 C
1208 21-05-2016 04:35:00 11.6 C 94 % 10.67 C
1209 21-05-2016 04:40:00 11.7 C 95 % 10.93 C
1210 21-05-2016 04:45:00 11.8 C 95 % 11.03 C
1211 21-05-2016 04:50:00 11.9 C 95 % 11.13 C
1212 21-05-2016 04:55:00 12 C 95 % 11.22 C
1213 21-05-2016 05:00:00 12.1 C 95 % 11.32 C
1214 21-05-2016 05:05:00 12.1 C 95 % 11.32 C
1215 21-05-2016 05:10:00 12.2 C 95 % 11.42 C
1216 21-05-2016 05:15:00 12.2 C 95 % 11.42 C
1217 21-05-2016 05:20:00 12.3 C 95 % 11.52 C
1218 21-05-2016 05:25:00 12.3 C 94 % 11.36 C
1219 21-05-2016 05:30:00 12.3 C 94 % 11.36 C
1220 21-05-2016 05:35:00 12.3 C 94 % 11.36 C
1221 21-05-2016 05:40:00 12.2 C 94 % 11.26 C
1222 21-05-2016 05:45:00 12.2 C 94 % 11.26 C
1223 21-05-2016 05:50:00 12.1 C 93 % 11 C
1224 21-05-2016 05:55:00 12 C 93 % 10.9 C
1225 21-05-2016 06:00:00 11.9 C 93 % 10.81 C
Sensor: Nr:Datum:Temp:Feuchte:Taupunkt:
Aussen-T/F 1226 21-05-2016 06:05:00 11.9 C 94 % 10.97 C
1227 21-05-2016 06:10:00 11.9 C 94 % 10.97 C
1228 21-05-2016 06:15:00 11.9 C 94 % 10.97 C
1229 21-05-2016 06:20:00 11.9 C 94 % 10.97 C
1230 21-05-2016 06:25:00 11.8 C 94 % 10.87 C
1231 21-05-2016 06:30:00 11.8 C 93 % 10.71 C
1232 21-05-2016 06:35:00 11.7 C 93 % 10.61 C
1233 21-05-2016 06:40:00 11.7 C 93 % 10.61 C
1234 21-05-2016 06:45:00 11.7 C 94 % 10.77 C
1235 21-05-2016 06:50:00 11.7 C 94 % 10.77 C
1236 21-05-2016 06:55:00 11.7 C 94 % 10.77 C
1237 21-05-2016 07:00:00 11.6 C 94 % 10.67 C
1238 21-05-2016 07:05:00 11.6 C 94 % 10.67 C
1239 21-05-2016 07:10:00 11.6 C 94 % 10.67 C
1240 21-05-2016 07:15:00 11.6 C 94 % 10.67 C
1241 21-05-2016 07:20:00 11.7 C 94 % 10.77 C
1242 21-05-2016 07:25:00 11.8 C 94 % 10.87 C
1243 21-05-2016 07:30:00 11.8 C 94 % 10.87 C
1244 21-05-2016 07:35:00 11.8 C 94 % 10.87 C
1245 21-05-2016 07:40:00 11.9 C 94 % 10.97 C
1246 21-05-2016 07:45:00 12.1 C 95 % 11.32 C
1247 21-05-2016 07:50:00 12.2 C 95 % 11.42 C
1248 21-05-2016 07:55:00 12.3 C 95 % 11.52 C
1249 21-05-2016 08:00:00 12.3 C 95 % 11.52 C
1250 21-05-2016 08:05:00 12.4 C 95 % 11.62 C
Sensor: Nr:Datum:Temp:Feuchte:Taupunkt:
Aussen-T/F 1251 21-05-2016 08:10:00 12.5 C 95 % 11.72 C
1252 21-05-2016 08:15:00 12.6 C 95 % 11.82 C
1253 21-05-2016 08:20:00 12.8 C 95 % 12.02 C
1254 21-05-2016 08:25:00 12.9 C 95 % 12.12 C
1255 21-05-2016 08:30:00 13.1 C 95 % 12.32 C
1256 21-05-2016 08:35:00 13.4 C 94 % 12.45 C
1257 21-05-2016 08:40:00 13.6 C 94 % 12.65 C
1258 21-05-2016 08:45:00 13.8 C 94 % 12.85 C
1259 21-05-2016 08:50:00 14.1 C 94 % 13.15 C
1260 21-05-2016 08:55:00 14.3 C 93 % 13.18 C
1261 21-05-2016 09:00:00 14.6 C 93 % 13.48 C
1262 21-05-2016 09:05:00 14.8 C 93 % 13.68 C
1263 21-05-2016 09:10:00 15.1 C 90 % 13.47 C
1264 21-05-2016 09:15:00 15.4 C 87 % 13.25 C
1265 21-05-2016 09:20:00 15.7 C 88 % 13.72 C
1266 21-05-2016 09:25:00 15.9 C 86 % 13.56 C
1267 21-05-2016 09:30:00 16.1 C 86 % 13.76 C
1268 21-05-2016 09:35:00 16.3 C 85 % 13.77 C
1269 21-05-2016 09:40:00 16.4 C 84 % 13.69 C
1270 21-05-2016 09:45:00 16.6 C 83 % 13.7 C
1271 21-05-2016 09:50:00 16.9 C 83 % 14 C
1272 21-05-2016 09:55:00 17.1 C 82 % 14 C
1273 21-05-2016 10:00:00 17.4 C 79 % 13.72 C
1274 21-05-2016 10:05:00 17.6 C 79 % 13.92 C
1275 21-05-2016 10:10:00 17.7 C 77 % 13.62 C
Sensor: Nr:Datum:Temp:Feuchte:Taupunkt:
Aussen-T/F 1276 21-05-2016 10:15:00 17.8 C 78 % 13.91 C
1277 21-05-2016 10:20:00 18.1 C 76 % 13.81 C
1278 21-05-2016 10:25:00 18.2 C 74 % 13.49 C
1279 21-05-2016 10:30:00 18.3 C 77 % 14.2 C
1280 21-05-2016 10:35:00 18.5 C 74 % 13.78 C
1281 21-05-2016 10:40:00 18.6 C 73 % 13.67 C
1282 21-05-2016 10:45:00 18.8 C 74 % 14.07 C
1283 21-05-2016 10:50:00 18.8 C 72 % 13.65 C
1284 21-05-2016 10:55:00 18.9 C 73 % 13.96 C
1285 21-05-2016 11:00:00 19 C 72 % 13.84 C
1286 21-05-2016 11:05:00 19 C 72 % 13.84 C
1287 21-05-2016 11:10:00 19.1 C 71 % 13.72 C
1288 21-05-2016 11:15:00 19.1 C 70 % 13.5 C
1289 21-05-2016 11:20:00 19.1 C 72 % 13.94 C
1290 21-05-2016 11:25:00 19.2 C 71 % 13.82 C
1291 21-05-2016 11:30:00 19.2 C 70 % 13.6 C
1292 21-05-2016 11:35:00 19.2 C 69 % 13.38 C
1293 21-05-2016 11:40:00 19.2 C 70 % 13.6 C
1294 21-05-2016 11:45:00 19.2 C 71 % 13.82 C
1295 21-05-2016 11:50:00 19.2 C 70 % 13.6 C
1296 21-05-2016 11:55:00 19.3 C 72 % 14.13 C
1297 21-05-2016 12:00:00 19.4 C 69 % 13.57 C
1298 21-05-2016 12:05:00 19.5 C 68 % 13.44 C
1299 21-05-2016 12:10:00 19.5 C 69 % 13.66 C
1300 21-05-2016 12:15:00 19.6 C 67 % 13.31 C
Sensor: Nr:Datum:Temp:Feuchte:Taupunkt:
Aussen-T/F 1301 21-05-2016 12:20:00 19.6 C 65 % 12.84 C
1302 21-05-2016 12:25:00 19.7 C 67 % 13.4 C
1303 21-05-2016 12:30:00 19.7 C 65 % 12.94 C
1304 21-05-2016 12:35:00 19.8 C 67 % 13.5 C
1305 21-05-2016 12:40:00 19.9 C 68 % 13.82 C
1306 21-05-2016 12:45:00 20.1 C 66 % 13.55 C
1307 21-05-2016 12:50:00 20.2 C 66 % 13.65 C
1308 21-05-2016 12:55:00 20.4 C 66 % 13.84 C
1309 21-05-2016 13:00:00 20.4 C 63 % 13.12 C
1310 21-05-2016 13:05:00 20.6 C 63 % 13.31 C
1311 21-05-2016 13:10:00 20.8 C 65 % 13.98 C
1312 21-05-2016 13:15:00 21 C 63 % 13.69 C
1313 21-05-2016 13:20:00 21.1 C 62 % 13.54 C
1314 21-05-2016 13:25:00 21.1 C 61 % 13.29 C
1315 21-05-2016 13:30:00 21.2 C 58 % 12.61 C
1316 21-05-2016 13:35:00 21.2 C 60 % 13.13 C
1317 21-05-2016 13:40:00 21.3 C 60 % 13.22 C
1318 21-05-2016 13:45:00 21.4 C 62 % 13.82 C
1319 21-05-2016 13:50:00 21.6 C 60 % 13.51 C
1320 21-05-2016 13:55:00 21.7 C 60 % 13.6 C
1321 21-05-2016 14:00:00 21.7 C 60 % 13.6 C
1322 21-05-2016 14:05:00 21.8 C 58 % 13.17 C
1323 21-05-2016 14:10:00 21.8 C 55 % 12.36 C
1324 21-05-2016 14:15:00 21.8 C 60 % 13.69 C
1325 21-05-2016 14:20:00 21.8 C 56 % 12.64 C
Sensor: Nr:Datum:Temp:Feuchte:Taupunkt:
Aussen-T/F 1326 21-05-2016 14:25:00 21.9 C 54 % 12.18 C
1327 21-05-2016 14:30:00 21.9 C 55 % 12.46 C
1328 21-05-2016 14:35:00 21.9 C 58 % 13.27 C
1329 21-05-2016 14:40:00 22 C 53 % 11.99 C
1330 21-05-2016 14:45:00 22.1 C 53 % 12.08 C
1331 21-05-2016 14:50:00 22.1 C 57 % 13.19 C
1332 21-05-2016 14:55:00 22.2 C 56 % 13.01 C
1333 21-05-2016 15:00:00 22.4 C 54 % 12.64 C
1334 21-05-2016 15:05:00 22.5 C 56 % 13.29 C
1335 21-05-2016 15:10:00 22.8 C 53 % 12.73 C
1336 21-05-2016 15:15:00 22.9 C 52 % 12.53 C
1337 21-05-2016 15:20:00 22.8 C 57 % 13.84 C
1338 21-05-2016 15:25:00 22.9 C 52 % 12.53 C
1339 21-05-2016 15:30:00 23 C 58 % 14.29 C
1340 21-05-2016 15:35:00 23.4 C 52 % 12.99 C
1341 21-05-2016 15:40:00 23.7 C 50 % 12.67 C
1342 21-05-2016 15:45:00 23.9 C 50 % 12.85 C
1343 21-05-2016 15:50:00 23.8 C 52 % 13.36 C
1344 21-05-2016 15:55:00 23.8 C 53 % 13.65 C
1345 21-05-2016 16:00:00 23.9 C 49 % 12.54 C
1346 21-05-2016 16:05:00 24.1 C 49 % 12.72 C
1347 21-05-2016 16:10:00 24.2 C 52 % 13.73 C
1348 21-05-2016 16:15:00 24.6 C 49 % 13.18 C
1349 21-05-2016 16:20:00 24.7 C 48 % 12.96 C
1350 21-05-2016 16:25:00 24.7 C 50 % 13.58 C
Sensor: Nr:Datum:Temp:Feuchte:Taupunkt:
Aussen-T/F 1351 21-05-2016 16:30:00 24.9 C 46 % 12.49 C
1352 21-05-2016 16:35:00 25.1 C 47 % 13 C
1353 21-05-2016 16:40:00 25.2 C 47 % 13.09 C
1354 21-05-2016 16:45:00 25.5 C 49 % 14 C
1355 21-05-2016 16:50:00 25.7 C 48 % 13.87 C
1356 21-05-2016 16:55:00 25.6 C 47 % 13.45 C
1357 21-05-2016 17:00:00 25.4 C 44 % 12.27 C
1358 21-05-2016 17:05:00 25.4 C 49 % 13.91 C
1359 21-05-2016 17:10:00 25.7 C 47 % 13.55 C
1360 21-05-2016 17:15:00 25.7 C 47 % 13.55 C
1361 21-05-2016 17:20:00 25.8 C 46 % 13.31 C
1362 21-05-2016 17:25:00 25.9 C 48 % 14.05 C
1363 21-05-2016 17:30:00 25.7 C 47 % 13.55 C
1364 21-05-2016 17:35:00 25.8 C 47 % 13.64 C
1365 21-05-2016 17:40:00 26.1 C 46 % 13.58 C
1366 21-05-2016 17:45:00 26.3 C 45 % 13.42 C
1367 21-05-2016 17:50:00 26.4 C 46 % 13.85 C
1368 21-05-2016 17:55:00 26.3 C 42 % 12.37 C
1369 21-05-2016 18:00:00 26.1 C 42 % 12.19 C
1370 21-05-2016 18:05:00 25.8 C 44 % 12.63 C
1371 21-05-2016 18:10:00 25.9 C 45 % 13.06 C
1372 21-05-2016 18:15:00 26.1 C 44 % 12.9 C
1373 21-05-2016 18:20:00 26.4 C 45 % 13.51 C
1374 21-05-2016 18:25:00 26.5 C 43 % 12.91 C
1375 21-05-2016 18:30:00 26.7 C 48 % 14.78 C
Sensor: Nr:Datum:Temp:Feuchte:Taupunkt:
Aussen-T/F 1376 21-05-2016 18:35:00 26.7 C 44 % 13.44 C
1377 21-05-2016 18:40:00 26.7 C 43 % 13.09 C
1378 21-05-2016 18:45:00 26.4 C 44 % 13.17 C
1379 21-05-2016 18:50:00 26.3 C 45 % 13.42 C
1380 21-05-2016 18:55:00 26.5 C 44 % 13.26 C
1381 21-05-2016 19:00:00 26.4 C 44 % 13.17 C
1382 21-05-2016 19:05:00 26.3 C 43 % 12.73 C
1383 21-05-2016 19:10:00 26.2 C 46 % 13.67 C
1384 21-05-2016 19:15:00 26.2 C 44 % 12.99 C
1385 21-05-2016 19:20:00 25.9 C 45 % 13.06 C
1386 21-05-2016 19:25:00 25.3 C 46 % 12.85 C
1387 21-05-2016 19:30:00 24.9 C 47 % 12.82 C
1388 21-05-2016 19:35:00 24.6 C 48 % 12.87 C
1389 21-05-2016 19:40:00 24.6 C 50 % 13.49 C
1390 21-05-2016 19:45:00 24.4 C 54 % 14.49 C
1391 21-05-2016 19:50:00 24.2 C 50 % 13.12 C
1392 21-05-2016 19:55:00 23.9 C 54 % 14.03 C
1393 21-05-2016 20:00:00 23.5 C 60 % 15.29 C
1394 21-05-2016 20:05:00 22.9 C 61 % 14.98 C
1395 21-05-2016 20:10:00 22.3 C 62 % 14.67 C
1396 21-05-2016 20:15:00 21.7 C 61 % 13.85 C
1397 21-05-2016 20:20:00 21.2 C 65 % 14.36 C
1398 21-05-2016 20:25:00 20.8 C 66 % 14.22 C
1399 21-05-2016 20:30:00 20.5 C 67 % 14.16 C
1400 21-05-2016 20:35:00 20.2 C 68 % 14.11 C
Sensor: Nr:Datum:Temp:Feuchte:Taupunkt:
Aussen-T/F 1401 21-05-2016 20:40:00 19.9 C 69 % 14.05 C
1402 21-05-2016 20:45:00 19.7 C 69 % 13.86 C
1403 21-05-2016 20:50:00 19.5 C 70 % 13.89 C
1404 21-05-2016 20:55:00 19.3 C 70 % 13.69 C
1405 21-05-2016 21:00:00 19.2 C 71 % 13.82 C
1406 21-05-2016 21:05:00 18.9 C 71 % 13.53 C
1407 21-05-2016 21:10:00 18.8 C 72 % 13.65 C
1408 21-05-2016 21:15:00 18.6 C 72 % 13.46 C
1409 21-05-2016 21:20:00 18.4 C 72 % 13.26 C
1410 21-05-2016 21:25:00 18.2 C 72 % 13.07 C
1411 21-05-2016 21:30:00 18.1 C 73 % 13.19 C
1412 21-05-2016 21:35:00 17.9 C 74 % 13.2 C
1413 21-05-2016 21:40:00 17.7 C 73 % 12.8 C
1414 21-05-2016 21:45:00 17.6 C 74 % 12.91 C
1415 21-05-2016 21:50:00 17.4 C 74 % 12.72 C
1416 21-05-2016 21:55:00 17.3 C 75 % 12.83 C
1417 21-05-2016 22:00:00 17.2 C 75 % 12.73 C
1418 21-05-2016 22:05:00 17.1 C 75 % 12.64 C
1419 21-05-2016 22:10:00 17.1 C 76 % 12.84 C
1420 21-05-2016 22:15:00 17 C 76 % 12.74 C
1421 21-05-2016 22:20:00 16.9 C 77 % 12.84 C
1422 21-05-2016 22:25:00 16.9 C 77 % 12.84 C
1423 21-05-2016 22:30:00 16.8 C 77 % 12.75 C
1424 21-05-2016 22:35:00 16.8 C 77 % 12.75 C
1425 21-05-2016 22:40:00 16.8 C 77 % 12.75 C
Sensor: Nr:Datum:Temp:Feuchte:Taupunkt:
Aussen-T/F 1426 21-05-2016 22:45:00 16.8 C 78 % 12.94 C
1427 21-05-2016 22:50:00 16.7 C 78 % 12.85 C
1428 21-05-2016 22:55:00 16.7 C 78 % 12.85 C
1429 21-05-2016 23:00:00 16.7 C 79 % 13.04 C
1430 21-05-2016 23:05:00 16.6 C 79 % 12.95 C
1431 21-05-2016 23:10:00 16.6 C 79 % 12.95 C
1432 21-05-2016 23:15:00 16.6 C 79 % 12.95 C
1433 21-05-2016 23:20:00 16.5 C 80 % 13.04 C
1434 21-05-2016 23:25:00 16.4 C 80 % 12.94 C
1435 21-05-2016 23:30:00 16.3 C 80 % 12.85 C
1436 21-05-2016 23:35:00 16.3 C 80 % 12.85 C
1437 21-05-2016 23:40:00 16.3 C 81 % 13.04 C
1438 21-05-2016 23:45:00 16.3 C 81 % 13.04 C
1439 21-05-2016 23:50:00 16.3 C 81 % 13.04 C
1440 21-05-2016 23:55:00 16.3 C 81 % 13.04 C
1441 22-05-2016 00:00:00 16.3 C 81 % 13.04 C
1442 22-05-2016 00:05:00 16.3 C 81 % 13.04 C
1443 22-05-2016 00:10:00 16.3 C 81 % 13.04 C
1444 22-05-2016 00:15:00 16.3 C 81 % 13.04 C
1445 22-05-2016 00:20:00 16.4 C 81 % 13.13 C
1446 22-05-2016 00:25:00 16.4 C 81 % 13.13 C
1447 22-05-2016 00:30:00 16.4 C 80 % 12.94 C
1448 22-05-2016 00:35:00 16.4 C 81 % 13.13 C
1449 22-05-2016 00:40:00 16.5 C 80 % 13.04 C
1450 22-05-2016 00:45:00 16.5 C 81 % 13.23 C
Sensor: Nr:Datum:Temp:Feuchte:Taupunkt:
Aussen-T/F 1451 22-05-2016 00:50:00 16.5 C 80 % 13.04 C
1452 22-05-2016 00:55:00 16.5 C 80 % 13.04 C
1453 22-05-2016 01:00:00 16.4 C 79 % 12.75 C
1454 22-05-2016 01:05:00 16.4 C 79 % 12.75 C
1455 22-05-2016 01:10:00 16.5 C 79 % 12.85 C
1456 22-05-2016 01:15:00 16.4 C 78 % 12.56 C
1457 22-05-2016 01:20:00 16.4 C 79 % 12.75 C
1458 22-05-2016 01:25:00 16.2 C 80 % 12.75 C
1459 22-05-2016 01:30:00 16.1 C 80 % 12.65 C
1460 22-05-2016 01:35:00 15.9 C 80 % 12.46 C
1461 22-05-2016 01:40:00 15.7 C 81 % 12.45 C
1462 22-05-2016 01:45:00 15.6 C 81 % 12.35 C
1463 22-05-2016 01:50:00 15.4 C 82 % 12.35 C
1464 22-05-2016 01:55:00 15.4 C 82 % 12.35 C
1465 22-05-2016 02:00:00 15.3 C 83 % 12.43 C
1466 22-05-2016 02:05:00 15.2 C 83 % 12.33 C
1467 22-05-2016 02:10:00 15.2 C 83 % 12.33 C
1468 22-05-2016 02:15:00 15.1 C 83 % 12.24 C
1469 22-05-2016 02:20:00 15.1 C 83 % 12.24 C
1470 22-05-2016 02:25:00 15 C 83 % 12.14 C
1471 22-05-2016 02:30:00 14.9 C 83 % 12.04 C
1472 22-05-2016 02:35:00 14.8 C 83 % 11.94 C
1473 22-05-2016 02:40:00 14.7 C 84 % 12.03 C
1474 22-05-2016 02:45:00 14.6 C 84 % 11.93 C
1475 22-05-2016 02:50:00 14.4 C 85 % 11.91 C
Sensor: Nr:Datum:Temp:Feuchte:Taupunkt:
Aussen-T/F 1476 22-05-2016 02:55:00 14.4 C 85 % 11.91 C
1477 22-05-2016 03:00:00 14.3 C 85 % 11.81 C
1478 22-05-2016 03:05:00 14.2 C 85 % 11.72 C
1479 22-05-2016 03:10:00 14.1 C 86 % 11.8 C
1480 22-05-2016 03:15:00 14 C 86 % 11.7 C
1481 22-05-2016 03:20:00 13.9 C 86 % 11.6 C
1482 22-05-2016 03:25:00 13.8 C 86 % 11.5 C
1483 22-05-2016 03:30:00 13.7 C 87 % 11.58 C
1484 22-05-2016 03:35:00 13.6 C 87 % 11.48 C
1485 22-05-2016 03:40:00 13.5 C 88 % 11.55 C
1486 22-05-2016 03:45:00 13.4 C 88 % 11.45 C
1487 22-05-2016 03:50:00 13.3 C 88 % 11.36 C
1488 22-05-2016 03:55:00 13.2 C 88 % 11.26 C
1489 22-05-2016 04:00:00 13.2 C 89 % 11.43 C
1490 22-05-2016 04:05:00 13.1 C 89 % 11.33 C
1491 22-05-2016 04:10:00 13.1 C 90 % 11.5 C
1492 22-05-2016 04:15:00 12.9 C 89 % 11.13 C
1493 22-05-2016 04:20:00 12.9 C 89 % 11.13 C
1494 22-05-2016 04:25:00 12.8 C 90 % 11.2 C
1495 22-05-2016 04:30:00 12.7 C 90 % 11.1 C
1496 22-05-2016 04:35:00 12.7 C 90 % 11.1 C
1497 22-05-2016 04:40:00 12.6 C 91 % 11.17 C
1498 22-05-2016 04:45:00 12.5 C 91 % 11.07 C
1499 22-05-2016 04:50:00 12.5 C 91 % 11.07 C
1500 22-05-2016 04:55:00 12.5 C 91 % 11.07 C
Sensor: Nr:Datum:Temp:Feuchte:Taupunkt:
Aussen-T/F 1501 22-05-2016 05:00:00 12.4 C 91 % 10.97 C
1502 22-05-2016 05:05:00 12.4 C 92 % 11.14 C
1503 22-05-2016 05:10:00 12.3 C 91 % 10.87 C
1504 22-05-2016 05:15:00 12.3 C 92 % 11.04 C
1505 22-05-2016 05:20:00 12.3 C 92 % 11.04 C
1506 22-05-2016 05:25:00 12.3 C 92 % 11.04 C
1507 22-05-2016 05:30:00 12.3 C 92 % 11.04 C
1508 22-05-2016 05:35:00 12.3 C 93 % 11.2 C
1509 22-05-2016 05:40:00 12.3 C 92 % 11.04 C
1510 22-05-2016 05:45:00 12.2 C 92 % 10.94 C
1511 22-05-2016 05:50:00 12.1 C 92 % 10.84 C
1512 22-05-2016 05:55:00 12.1 C 93 % 11 C
1513 22-05-2016 06:00:00 12.1 C 93 % 11 C
1514 22-05-2016 06:05:00 12.1 C 93 % 11 C
1515 22-05-2016 06:10:00 12.1 C 93 % 11 C
1516 22-05-2016 06:15:00 12.1 C 93 % 11 C
1517 22-05-2016 06:20:00 12.1 C 93 % 11 C
1518 22-05-2016 06:25:00 12.1 C 93 % 11 C
1519 22-05-2016 06:30:00 12.1 C 93 % 11 C
1520 22-05-2016 06:35:00 12.1 C 93 % 11 C
1521 22-05-2016 06:40:00 12.1 C 93 % 11 C
1522 22-05-2016 06:45:00 12.2 C 93 % 11.1 C
1523 22-05-2016 06:50:00 12.3 C 94 % 11.36 C
1524 22-05-2016 06:55:00 12.4 C 94 % 11.46 C
1525 22-05-2016 07:00:00 12.4 C 94 % 11.46 C
Sensor: Nr:Datum:Temp:Feuchte:Taupunkt:
Aussen-T/F 1526 22-05-2016 07:05:00 12.6 C 94 % 11.66 C
1527 22-05-2016 07:10:00 12.6 C 94 % 11.66 C
1528 22-05-2016 07:15:00 12.7 C 94 % 11.76 C
1529 22-05-2016 07:20:00 12.7 C 94 % 11.76 C
1530 22-05-2016 07:25:00 12.8 C 94 % 11.86 C
1531 22-05-2016 07:30:00 13 C 94 % 12.06 C
1532 22-05-2016 07:35:00 13.2 C 94 % 12.26 C
1533 22-05-2016 07:40:00 13.3 C 94 % 12.36 C
1534 22-05-2016 07:45:00 13.6 C 94 % 12.65 C
1535 22-05-2016 07:50:00 14 C 93 % 12.89 C
1536 22-05-2016 07:55:00 14.3 C 93 % 13.18 C
1537 22-05-2016 08:00:00 14.6 C 92 % 13.32 C
1538 22-05-2016 08:05:00 14.8 C 91 % 13.35 C
1539 22-05-2016 08:10:00 14.9 C 90 % 13.28 C
1540 22-05-2016 08:15:00 15.1 C 90 % 13.47 C
1541 22-05-2016 08:20:00 15.2 C 90 % 13.57 C
1542 22-05-2016 08:25:00 15.4 C 90 % 13.77 C
1543 22-05-2016 08:30:00 15.6 C 90 % 13.97 C
1544 22-05-2016 08:35:00 15.9 C 90 % 14.26 C
1545 22-05-2016 08:40:00 16.3 C 90 % 14.66 C
1546 22-05-2016 08:45:00 16.6 C 89 % 14.78 C
1547 22-05-2016 08:50:00 16.8 C 85 % 14.26 C
1548 22-05-2016 08:55:00 17.3 C 87 % 15.12 C
1549 22-05-2016 09:00:00 17.5 C 84 % 14.77 C
1550 22-05-2016 09:05:00 17.8 C 81 % 14.5 C
Sensor: Nr:Datum:Temp:Feuchte:Taupunkt:
Aussen-T/F 1551 22-05-2016 09:10:00 18.2 C 78 % 14.3 C
1552 22-05-2016 09:15:00 18.6 C 76 % 14.29 C
1553 22-05-2016 09:20:00 19.1 C 75 % 14.57 C
1554 22-05-2016 09:25:00 19.5 C 73 % 14.53 C
1555 22-05-2016 09:30:00 19.8 C 72 % 14.61 C
1556 22-05-2016 09:35:00 20.2 C 71 % 14.78 C
1557 22-05-2016 09:40:00 20.4 C 71 % 14.97 C
1558 22-05-2016 09:45:00 20.6 C 69 % 14.71 C
1559 22-05-2016 09:50:00 20.7 C 72 % 15.47 C
1560 22-05-2016 09:55:00 20.7 C 68 % 14.58 C
1561 22-05-2016 10:00:00 20.8 C 67 % 14.45 C
1562 22-05-2016 10:05:00 20.9 C 70 % 15.23 C
1563 22-05-2016 10:10:00 21 C 68 % 14.87 C
1564 22-05-2016 10:15:00 21.2 C 70 % 15.51 C
1565 22-05-2016 10:20:00 21.3 C 67 % 14.93 C
1566 22-05-2016 10:25:00 21.4 C 67 % 15.02 C
1567 22-05-2016 10:30:00 21.6 C 66 % 14.98 C
1568 22-05-2016 10:35:00 21.6 C 67 % 15.21 C
1569 22-05-2016 10:40:00 21.7 C 66 % 15.07 C
1570 22-05-2016 10:45:00 21.8 C 67 % 15.4 C
1571 22-05-2016 10:50:00 21.8 C 67 % 15.4 C
1572 22-05-2016 10:55:00 21.8 C 66 % 15.17 C
1573 22-05-2016 11:00:00 21.8 C 67 % 15.4 C
1574 22-05-2016 11:05:00 21.8 C 66 % 15.17 C
1575 22-05-2016 11:10:00 21.8 C 67 % 15.4 C
Sensor: Nr:Datum:Temp:Feuchte:Taupunkt:
Aussen-T/F 1576 22-05-2016 11:15:00 21.8 C 66 % 15.17 C
1577 22-05-2016 11:20:00 21.9 C 65 % 15.02 C
1578 22-05-2016 11:25:00 22.1 C 64 % 14.97 C
1579 22-05-2016 11:30:00 22.1 C 63 % 14.73 C
1580 22-05-2016 11:35:00 22.2 C 63 % 14.82 C
1581 22-05-2016 11:40:00 22.2 C 62 % 14.58 C
1582 22-05-2016 11:45:00 22.2 C 63 % 14.82 C
1583 22-05-2016 11:50:00 22.3 C 63 % 14.92 C
1584 22-05-2016 11:55:00 22.5 C 62 % 14.86 C
1585 22-05-2016 12:00:00 22.6 C 64 % 15.45 C
1586 22-05-2016 12:05:00 22.7 C 64 % 15.54 C
1587 22-05-2016 12:10:00 22.8 C 64 % 15.64 C
1588 22-05-2016 12:15:00 22.8 C 60 % 14.63 C
1589 22-05-2016 12:20:00 22.8 C 60 % 14.63 C
1590 22-05-2016 12:25:00 22.8 C 60 % 14.63 C
1591 22-05-2016 12:30:00 22.9 C 62 % 15.23 C
1592 22-05-2016 12:35:00 23 C 61 % 15.08 C
1593 22-05-2016 12:40:00 23.2 C 61 % 15.26 C
1594 22-05-2016 12:45:00 23.3 C 58 % 14.58 C
1595 22-05-2016 12:50:00 23.4 C 59 % 14.93 C
1596 22-05-2016 12:55:00 23.4 C 56 % 14.13 C
1597 22-05-2016 13:00:00 23.3 C 57 % 14.31 C
1598 22-05-2016 13:05:00 23.3 C 57 % 14.31 C
1599 22-05-2016 13:10:00 23.3 C 60 % 15.1 C
1600 22-05-2016 13:15:00 23.2 C 59 % 14.75 C
Sensor: Nr:Datum:Temp:Feuchte:Taupunkt:
Aussen-T/F 1601 22-05-2016 13:20:00 23.3 C 58 % 14.58 C
1602 22-05-2016 13:25:00 23.4 C 58 % 14.67 C
1603 22-05-2016 13:30:00 23.6 C 57 % 14.59 C
1604 22-05-2016 13:35:00 23.6 C 57 % 14.59 C
1605 22-05-2016 13:40:00 23.7 C 58 % 14.95 C
1606 22-05-2016 13:45:00 23.9 C 57 % 14.87 C
1607 22-05-2016 13:50:00 24 C 57 % 14.96 C
1608 22-05-2016 13:55:00 24.1 C 57 % 15.05 C
1609 22-05-2016 14:00:00 24.1 C 55 % 14.5 C
1610 22-05-2016 14:05:00 24.1 C 57 % 15.05 C
1611 22-05-2016 14:10:00 24.2 C 55 % 14.59 C
1612 22-05-2016 14:15:00 24.3 C 58 % 15.51 C
1613 22-05-2016 14:20:00 24.6 C 57 % 15.52 C
1614 22-05-2016 14:25:00 24.8 C 56 % 15.43 C
1615 22-05-2016 14:30:00 24.7 C 56 % 15.33 C
1616 22-05-2016 14:35:00 24.8 C 57 % 15.7 C
1617 22-05-2016 14:40:00 24.9 C 57 % 15.8 C
1618 22-05-2016 14:45:00 24.8 C 55 % 15.15 C
1619 22-05-2016 14:50:00 24.9 C 57 % 15.8 C
1620 22-05-2016 14:55:00 24.9 C 54 % 14.95 C
1621 22-05-2016 15:00:00 24.9 C 57 % 15.8 C
1622 22-05-2016 15:05:00 24.8 C 54 % 14.86 C
1623 22-05-2016 15:10:00 24.6 C 54 % 14.68 C
1624 22-05-2016 15:15:00 24.5 C 56 % 15.15 C
1625 22-05-2016 15:20:00 24.5 C 55 % 14.87 C
Sensor: Nr:Datum:Temp:Feuchte:Taupunkt:
Aussen-T/F 1626 22-05-2016 15:25:00 24.5 C 57 % 15.42 C
1627 22-05-2016 15:30:00 24.8 C 58 % 15.98 C
1628 22-05-2016 15:35:00 25 C 56 % 15.61 C
1629 22-05-2016 15:40:00 25.2 C 53 % 14.94 C
1630 22-05-2016 15:45:00 25.3 C 53 % 15.03 C
1631 22-05-2016 15:50:00 25.3 C 55 % 15.61 C
1632 22-05-2016 15:55:00 25.2 C 57 % 16.08 C
1633 22-05-2016 16:00:00 25 C 56 % 15.61 C
1634 22-05-2016 16:05:00 24.9 C 56 % 15.52 C
1635 22-05-2016 16:10:00 24.7 C 51 % 13.89 C
1636 22-05-2016 16:15:00 24.6 C 55 % 14.96 C
1637 22-05-2016 16:20:00 24.4 C 55 % 14.78 C
1638 22-05-2016 16:25:00 24.7 C 53 % 14.48 C
1639 22-05-2016 16:30:00 24.9 C 49 % 13.46 C
1640 22-05-2016 16:35:00 24.9 C 51 % 14.07 C
1641 22-05-2016 16:40:00 24.8 C 46 % 12.4 C
1642 22-05-2016 16:45:00 24.6 C 46 % 12.22 C
1643 22-05-2016 16:50:00 24.4 C 45 % 11.7 C
1644 22-05-2016 16:55:00 24.3 C 45 % 11.61 C
1645 22-05-2016 17:00:00 24.2 C 45 % 11.52 C
1646 22-05-2016 17:05:00 24.1 C 52 % 13.63 C
1647 22-05-2016 17:10:00 23.8 C 56 % 14.5 C
1648 22-05-2016 17:15:00 23.7 C 58 % 14.95 C
1649 22-05-2016 17:20:00 23.5 C 59 % 15.03 C
1650 22-05-2016 17:25:00 23.3 C 60 % 15.1 C
Sensor: Nr:Datum:Temp:Feuchte:Taupunkt:
Aussen-T/F 1651 22-05-2016 17:30:00 23 C 61 % 15.08 C
1652 22-05-2016 17:35:00 22.8 C 62 % 15.14 C
1653 22-05-2016 17:40:00 22.6 C 63 % 15.2 C
1654 22-05-2016 17:45:00 22.4 C 63 % 15.01 C
1655 22-05-2016 17:50:00 22.2 C 65 % 15.31 C
1656 22-05-2016 17:55:00 22.1 C 66 % 15.45 C
1657 22-05-2016 18:00:00 21.9 C 65 % 15.02 C
1658 22-05-2016 18:05:00 21.8 C 68 % 15.63 C
1659 22-05-2016 18:10:00 21.7 C 68 % 15.54 C
1660 22-05-2016 18:15:00 21.6 C 68 % 15.44 C
1661 22-05-2016 18:20:00 21.6 C 69 % 15.67 C
1662 22-05-2016 18:25:00 21.8 C 68 % 15.63 C
1663 22-05-2016 18:30:00 21.9 C 67 % 15.5 C
1664 22-05-2016 18:35:00 21.8 C 67 % 15.4 C
1665 22-05-2016 18:40:00 21.7 C 69 % 15.77 C
1666 22-05-2016 18:45:00 21.7 C 68 % 15.54 C
1667 22-05-2016 18:50:00 21.7 C 69 % 15.77 C
1668 22-05-2016 18:55:00 21.8 C 70 % 16.09 C
1669 22-05-2016 19:00:00 22.1 C 68 % 15.92 C
1670 22-05-2016 19:05:00 22.3 C 66 % 15.64 C
1671 22-05-2016 19:10:00 22.2 C 66 % 15.55 C
1672 22-05-2016 19:15:00 22.1 C 66 % 15.45 C
1673 22-05-2016 19:20:00 21.8 C 60 % 13.69 C
1674 22-05-2016 19:25:00 21.6 C 59 % 13.25 C
1675 22-05-2016 19:30:00 21.4 C 57 % 12.53 C
Sensor: Nr:Datum:Temp:Feuchte:Taupunkt:
Aussen-T/F 1676 22-05-2016 19:35:00 21.2 C 58 % 12.61 C
1677 22-05-2016 19:40:00 21.1 C 55 % 11.71 C
1678 22-05-2016 19:45:00 20.9 C 58 % 12.33 C
1679 22-05-2016 19:50:00 20.8 C 59 % 12.5 C
1680 22-05-2016 19:55:00 20.6 C 60 % 12.57 C
1681 22-05-2016 20:00:00 20.4 C 58 % 11.86 C
1682 22-05-2016 20:05:00 20.3 C 58 % 11.77 C
1683 22-05-2016 20:10:00 20.2 C 61 % 12.44 C
1684 22-05-2016 20:15:00 20 C 61 % 12.26 C
1685 22-05-2016 20:20:00 19.9 C 59 % 11.66 C
1686 22-05-2016 20:25:00 19.8 C 62 % 12.31 C
1687 22-05-2016 20:30:00 19.7 C 63 % 12.46 C
1688 22-05-2016 20:35:00 19.4 C 63 % 12.18 C
1689 22-05-2016 20:40:00 19.3 C 61 % 11.6 C
1690 22-05-2016 20:45:00 19.2 C 64 % 12.23 C
1691 22-05-2016 20:50:00 19.1 C 65 % 12.37 C
1692 22-05-2016 20:55:00 18.9 C 66 % 12.41 C
1693 22-05-2016 21:00:00 18.8 C 68 % 12.77 C
1694 22-05-2016 21:05:00 18.8 C 69 % 13 C
1695 22-05-2016 21:10:00 18.7 C 70 % 13.12 C
1696 22-05-2016 21:15:00 18.5 C 70 % 12.93 C
1697 22-05-2016 21:20:00 18.4 C 69 % 12.61 C
1698 22-05-2016 21:25:00 18.3 C 72 % 13.17 C
1699 22-05-2016 21:30:00 18.2 C 68 % 12.2 C
1700 22-05-2016 21:35:00 18.2 C 68 % 12.2 C
Sensor: Nr:Datum:Temp:Feuchte:Taupunkt:
Aussen-T/F 1701 22-05-2016 21:40:00 18.2 C 68 % 12.2 C
1702 22-05-2016 21:45:00 18.2 C 69 % 12.42 C
1703 22-05-2016 21:50:00 18.2 C 69 % 12.42 C
1704 22-05-2016 21:55:00 18.1 C 67 % 11.88 C
1705 22-05-2016 22:00:00 18.1 C 68 % 12.11 C
1706 22-05-2016 22:05:00 18.1 C 68 % 12.11 C
1707 22-05-2016 22:10:00 18.1 C 70 % 12.55 C
1708 22-05-2016 22:15:00 17.9 C 70 % 12.35 C
1709 22-05-2016 22:20:00 17.8 C 72 % 12.69 C
1710 22-05-2016 22:25:00 17.6 C 72 % 12.5 C
1711 22-05-2016 22:30:00 17.4 C 74 % 12.72 C
1712 22-05-2016 22:35:00 17.3 C 74 % 12.62 C
1713 22-05-2016 22:40:00 17.2 C 73 % 12.32 C
1714 22-05-2016 22:45:00 17.1 C 74 % 12.43 C
1715 22-05-2016 22:50:00 17.1 C 75 % 12.64 C
1716 22-05-2016 22:55:00 17.1 C 78 % 13.24 C
1717 22-05-2016 23:00:00 16.9 C 78 % 13.04 C
1718 22-05-2016 23:05:00 16.8 C 80 % 13.33 C
1719 22-05-2016 23:10:00 16.7 C 81 % 13.43 C
1720 22-05-2016 23:15:00 16.5 C 82 % 13.42 C
1721 22-05-2016 23:20:00 16.3 C 82 % 13.22 C
1722 22-05-2016 23:25:00 16.1 C 83 % 13.21 C
1723 22-05-2016 23:30:00 15.9 C 84 % 13.2 C
1724 22-05-2016 23:35:00 15.9 C 85 % 13.38 C
1725 22-05-2016 23:40:00 15.8 C 85 % 13.28 C
Sensor: Nr:Datum:Temp:Feuchte:Taupunkt:
Aussen-T/F 1726 22-05-2016 23:45:00 15.7 C 86 % 13.37 C
1727 22-05-2016 23:50:00 15.7 C 86 % 13.37 C
1728 22-05-2016 23:55:00 15.6 C 86 % 13.27 C
1729 23-05-2016 00:00:00 15.4 C 87 % 13.25 C
1730 23-05-2016 00:05:00 15.3 C 87 % 13.15 C
1731 23-05-2016 00:10:00 15.2 C 88 % 13.23 C
1732 23-05-2016 00:15:00 15.1 C 88 % 13.13 C
1733 23-05-2016 00:20:00 15.1 C 88 % 13.13 C
1734 23-05-2016 00:25:00 15 C 89 % 13.2 C
1735 23-05-2016 00:30:00 14.9 C 89 % 13.1 C
1736 23-05-2016 00:35:00 14.8 C 89 % 13.01 C
1737 23-05-2016 00:40:00 14.8 C 90 % 13.18 C
1738 23-05-2016 00:45:00 14.8 C 90 % 13.18 C
1739 23-05-2016 00:50:00 14.7 C 91 % 13.25 C
1740 23-05-2016 00:55:00 14.7 C 91 % 13.25 C
1741 23-05-2016 01:00:00 14.7 C 91 % 13.25 C
1742 23-05-2016 01:05:00 14.6 C 91 % 13.15 C
1743 23-05-2016 01:10:00 14.6 C 91 % 13.15 C
1744 23-05-2016 01:15:00 14.6 C 91 % 13.15 C
1745 23-05-2016 01:20:00 14.5 C 91 % 13.05 C
1746 23-05-2016 01:25:00 14.5 C 92 % 13.22 C
1747 23-05-2016 01:30:00 14.4 C 91 % 12.95 C
1748 23-05-2016 01:35:00 14.4 C 91 % 12.95 C
1749 23-05-2016 01:40:00 14.4 C 91 % 12.95 C
1750 23-05-2016 01:45:00 14.4 C 91 % 12.95 C
Sensor: Nr:Datum:Temp:Feuchte:Taupunkt:
Aussen-T/F 1751 23-05-2016 01:50:00 14.4 C 91 % 12.95 C
1752 23-05-2016 01:55:00 14.5 C 91 % 13.05 C
1753 23-05-2016 02:00:00 14.5 C 90 % 12.88 C
1754 23-05-2016 02:05:00 14.5 C 90 % 12.88 C
1755 23-05-2016 02:10:00 14.5 C 90 % 12.88 C
1756 23-05-2016 02:15:00 14.5 C 90 % 12.88 C
1757 23-05-2016 02:20:00 14.5 C 89 % 12.71 C
1758 23-05-2016 02:25:00 14.5 C 89 % 12.71 C
1759 23-05-2016 02:30:00 14.6 C 89 % 12.81 C
1760 23-05-2016 02:35:00 14.6 C 88 % 12.64 C
1761 23-05-2016 02:40:00 14.6 C 88 % 12.64 C
1762 23-05-2016 02:45:00 14.6 C 87 % 12.46 C
1763 23-05-2016 02:50:00 14.6 C 87 % 12.46 C
1764 23-05-2016 02:55:00 14.7 C 88 % 12.73 C
1765 23-05-2016 03:00:00 14.7 C 88 % 12.73 C
1766 23-05-2016 03:05:00 14.7 C 87 % 12.56 C
1767 23-05-2016 03:10:00 14.6 C 87 % 12.46 C
1768 23-05-2016 03:15:00 14.6 C 87 % 12.46 C
1769 23-05-2016 03:20:00 14.6 C 87 % 12.46 C
1770 23-05-2016 03:25:00 14.6 C 87 % 12.46 C
1771 23-05-2016 03:30:00 14.6 C 86 % 12.29 C
1772 23-05-2016 03:35:00 14.7 C 87 % 12.56 C
1773 23-05-2016 03:40:00 14.7 C 86 % 12.38 C
1774 23-05-2016 03:45:00 14.7 C 85 % 12.21 C
1775 23-05-2016 03:50:00 14.7 C 85 % 12.21 C
Sensor: Nr:Datum:Temp:Feuchte:Taupunkt:
Aussen-T/F 1776 23-05-2016 03:55:00 14.6 C 84 % 11.93 C
1777 23-05-2016 04:00:00 14.5 C 84 % 11.83 C
1778 23-05-2016 04:05:00 14.4 C 84 % 11.73 C
1779 23-05-2016 04:10:00 14.3 C 84 % 11.64 C
1780 23-05-2016 04:15:00 14.2 C 85 % 11.72 C
1781 23-05-2016 04:20:00 14.1 C 85 % 11.62 C
1782 23-05-2016 04:25:00 14.1 C 85 % 11.62 C
1783 23-05-2016 04:30:00 13.9 C 85 % 11.42 C
1784 23-05-2016 04:35:00 13.8 C 85 % 11.32 C
1785 23-05-2016 04:40:00 13.8 C 85 % 11.32 C
1786 23-05-2016 04:45:00 13.7 C 86 % 11.4 C
1787 23-05-2016 04:50:00 13.7 C 87 % 11.58 C
1788 23-05-2016 04:55:00 13.6 C 88 % 11.65 C
1789 23-05-2016 05:00:00 13.4 C 88 % 11.45 C
1790 23-05-2016 05:05:00 13.3 C 89 % 11.53 C
1791 23-05-2016 05:10:00 13.2 C 89 % 11.43 C
1792 23-05-2016 05:15:00 13.2 C 90 % 11.6 C
1793 23-05-2016 05:20:00 13.1 C 90 % 11.5 C
1794 23-05-2016 05:25:00 13.1 C 90 % 11.5 C
1795 23-05-2016 05:30:00 13 C 91 % 11.57 C
1796 23-05-2016 05:35:00 12.9 C 91 % 11.47 C
1797 23-05-2016 05:40:00 12.9 C 91 % 11.47 C
1798 23-05-2016 05:45:00 12.9 C 91 % 11.47 C
1799 23-05-2016 05:50:00 12.8 C 91 % 11.37 C
1800 23-05-2016 05:55:00 12.8 C 91 % 11.37 C
Sensor: Nr:Datum:Temp:Feuchte:Taupunkt:
Aussen-T/F 1801 23-05-2016 06:00:00 12.8 C 91 % 11.37 C
1802 23-05-2016 06:05:00 12.8 C 91 % 11.37 C
1803 23-05-2016 06:10:00 12.8 C 91 % 11.37 C
1804 23-05-2016 06:15:00 12.8 C 91 % 11.37 C
1805 23-05-2016 06:20:00 12.8 C 91 % 11.37 C
1806 23-05-2016 06:25:00 12.8 C 91 % 11.37 C
1807 23-05-2016 06:30:00 12.8 C 91 % 11.37 C
1808 23-05-2016 06:35:00 12.8 C 91 % 11.37 C
1809 23-05-2016 06:40:00 12.8 C 91 % 11.37 C
1810 23-05-2016 06:45:00 12.8 C 91 % 11.37 C
1811 23-05-2016 06:50:00 12.8 C 91 % 11.37 C
1812 23-05-2016 06:55:00 12.8 C 90 % 11.2 C
1813 23-05-2016 07:00:00 12.8 C 90 % 11.2 C
1814 23-05-2016 07:05:00 12.8 C 90 % 11.2 C
1815 23-05-2016 07:10:00 12.8 C 90 % 11.2 C
1816 23-05-2016 07:15:00 12.9 C 90 % 11.3 C
1817 23-05-2016 07:20:00 12.9 C 90 % 11.3 C
1818 23-05-2016 07:25:00 12.9 C 90 % 11.3 C
1819 23-05-2016 07:30:00 13 C 89 % 11.23 C
1820 23-05-2016 07:35:00 13 C 90 % 11.4 C
1821 23-05-2016 07:40:00 13.1 C 90 % 11.5 C
1822 23-05-2016 07:45:00 13.1 C 90 % 11.5 C
1823 23-05-2016 07:50:00 13.1 C 90 % 11.5 C
1824 23-05-2016 07:55:00 13.1 C 90 % 11.5 C
1825 23-05-2016 08:00:00 13.1 C 90 % 11.5 C
Sensor: Nr:Datum:Temp:Feuchte:Taupunkt:
Aussen-T/F 1826 23-05-2016 08:05:00 13.1 C 90 % 11.5 C
1827 23-05-2016 08:10:00 13.1 C 90 % 11.5 C
1828 23-05-2016 08:15:00 13.1 C 90 % 11.5 C
1829 23-05-2016 08:20:00 13.1 C 90 % 11.5 C
1830 23-05-2016 08:25:00 13.1 C 90 % 11.5 C
1831 23-05-2016 08:30:00 13.2 C 90 % 11.6 C
1832 23-05-2016 08:35:00 13.2 C 90 % 11.6 C
1833 23-05-2016 08:40:00 13.3 C 89 % 11.53 C
1834 23-05-2016 08:45:00 13.4 C 90 % 11.79 C
1835 23-05-2016 08:50:00 13.6 C 89 % 11.82 C
1836 23-05-2016 08:55:00 13.7 C 89 % 11.92 C
1837 23-05-2016 09:00:00 13.8 C 87 % 11.68 C
1838 23-05-2016 09:05:00 13.9 C 87 % 11.77 C
1839 23-05-2016 09:10:00 14.1 C 87 % 11.97 C
1840 23-05-2016 09:15:00 14.2 C 86 % 11.89 C
1841 23-05-2016 09:20:00 14.3 C 85 % 11.81 C
1842 23-05-2016 09:25:00 14.3 C 85 % 11.81 C
1843 23-05-2016 09:30:00 14.4 C 85 % 11.91 C
1844 23-05-2016 09:35:00 14.4 C 85 % 11.91 C
1845 23-05-2016 09:40:00 14.4 C 84 % 11.73 C
1846 23-05-2016 09:45:00 14.4 C 85 % 11.91 C
1847 23-05-2016 09:50:00 14.4 C 85 % 11.91 C
1848 23-05-2016 09:55:00 14.4 C 83 % 11.55 C
1849 23-05-2016 10:00:00 14.4 C 83 % 11.55 C
1850 23-05-2016 10:05:00 14.4 C 83 % 11.55 C
Sensor: Nr:Datum:Temp:Feuchte:Taupunkt:
Aussen-T/F 1851 23-05-2016 10:10:00 14.5 C 83 % 11.65 C
1852 23-05-2016 10:15:00 14.4 C 83 % 11.55 C
1853 23-05-2016 10:20:00 14.4 C 82 % 11.37 C
1854 23-05-2016 10:25:00 14.4 C 83 % 11.55 C
1855 23-05-2016 10:30:00 14.6 C 83 % 11.75 C
1856 23-05-2016 10:35:00 14.8 C 83 % 11.94 C
1857 23-05-2016 10:40:00 15 C 79 % 11.39 C
1858 23-05-2016 10:45:00 15 C 79 % 11.39 C
1859 23-05-2016 10:50:00 15.1 C 76 % 10.9 C
1860 23-05-2016 10:55:00 15.2 C 76 % 11 C
1861 23-05-2016 11:00:00 15.2 C 75 % 10.8 C
1862 23-05-2016 11:05:00 15.2 C 75 % 10.8 C
1863 23-05-2016 11:10:00 15.1 C 77 % 11.1 C
1864 23-05-2016 11:15:00 15.2 C 76 % 11 C
1865 23-05-2016 11:20:00 15.2 C 75 % 10.8 C
1866 23-05-2016 11:25:00 15.2 C 75 % 10.8 C
1867 23-05-2016 11:30:00 15.3 C 74 % 10.7 C
1868 23-05-2016 11:35:00 15.4 C 74 % 10.79 C
1869 23-05-2016 11:40:00 15.5 C 75 % 11.09 C
1870 23-05-2016 11:45:00 15.7 C 73 % 10.88 C
1871 23-05-2016 11:50:00 15.7 C 72 % 10.67 C
1872 23-05-2016 11:55:00 15.7 C 72 % 10.67 C
1873 23-05-2016 12:00:00 15.8 C 72 % 10.77 C
1874 23-05-2016 12:05:00 16 C 71 % 10.75 C
1875 23-05-2016 12:10:00 16.1 C 69 % 10.42 C
Sensor: Nr:Datum:Temp:Feuchte:Taupunkt:
Aussen-T/F 1876 23-05-2016 12:15:00 16.2 C 71 % 10.94 C
1877 23-05-2016 12:20:00 16.2 C 69 % 10.51 C
1878 23-05-2016 12:25:00 16.2 C 69 % 10.51 C
1879 23-05-2016 12:30:00 16.3 C 70 % 10.82 C
1880 23-05-2016 12:35:00 16.5 C 68 % 10.58 C
1881 23-05-2016 12:40:00 16.6 C 67 % 10.45 C
1882 23-05-2016 12:45:00 16.7 C 68 % 10.77 C
1883 23-05-2016 12:50:00 16.8 C 66 % 10.42 C
1884 23-05-2016 12:55:00 16.7 C 69 % 10.99 C
1885 23-05-2016 13:00:00 16.7 C 67 % 10.55 C
1886 23-05-2016 13:05:00 16.7 C 68 % 10.77 C
1887 23-05-2016 13:10:00 16.8 C 68 % 10.87 C
1888 23-05-2016 13:15:00 16.8 C 66 % 10.42 C
1889 23-05-2016 13:20:00 16.6 C 68 % 10.67 C
1890 23-05-2016 13:25:00 16.4 C 70 % 10.92 C
1891 23-05-2016 13:30:00 16.3 C 69 % 10.61 C
1892 23-05-2016 13:35:00 16.3 C 70 % 10.82 C
1893 23-05-2016 13:40:00 16.3 C 69 % 10.61 C
1894 23-05-2016 13:45:00 16.3 C 71 % 11.04 C
1895 23-05-2016 13:50:00 16.3 C 70 % 10.82 C
1896 23-05-2016 13:55:00 16.3 C 70 % 10.82 C
1897 23-05-2016 14:00:00 16.2 C 68 % 10.29 C
1898 23-05-2016 14:05:00 16.2 C 69 % 10.51 C
1899 23-05-2016 14:10:00 15.9 C 68 % 10.01 C
1900 23-05-2016 14:15:00 15.7 C 69 % 10.03 C
Sensor: Nr:Datum:Temp:Feuchte:Taupunkt:
Aussen-T/F 1901 23-05-2016 14:20:00 15.5 C 72 % 10.48 C
1902 23-05-2016 14:25:00 15.2 C 74 % 10.6 C
1903 23-05-2016 14:30:00 15 C 75 % 10.61 C
1904 23-05-2016 14:35:00 14.8 C 76 % 10.61 C
1905 23-05-2016 14:40:00 14.7 C 77 % 10.71 C
1906 23-05-2016 14:45:00 14.7 C 77 % 10.71 C
1907 23-05-2016 14:50:00 14.7 C 77 % 10.71 C
1908 23-05-2016 14:55:00 14.8 C 76 % 10.61 C
1909 23-05-2016 15:00:00 14.9 C 75 % 10.51 C
1910 23-05-2016 15:05:00 15.2 C 75 % 10.8 C
1911 23-05-2016 15:10:00 15.3 C 74 % 10.7 C
1912 23-05-2016 15:15:00 15.3 C 74 % 10.7 C
1913 23-05-2016 15:20:00 15.4 C 74 % 10.79 C
1914 23-05-2016 15:25:00 15.4 C 75 % 11 C
1915 23-05-2016 15:30:00 15.4 C 75 % 11 C
1916 23-05-2016 15:35:00 15.4 C 75 % 11 C
1917 23-05-2016 15:40:00 15.2 C 75 % 10.8 C
1918 23-05-2016 15:45:00 15.1 C 76 % 10.9 C
1919 23-05-2016 15:50:00 15 C 77 % 11 C
1920 23-05-2016 15:55:00 14.9 C 77 % 10.91 C
1921 23-05-2016 16:00:00 14.9 C 78 % 11.1 C
1922 23-05-2016 16:05:00 14.8 C 77 % 10.81 C
1923 23-05-2016 16:10:00 14.8 C 78 % 11 C
1924 23-05-2016 16:15:00 14.7 C 76 % 10.52 C
1925 23-05-2016 16:20:00 14.7 C 78 % 10.91 C
Sensor: Nr:Datum:Temp:Feuchte:Taupunkt:
Aussen-T/F 1926 23-05-2016 16:25:00 14.6 C 78 % 10.81 C
1927 23-05-2016 16:30:00 14.6 C 79 % 11 C
1928 23-05-2016 16:35:00 14.4 C 78 % 10.62 C
1929 23-05-2016 16:40:00 14.3 C 79 % 10.71 C
1930 23-05-2016 16:45:00 14.3 C 80 % 10.9 C
1931 23-05-2016 16:50:00 14.2 C 80 % 10.8 C
1932 23-05-2016 16:55:00 14.2 C 80 % 10.8 C
1933 23-05-2016 17:00:00 14.1 C 80 % 10.71 C
1934 23-05-2016 17:05:00 14.1 C 80 % 10.71 C
1935 23-05-2016 17:10:00 14.1 C 81 % 10.89 C
1936 23-05-2016 17:15:00 14.1 C 81 % 10.89 C
1937 23-05-2016 17:20:00 14.1 C 80 % 10.71 C
1938 23-05-2016 17:25:00 14.1 C 80 % 10.71 C
1939 23-05-2016 17:30:00 14.1 C 81 % 10.89 C
1940 23-05-2016 17:35:00 14.1 C 81 % 10.89 C
1941 23-05-2016 17:40:00 14.1 C 81 % 10.89 C
1942 23-05-2016 17:45:00 14.1 C 81 % 10.89 C
1943 23-05-2016 17:50:00 14 C 80 % 10.61 C
1944 23-05-2016 17:55:00 14.1 C 80 % 10.71 C
1945 23-05-2016 18:00:00 14.1 C 79 % 10.52 C
1946 23-05-2016 18:05:00 14.1 C 80 % 10.71 C
1947 23-05-2016 18:10:00 14 C 80 % 10.61 C
1948 23-05-2016 18:15:00 13.9 C 80 % 10.51 C
1949 23-05-2016 18:20:00 13.9 C 79 % 10.32 C
1950 23-05-2016 18:25:00 13.8 C 79 % 10.22 C
Sensor: Nr:Datum:Temp:Feuchte:Taupunkt:
Aussen-T/F 1951 23-05-2016 18:30:00 13.7 C 79 % 10.13 C
1952 23-05-2016 18:35:00 13.7 C 79 % 10.13 C
1953 23-05-2016 18:40:00 13.7 C 80 % 10.32 C
1954 23-05-2016 18:45:00 13.7 C 80 % 10.32 C
1955 23-05-2016 18:50:00 13.6 C 80 % 10.22 C
1956 23-05-2016 18:55:00 13.6 C 80 % 10.22 C
1957 23-05-2016 19:00:00 13.6 C 80 % 10.22 C
1958 23-05-2016 19:05:00 13.5 C 80 % 10.12 C
1959 23-05-2016 19:10:00 13.5 C 80 % 10.12 C
1960 23-05-2016 19:15:00 13.4 C 80 % 10.02 C
1961 23-05-2016 19:20:00 13.4 C 80 % 10.02 C
1962 23-05-2016 19:25:00 13.4 C 80 % 10.02 C
1963 23-05-2016 19:30:00 13.3 C 81 % 10.11 C
1964 23-05-2016 19:35:00 13.3 C 81 % 10.11 C
1965 23-05-2016 19:40:00 13.3 C 81 % 10.11 C
1966 23-05-2016 19:45:00 13.3 C 82 % 10.3 C
1967 23-05-2016 19:50:00 13.2 C 82 % 10.2 C
1968 23-05-2016 19:55:00 13.1 C 82 % 10.1 C
1969 23-05-2016 20:00:00 13.1 C 82 % 10.1 C
1970 23-05-2016 20:05:00 13.1 C 83 % 10.28 C
1971 23-05-2016 20:10:00 13 C 83 % 10.18 C
1972 23-05-2016 20:15:00 12.9 C 83 % 10.09 C
1973 23-05-2016 20:20:00 12.9 C 83 % 10.09 C
1974 23-05-2016 20:25:00 12.9 C 84 % 10.26 C
1975 23-05-2016 20:30:00 12.8 C 84 % 10.17 C
Sensor: Nr:Datum:Temp:Feuchte:Taupunkt:
Aussen-T/F 1976 23-05-2016 20:35:00 12.8 C 84 % 10.17 C
1977 23-05-2016 20:40:00 12.8 C 84 % 10.17 C
1978 23-05-2016 20:45:00 12.7 C 85 % 10.25 C
1979 23-05-2016 20:50:00 12.7 C 85 % 10.25 C
1980 23-05-2016 20:55:00 12.6 C 85 % 10.15 C
1981 23-05-2016 21:00:00 12.6 C 85 % 10.15 C
1982 23-05-2016 21:05:00 12.4 C 86 % 10.13 C
1983 23-05-2016 21:10:00 12.4 C 86 % 10.13 C
1984 23-05-2016 21:15:00 12.3 C 87 % 10.2 C
1985 23-05-2016 21:20:00 12.3 C 87 % 10.2 C
1986 23-05-2016 21:25:00 12.2 C 87 % 10.1 C
1987 23-05-2016 21:30:00 12.1 C 88 % 10.17 C
1988 23-05-2016 21:35:00 11.9 C 89 % 10.15 C
1989 23-05-2016 21:40:00 11.9 C 89 % 10.15 C
1990 23-05-2016 21:45:00 11.8 C 90 % 10.21 C
1991 23-05-2016 21:50:00 11.7 C 90 % 10.12 C
1992 23-05-2016 21:55:00 11.7 C 90 % 10.12 C
1993 23-05-2016 22:00:00 11.7 C 90 % 10.12 C
1994 23-05-2016 22:05:00 11.7 C 90 % 10.12 C
1995 23-05-2016 22:10:00 11.7 C 90 % 10.12 C
1996 23-05-2016 22:15:00 11.7 C 90 % 10.12 C
1997 23-05-2016 22:20:00 11.7 C 90 % 10.12 C
1998 23-05-2016 22:25:00 11.7 C 90 % 10.12 C
1999 23-05-2016 22:30:00 11.7 C 90 % 10.12 C
2000 23-05-2016 22:35:00 11.6 C 90 % 10.02 C
Sensor: Nr:Datum:Temp:Feuchte:Taupunkt:
Aussen-T/F 2001 23-05-2016 22:40:00 11.7 C 90 % 10.12 C
2002 23-05-2016 22:45:00 11.7 C 90 % 10.12 C
2003 23-05-2016 22:50:00 11.7 C 89 % 9.95 C
2004 23-05-2016 22:55:00 11.7 C 89 % 9.95 C
2005 23-05-2016 23:00:00 11.7 C 89 % 9.95 C
2006 23-05-2016 23:05:00 11.7 C 89 % 9.95 C
2007 23-05-2016 23:10:00 11.7 C 89 % 9.95 C
2008 23-05-2016 23:15:00 11.6 C 90 % 10.02 C
2009 23-05-2016 23:20:00 11.6 C 90 % 10.02 C
2010 23-05-2016 23:25:00 11.6 C 90 % 10.02 C
2011 23-05-2016 23:30:00 11.6 C 90 % 10.02 C
2012 23-05-2016 23:35:00 11.5 C 90 % 9.92 C
2013 23-05-2016 23:40:00 11.4 C 90 % 9.82 C
2014 23-05-2016 23:45:00 11.4 C 90 % 9.82 C
2015 23-05-2016 23:50:00 11.4 C 90 % 9.82 C
2016 23-05-2016 23:55:00 11.4 C 90 % 9.82 C
2017 24-05-2016 00:00:00 11.4 C 91 % 9.98 C
2018 24-05-2016 00:05:00 11.3 C 90 % 9.72 C
2019 24-05-2016 00:10:00 11.3 C 90 % 9.72 C
2020 24-05-2016 00:15:00 11.4 C 90 % 9.82 C
2021 24-05-2016 00:20:00 11.4 C 90 % 9.82 C
2022 24-05-2016 00:25:00 11.3 C 90 % 9.72 C
2023 24-05-2016 00:30:00 11.3 C 90 % 9.72 C
2024 24-05-2016 00:35:00 11.4 C 90 % 9.82 C
2025 24-05-2016 00:40:00 11.3 C 90 % 9.72 C
Sensor: Nr:Datum:Temp:Feuchte:Taupunkt:
Aussen-T/F 2026 24-05-2016 00:45:00 11.3 C 90 % 9.72 C
2027 24-05-2016 00:50:00 11.3 C 90 % 9.72 C
2028 24-05-2016 00:55:00 11.3 C 90 % 9.72 C
2029 24-05-2016 01:00:00 11.3 C 90 % 9.72 C
2030 24-05-2016 01:05:00 11.3 C 91 % 9.89 C
2031 24-05-2016 01:10:00 11.3 C 90 % 9.72 C
2032 24-05-2016 01:15:00 11.3 C 90 % 9.72 C
2033 24-05-2016 01:20:00 11.3 C 90 % 9.72 C
2034 24-05-2016 01:25:00 11.3 C 90 % 9.72 C
2035 24-05-2016 01:30:00 11.2 C 90 % 9.62 C
2036 24-05-2016 01:35:00 11.2 C 90 % 9.62 C
2037 24-05-2016 01:40:00 11.2 C 90 % 9.62 C
2038 24-05-2016 01:45:00 11.2 C 90 % 9.62 C
2039 24-05-2016 01:50:00 11.2 C 90 % 9.62 C
2040 24-05-2016 01:55:00 11.2 C 90 % 9.62 C
2041 24-05-2016 02:00:00 11.2 C 90 % 9.62 C
2042 24-05-2016 02:05:00 11.2 C 90 % 9.62 C
2043 24-05-2016 02:10:00 11.2 C 90 % 9.62 C
2044 24-05-2016 02:15:00 11.2 C 90 % 9.62 C
2045 24-05-2016 02:20:00 11.1 C 90 % 9.52 C
2046 24-05-2016 02:25:00 11.1 C 90 % 9.52 C
2047 24-05-2016 02:30:00 11.1 C 90 % 9.52 C
2048 24-05-2016 02:35:00 11.1 C 90 % 9.52 C
2049 24-05-2016 02:40:00 11.1 C 90 % 9.52 C
2050 24-05-2016 02:45:00 11 C 90 % 9.42 C
Sensor: Nr:Datum:Temp:Feuchte:Taupunkt:
Aussen-T/F 2051 24-05-2016 02:50:00 11 C 91 % 9.59 C
2052 24-05-2016 02:55:00 11 C 91 % 9.59 C
2053 24-05-2016 03:00:00 10.9 C 91 % 9.49 C
2054 24-05-2016 03:05:00 10.9 C 91 % 9.49 C
2055 24-05-2016 03:10:00 10.9 C 91 % 9.49 C
2056 24-05-2016 03:15:00 10.9 C 92 % 9.65 C
2057 24-05-2016 03:20:00 10.9 C 92 % 9.65 C
2058 24-05-2016 03:25:00 10.9 C 92 % 9.65 C
2059 24-05-2016 03:30:00 10.9 C 92 % 9.65 C
2060 24-05-2016 03:35:00 10.8 C 92 % 9.55 C
2061 24-05-2016 03:40:00 10.8 C 92 % 9.55 C
2062 24-05-2016 03:45:00 10.8 C 92 % 9.55 C
2063 24-05-2016 03:50:00 10.8 C 92 % 9.55 C
2064 24-05-2016 03:55:00 10.8 C 92 % 9.55 C
2065 24-05-2016 04:00:00 10.8 C 92 % 9.55 C
2066 24-05-2016 04:05:00 10.8 C 92 % 9.55 C
2067 24-05-2016 04:10:00 10.8 C 92 % 9.55 C
2068 24-05-2016 04:15:00 10.8 C 92 % 9.55 C
2069 24-05-2016 04:20:00 10.8 C 92 % 9.55 C
2070 24-05-2016 04:25:00 10.8 C 92 % 9.55 C
2071 24-05-2016 04:30:00 10.8 C 92 % 9.55 C
2072 24-05-2016 04:35:00 10.8 C 92 % 9.55 C
2073 24-05-2016 04:40:00 10.8 C 92 % 9.55 C
2074 24-05-2016 04:45:00 10.8 C 92 % 9.55 C
2075 24-05-2016 04:50:00 10.8 C 92 % 9.55 C
Sensor: Nr:Datum:Temp:Feuchte:Taupunkt:
Aussen-T/F 2076 24-05-2016 04:55:00 10.8 C 92 % 9.55 C
2077 24-05-2016 05:00:00 10.8 C 92 % 9.55 C
2078 24-05-2016 05:05:00 10.8 C 91 % 9.39 C
2079 24-05-2016 05:10:00 10.8 C 91 % 9.39 C
2080 24-05-2016 05:15:00 10.8 C 91 % 9.39 C
2081 24-05-2016 05:20:00 10.7 C 91 % 9.29 C
2082 24-05-2016 05:25:00 10.7 C 91 % 9.29 C
2083 24-05-2016 05:30:00 10.7 C 91 % 9.29 C
2084 24-05-2016 05:35:00 10.7 C 91 % 9.29 C
2085 24-05-2016 05:40:00 10.7 C 91 % 9.29 C
2086 24-05-2016 05:45:00 10.7 C 91 % 9.29 C
2087 24-05-2016 05:50:00 10.7 C 90 % 9.13 C
2088 24-05-2016 05:55:00 10.7 C 90 % 9.13 C
2089 24-05-2016 06:00:00 10.7 C 90 % 9.13 C
2090 24-05-2016 06:05:00 10.7 C 90 % 9.13 C
2091 24-05-2016 06:10:00 10.7 C 90 % 9.13 C
2092 24-05-2016 06:15:00 10.7 C 90 % 9.13 C
2093 24-05-2016 06:20:00 10.7 C 90 % 9.13 C
2094 24-05-2016 06:25:00 10.7 C 90 % 9.13 C
2095 24-05-2016 06:30:00 10.7 C 90 % 9.13 C
2096 24-05-2016 06:35:00 10.7 C 90 % 9.13 C
2097 24-05-2016 06:40:00 10.7 C 90 % 9.13 C
2098 24-05-2016 06:45:00 10.6 C 90 % 9.03 C
2099 24-05-2016 06:50:00 10.6 C 90 % 9.03 C
2100 24-05-2016 06:55:00 10.6 C 90 % 9.03 C
Sensor: Nr:Datum:Temp:Feuchte:Taupunkt:
Aussen-T/F 2101 24-05-2016 07:00:00 10.6 C 90 % 9.03 C
2102 24-05-2016 07:05:00 10.6 C 90 % 9.03 C
2103 24-05-2016 07:10:00 10.6 C 90 % 9.03 C
2104 24-05-2016 07:15:00 10.5 C 90 % 8.93 C
2105 24-05-2016 07:20:00 10.5 C 90 % 8.93 C
2106 24-05-2016 07:25:00 10.4 C 90 % 8.83 C
2107 24-05-2016 07:30:00 10.4 C 90 % 8.83 C
2108 24-05-2016 07:35:00 10.4 C 90 % 8.83 C
2109 24-05-2016 07:40:00 10.4 C 90 % 8.83 C
2110 24-05-2016 07:45:00 10.4 C 90 % 8.83 C
2111 24-05-2016 07:50:00 10.5 C 90 % 8.93 C
2112 24-05-2016 07:55:00 10.5 C 90 % 8.93 C
2113 24-05-2016 08:00:00 10.6 C 90 % 9.03 C
2114 24-05-2016 08:05:00 10.6 C 90 % 9.03 C
2115 24-05-2016 08:10:00 10.6 C 90 % 9.03 C
2116 24-05-2016 08:15:00 10.6 C 90 % 9.03 C
2117 24-05-2016 08:20:00 10.5 C 89 % 8.77 C
2118 24-05-2016 08:25:00 10.5 C 89 % 8.77 C
2119 24-05-2016 08:30:00 10.5 C 89 % 8.77 C
2120 24-05-2016 08:35:00 10.5 C 90 % 8.93 C
2121 24-05-2016 08:40:00 10.5 C 90 % 8.93 C
2122 24-05-2016 08:45:00 10.6 C 90 % 9.03 C
2123 24-05-2016 08:50:00 10.6 C 89 % 8.86 C
2124 24-05-2016 08:55:00 10.6 C 89 % 8.86 C
2125 24-05-2016 09:00:00 10.6 C 89 % 8.86 C
Sensor: Nr:Datum:Temp:Feuchte:Taupunkt:
Aussen-T/F 2126 24-05-2016 09:05:00 10.7 C 89 % 8.96 C
2127 24-05-2016 09:10:00 10.7 C 89 % 8.96 C
2128 24-05-2016 09:15:00 10.7 C 89 % 8.96 C
2129 24-05-2016 09:20:00 10.7 C 88 % 8.8 C
2130 24-05-2016 09:25:00 10.7 C 88 % 8.8 C
2131 24-05-2016 09:30:00 10.7 C 87 % 8.63 C
2132 24-05-2016 09:35:00 10.8 C 88 % 8.89 C
2133 24-05-2016 09:40:00 10.8 C 88 % 8.89 C
2134 24-05-2016 09:45:00 10.8 C 87 % 8.73 C
2135 24-05-2016 09:50:00 10.8 C 87 % 8.73 C
2136 24-05-2016 09:55:00 10.9 C 87 % 8.82 C
2137 24-05-2016 10:00:00 10.8 C 87 % 8.73 C
2138 24-05-2016 10:05:00 10.9 C 87 % 8.82 C
2139 24-05-2016 10:10:00 10.8 C 87 % 8.73 C
2140 24-05-2016 10:15:00 10.8 C 87 % 8.73 C
2141 24-05-2016 10:20:00 10.8 C 88 % 8.89 C
2142 24-05-2016 10:25:00 10.8 C 88 % 8.89 C
2143 24-05-2016 10:30:00 10.8 C 88 % 8.89 C
2144 24-05-2016 10:35:00 10.8 C 88 % 8.89 C
2145 24-05-2016 10:40:00 10.7 C 88 % 8.8 C
2146 24-05-2016 10:45:00 10.8 C 88 % 8.89 C
2147 24-05-2016 10:50:00 10.8 C 88 % 8.89 C
2148 24-05-2016 10:55:00 10.9 C 87 % 8.82 C
2149 24-05-2016 11:00:00 11.1 C 87 % 9.02 C
2150 24-05-2016 11:05:00 11.2 C 86 % 8.95 C
Sensor: Nr:Datum:Temp:Feuchte:Taupunkt:
Aussen-T/F 2151 24-05-2016 11:10:00 11.2 C 86 % 8.95 C
2152 24-05-2016 11:15:00 11.2 C 87 % 9.12 C
2153 24-05-2016 11:20:00 11.3 C 87 % 9.22 C
2154 24-05-2016 11:25:00 11.2 C 87 % 9.12 C
2155 24-05-2016 11:30:00 11.1 C 88 % 9.19 C
2156 24-05-2016 11:35:00 11 C 89 % 9.26 C
2157 24-05-2016 11:40:00 10.8 C 89 % 9.06 C
2158 24-05-2016 11:45:00 10.7 C 90 % 9.13 C
2159 24-05-2016 11:50:00 10.6 C 90 % 9.03 C
2160 24-05-2016 11:55:00 10.5 C 90 % 8.93 C
2161 24-05-2016 12:00:00 10.4 C 91 % 9 C
2162 24-05-2016 12:05:00 10.4 C 91 % 9 C
2163 24-05-2016 12:10:00 10.4 C 91 % 9 C
2164 24-05-2016 12:15:00 10.4 C 91 % 9 C
2165 24-05-2016 12:20:00 10.4 C 92 % 9.16 C
2166 24-05-2016 12:25:00 10.4 C 92 % 9.16 C
2167 24-05-2016 12:30:00 10.4 C 92 % 9.16 C
2168 24-05-2016 12:35:00 10.5 C 92 % 9.26 C
2169 24-05-2016 12:40:00 10.5 C 91 % 9.09 C
2170 24-05-2016 12:45:00 10.6 C 91 % 9.19 C
2171 24-05-2016 12:50:00 10.7 C 91 % 9.29 C
2172 24-05-2016 12:55:00 10.8 C 90 % 9.23 C
2173 24-05-2016 13:00:00 10.7 C 89 % 8.96 C
2174 24-05-2016 13:05:00 10.8 C 90 % 9.23 C
2175 24-05-2016 13:10:00 10.7 C 90 % 9.13 C
Sensor: Nr:Datum:Temp:Feuchte:Taupunkt:
Aussen-T/F 2176 24-05-2016 13:15:00 10.6 C 89 % 8.86 C
2177 24-05-2016 13:20:00 10.6 C 90 % 9.03 C
2178 24-05-2016 13:25:00 10.6 C 91 % 9.19 C
2179 24-05-2016 13:30:00 10.6 C 90 % 9.03 C
2180 24-05-2016 13:35:00 10.6 C 90 % 9.03 C
2181 24-05-2016 13:40:00 10.6 C 91 % 9.19 C
2182 24-05-2016 13:45:00 10.6 C 90 % 9.03 C
2183 24-05-2016 13:50:00 10.7 C 91 % 9.29 C
2184 24-05-2016 13:55:00 10.7 C 90 % 9.13 C
2185 24-05-2016 14:00:00 10.8 C 91 % 9.39 C
2186 24-05-2016 14:05:00 10.8 C 91 % 9.39 C
2187 24-05-2016 14:10:00 10.9 C 91 % 9.49 C
2188 24-05-2016 14:15:00 11 C 91 % 9.59 C
2189 24-05-2016 14:20:00 11 C 91 % 9.59 C
2190 24-05-2016 14:25:00 11.1 C 92 % 9.85 C
2191 24-05-2016 14:30:00 11.2 C 92 % 9.95 C
2192 24-05-2016 14:35:00 11.2 C 92 % 9.95 C
2193 24-05-2016 14:40:00 11.2 C 92 % 9.95 C
2194 24-05-2016 14:45:00 11.1 C 91 % 9.69 C
2195 24-05-2016 14:50:00 10.9 C 91 % 9.49 C
2196 24-05-2016 14:55:00 10.9 C 91 % 9.49 C
2197 24-05-2016 15:00:00 10.9 C 92 % 9.65 C
2198 24-05-2016 15:05:00 11.1 C 93 % 10.01 C
2199 24-05-2016 15:10:00 11.2 C 92 % 9.95 C
2200 24-05-2016 15:15:00 11.2 C 92 % 9.95 C
Sensor: Nr:Datum:Temp:Feuchte:Taupunkt:
Aussen-T/F 2201 24-05-2016 15:20:00 11.2 C 92 % 9.95 C
2202 24-05-2016 15:25:00 11.3 C 93 % 10.21 C
2203 24-05-2016 15:30:00 11.3 C 93 % 10.21 C
2204 24-05-2016 15:35:00 11.3 C 93 % 10.21 C
2205 24-05-2016 15:40:00 11.3 C 93 % 10.21 C
2206 24-05-2016 15:45:00 11.3 C 92 % 10.05 C
2207 24-05-2016 15:50:00 11.2 C 92 % 9.95 C
2208 24-05-2016 15:55:00 11.2 C 92 % 9.95 C
2209 24-05-2016 16:00:00 11.2 C 93 % 10.11 C
2210 24-05-2016 16:05:00 11.2 C 93 % 10.11 C
2211 24-05-2016 16:10:00 11.2 C 93 % 10.11 C
2212 24-05-2016 16:15:00 11.2 C 93 % 10.11 C
2213 24-05-2016 16:20:00 11.2 C 93 % 10.11 C
2214 24-05-2016 16:25:00 11.2 C 92 % 9.95 C
2215 24-05-2016 16:30:00 11.2 C 92 % 9.95 C
2216 24-05-2016 16:35:00 11.2 C 92 % 9.95 C
2217 24-05-2016 16:40:00 11.2 C 92 % 9.95 C
2218 24-05-2016 16:45:00 11.2 C 92 % 9.95 C
2219 24-05-2016 16:50:00 11.2 C 92 % 9.95 C
2220 24-05-2016 16:55:00 11.2 C 93 % 10.11 C
2221 24-05-2016 17:00:00 11.3 C 93 % 10.21 C
2222 24-05-2016 17:05:00 11.2 C 92 % 9.95 C
2223 24-05-2016 17:10:00 11.3 C 93 % 10.21 C
2224 24-05-2016 17:15:00 11.4 C 93 % 10.31 C
2225 24-05-2016 17:20:00 11.6 C 94 % 10.67 C
Sensor: Nr:Datum:Temp:Feuchte:Taupunkt:
Aussen-T/F 2226 24-05-2016 17:25:00 11.6 C 93 % 10.51 C
2227 24-05-2016 17:30:00 11.6 C 92 % 10.35 C
2228 24-05-2016 17:35:00 11.7 C 93 % 10.61 C
2229 24-05-2016 17:40:00 11.8 C 93 % 10.71 C
2230 24-05-2016 17:45:00 11.8 C 93 % 10.71 C
2231 24-05-2016 17:50:00 11.9 C 92 % 10.64 C
2232 24-05-2016 17:55:00 11.9 C 92 % 10.64 C
2233 24-05-2016 18:00:00 11.9 C 91 % 10.48 C
2234 24-05-2016 18:05:00 12 C 92 % 10.74 C
2235 24-05-2016 18:10:00 12 C 92 % 10.74 C
2236 24-05-2016 18:15:00 11.9 C 91 % 10.48 C
2237 24-05-2016 18:20:00 11.9 C 91 % 10.48 C
2238 24-05-2016 18:25:00 12 C 91 % 10.58 C
2239 24-05-2016 18:30:00 12.1 C 92 % 10.84 C
2240 24-05-2016 18:35:00 12.1 C 91 % 10.68 C
2241 24-05-2016 18:40:00 12.1 C 92 % 10.84 C
2242 24-05-2016 18:45:00 12.1 C 92 % 10.84 C
2243 24-05-2016 18:50:00 12 C 92 % 10.74 C
2244 24-05-2016 18:55:00 12.1 C 93 % 11 C
2245 24-05-2016 19:00:00 12.1 C 93 % 11 C
2246 24-05-2016 19:05:00 12.1 C 92 % 10.84 C
2247 24-05-2016 19:10:00 12.1 C 93 % 11 C
2248 24-05-2016 19:15:00 12.1 C 93 % 11 C
2249 24-05-2016 19:20:00 12 C 93 % 10.9 C
2250 24-05-2016 19:25:00 12 C 93 % 10.9 C
Sensor: Nr:Datum:Temp:Feuchte:Taupunkt:
Aussen-T/F 2251 24-05-2016 19:30:00 11.9 C 93 % 10.81 C
2252 24-05-2016 19:35:00 11.9 C 93 % 10.81 C
2253 24-05-2016 19:40:00 11.9 C 93 % 10.81 C
2254 24-05-2016 19:45:00 11.8 C 93 % 10.71 C
2255 24-05-2016 19:50:00 11.8 C 93 % 10.71 C
2256 24-05-2016 19:55:00 11.7 C 93 % 10.61 C
2257 24-05-2016 20:00:00 11.7 C 93 % 10.61 C
2258 24-05-2016 20:05:00 11.7 C 93 % 10.61 C
2259 24-05-2016 20:10:00 11.6 C 94 % 10.67 C
2260 24-05-2016 20:15:00 11.6 C 93 % 10.51 C
2261 24-05-2016 20:20:00 11.4 C 94 % 10.47 C
2262 24-05-2016 20:25:00 11.4 C 94 % 10.47 C
2263 24-05-2016 20:30:00 11.3 C 94 % 10.37 C
2264 24-05-2016 20:35:00 11.3 C 94 % 10.37 C
2265 24-05-2016 20:40:00 11.3 C 94 % 10.37 C
2266 24-05-2016 20:45:00 11.2 C 94 % 10.27 C
2267 24-05-2016 20:50:00 11.2 C 94 % 10.27 C
2268 24-05-2016 20:55:00 11.1 C 94 % 10.17 C
2269 24-05-2016 21:00:00 11 C 94 % 10.07 C
2270 24-05-2016 21:05:00 11 C 94 % 10.07 C
2271 24-05-2016 21:10:00 10.9 C 94 % 9.97 C
2272 24-05-2016 21:15:00 10.9 C 94 % 9.97 C
2273 24-05-2016 21:20:00 10.9 C 94 % 9.97 C
2274 24-05-2016 21:25:00 10.8 C 94 % 9.87 C
2275 24-05-2016 21:30:00 10.8 C 95 % 10.03 C
Sensor: Nr:Datum:Temp:Feuchte:Taupunkt:
Aussen-T/F 2276 24-05-2016 21:35:00 10.8 C 95 % 10.03 C
2277 24-05-2016 21:40:00 10.8 C 95 % 10.03 C
2278 24-05-2016 21:45:00 10.7 C 95 % 9.93 C
2279 24-05-2016 21:50:00 10.7 C 95 % 9.93 C
2280 24-05-2016 21:55:00 10.7 C 95 % 9.93 C
2281 24-05-2016 22:00:00 10.7 C 95 % 9.93 C
2282 24-05-2016 22:05:00 10.6 C 95 % 9.83 C
2283 24-05-2016 22:10:00 10.6 C 95 % 9.83 C
2284 24-05-2016 22:15:00 10.6 C 95 % 9.83 C
2285 24-05-2016 22:20:00 10.5 C 95 % 9.73 C
2286 24-05-2016 22:25:00 10.5 C 95 % 9.73 C
2287 24-05-2016 22:30:00 10.5 C 95 % 9.73 C
2288 24-05-2016 22:35:00 10.5 C 95 % 9.73 C
2289 24-05-2016 22:40:00 10.4 C 95 % 9.63 C
2290 24-05-2016 22:45:00 10.4 C 95 % 9.63 C
2291 24-05-2016 22:50:00 10.4 C 95 % 9.63 C
2292 24-05-2016 22:55:00 10.4 C 95 % 9.63 C
2293 24-05-2016 23:00:00 10.3 C 95 % 9.54 C
2294 24-05-2016 23:05:00 10.3 C 95 % 9.54 C
2295 24-05-2016 23:10:00 10.2 C 95 % 9.44 C
2296 24-05-2016 23:15:00 10.2 C 95 % 9.44 C
2297 24-05-2016 23:20:00 10.2 C 95 % 9.44 C
2298 24-05-2016 23:25:00 10.1 C 95 % 9.34 C
2299 24-05-2016 23:30:00 10.1 C 96 % 9.49 C
2300 24-05-2016 23:35:00 10.1 C 96 % 9.49 C
Sensor: Nr:Datum:Temp:Feuchte:Taupunkt:
Aussen-T/F 2301 24-05-2016 23:40:00 10.1 C 96 % 9.49 C
2302 24-05-2016 23:45:00 10.2 C 96 % 9.59 C
2303 24-05-2016 23:50:00 10.2 C 96 % 9.59 C
2304 24-05-2016 23:55:00 10.2 C 96 % 9.59 C
2305 25-05-2016 00:00:00 10.2 C 96 % 9.59 C
2306 25-05-2016 00:05:00 10.2 C 96 % 9.59 C
2307 25-05-2016 00:10:00 10.2 C 96 % 9.59 C
2308 25-05-2016 00:15:00 10.2 C 96 % 9.59 C
2309 25-05-2016 00:20:00 10.2 C 96 % 9.59 C
2310 25-05-2016 00:25:00 10.2 C 96 % 9.59 C
2311 25-05-2016 00:30:00 10.2 C 96 % 9.59 C
2312 25-05-2016 00:35:00 10.2 C 96 % 9.59 C
2313 25-05-2016 00:40:00 10.2 C 96 % 9.59 C
2314 25-05-2016 00:45:00 10.2 C 96 % 9.59 C
2315 25-05-2016 00:50:00 10.2 C 96 % 9.59 C
2316 25-05-2016 00:55:00 10.2 C 96 % 9.59 C
2317 25-05-2016 01:00:00 10.2 C 96 % 9.59 C
2318 25-05-2016 01:05:00 10.2 C 96 % 9.59 C
2319 25-05-2016 01:10:00 10.2 C 96 % 9.59 C
2320 25-05-2016 01:15:00 10.1 C 96 % 9.49 C
2321 25-05-2016 01:20:00 10.1 C 96 % 9.49 C
2322 25-05-2016 01:25:00 10.1 C 96 % 9.49 C
2323 25-05-2016 01:30:00 10.1 C 96 % 9.49 C
2324 25-05-2016 01:35:00 10.1 C 96 % 9.49 C
2325 25-05-2016 01:40:00 10.1 C 96 % 9.49 C
Sensor: Nr:Datum:Temp:Feuchte:Taupunkt:
Aussen-T/F 2326 25-05-2016 01:45:00 10.1 C 96 % 9.49 C
2327 25-05-2016 01:50:00 10.1 C 96 % 9.49 C
2328 25-05-2016 01:55:00 10.1 C 96 % 9.49 C
2329 25-05-2016 02:00:00 10.1 C 96 % 9.49 C
2330 25-05-2016 02:05:00 10.1 C 96 % 9.49 C
2331 25-05-2016 02:10:00 10.1 C 96 % 9.49 C
2332 25-05-2016 02:15:00 10.1 C 96 % 9.49 C
2333 25-05-2016 02:20:00 10.1 C 96 % 9.49 C
2334 25-05-2016 02:25:00 10.1 C 96 % 9.49 C
2335 25-05-2016 02:30:00 10.1 C 96 % 9.49 C
2336 25-05-2016 02:35:00 10.2 C 96 % 9.59 C
2337 25-05-2016 02:40:00 10.2 C 96 % 9.59 C
2338 25-05-2016 02:45:00 10.2 C 96 % 9.59 C
2339 25-05-2016 02:50:00 10.2 C 96 % 9.59 C
2340 25-05-2016 02:55:00 10.2 C 96 % 9.59 C
2341 25-05-2016 03:00:00 10.2 C 96 % 9.59 C
2342 25-05-2016 03:05:00 10.2 C 96 % 9.59 C
2343 25-05-2016 03:10:00 10.2 C 96 % 9.59 C
2344 25-05-2016 03:15:00 10.2 C 96 % 9.59 C
2345 25-05-2016 03:20:00 10.2 C 96 % 9.59 C
2346 25-05-2016 03:25:00 10.3 C 96 % 9.69 C
2347 25-05-2016 03:30:00 10.3 C 96 % 9.69 C
2348 25-05-2016 03:35:00 10.3 C 96 % 9.69 C
2349 25-05-2016 03:40:00 10.3 C 96 % 9.69 C
2350 25-05-2016 03:45:00 10.3 C 96 % 9.69 C
Sensor: Nr:Datum:Temp:Feuchte:Taupunkt:
Aussen-T/F 2351 25-05-2016 03:50:00 10.3 C 96 % 9.69 C
2352 25-05-2016 03:55:00 10.3 C 96 % 9.69 C
2353 25-05-2016 04:00:00 10.4 C 96 % 9.79 C
2354 25-05-2016 04:05:00 10.4 C 96 % 9.79 C
2355 25-05-2016 04:10:00 10.4 C 96 % 9.79 C
2356 25-05-2016 04:15:00 10.4 C 96 % 9.79 C
2357 25-05-2016 04:20:00 10.4 C 96 % 9.79 C
2358 25-05-2016 04:25:00 10.4 C 96 % 9.79 C
2359 25-05-2016 04:30:00 10.4 C 96 % 9.79 C
2360 25-05-2016 04:35:00 10.4 C 96 % 9.79 C
2361 25-05-2016 04:40:00 10.4 C 97 % 9.94 C
2362 25-05-2016 04:45:00 10.4 C 97 % 9.94 C
2363 25-05-2016 04:50:00 10.4 C 96 % 9.79 C
2364 25-05-2016 04:55:00 10.4 C 97 % 9.94 C
2365 25-05-2016 05:00:00 10.4 C 97 % 9.94 C
2366 25-05-2016 05:05:00 10.4 C 97 % 9.94 C
2367 25-05-2016 05:10:00 10.5 C 96 % 9.89 C
2368 25-05-2016 05:15:00 10.5 C 96 % 9.89 C
2369 25-05-2016 05:20:00 10.5 C 96 % 9.89 C
2370 25-05-2016 05:25:00 10.5 C 96 % 9.89 C
2371 25-05-2016 05:30:00 10.5 C 96 % 9.89 C
2372 25-05-2016 05:35:00 10.5 C 96 % 9.89 C
2373 25-05-2016 05:40:00 10.5 C 96 % 9.89 C
2374 25-05-2016 05:45:00 10.5 C 96 % 9.89 C
2375 25-05-2016 05:50:00 10.5 C 96 % 9.89 C
Sensor: Nr:Datum:Temp:Feuchte:Taupunkt:
Aussen-T/F 2376 25-05-2016 05:55:00 10.5 C 96 % 9.89 C
2377 25-05-2016 06:00:00 10.5 C 96 % 9.89 C
2378 25-05-2016 06:05:00 10.5 C 96 % 9.89 C
2379 25-05-2016 06:10:00 10.5 C 96 % 9.89 C
2380 25-05-2016 06:15:00 10.5 C 96 % 9.89 C
2381 25-05-2016 06:20:00 10.5 C 96 % 9.89 C
2382 25-05-2016 06:25:00 10.5 C 96 % 9.89 C
2383 25-05-2016 06:30:00 10.5 C 96 % 9.89 C
2384 25-05-2016 06:35:00 10.5 C 96 % 9.89 C
2385 25-05-2016 06:40:00 10.5 C 96 % 9.89 C
2386 25-05-2016 06:45:00 10.5 C 96 % 9.89 C
2387 25-05-2016 06:50:00 10.5 C 96 % 9.89 C
2388 25-05-2016 06:55:00 10.6 C 96 % 9.99 C
2389 25-05-2016 07:00:00 10.6 C 96 % 9.99 C
2390 25-05-2016 07:05:00 10.6 C 96 % 9.99 C
2391 25-05-2016 07:10:00 10.6 C 96 % 9.99 C
2392 25-05-2016 07:15:00 10.6 C 96 % 9.99 C
2393 25-05-2016 07:20:00 10.6 C 96 % 9.99 C
2394 25-05-2016 07:25:00 10.6 C 96 % 9.99 C
2395 25-05-2016 07:30:00 10.5 C 96 % 9.89 C
2396 25-05-2016 07:35:00 10.4 C 96 % 9.79 C
2397 25-05-2016 07:40:00 10.4 C 96 % 9.79 C
2398 25-05-2016 07:45:00 10.3 C 96 % 9.69 C
2399 25-05-2016 07:50:00 10.3 C 96 % 9.69 C
2400 25-05-2016 07:55:00 10.4 C 96 % 9.79 C
Sensor: Nr:Datum:Temp:Feuchte:Taupunkt:
Aussen-T/F 2401 25-05-2016 08:00:00 10.4 C 96 % 9.79 C
2402 25-05-2016 08:05:00 10.4 C 96 % 9.79 C
2403 25-05-2016 08:10:00 10.5 C 96 % 9.89 C
2404 25-05-2016 08:15:00 10.5 C 96 % 9.89 C
2405 25-05-2016 08:20:00 10.6 C 96 % 9.99 C
2406 25-05-2016 08:25:00 10.7 C 96 % 10.09 C
2407 25-05-2016 08:30:00 10.7 C 96 % 10.09 C
2408 25-05-2016 08:35:00 10.8 C 96 % 10.19 C
2409 25-05-2016 08:40:00 10.8 C 96 % 10.19 C
2410 25-05-2016 08:45:00 10.9 C 95 % 10.13 C
2411 25-05-2016 08:50:00 10.9 C 95 % 10.13 C
2412 25-05-2016 08:55:00 11.1 C 95 % 10.33 C
2413 25-05-2016 09:00:00 11.1 C 94 % 10.17 C
2414 25-05-2016 09:05:00 11.1 C 94 % 10.17 C
2415 25-05-2016 09:10:00 11.2 C 93 % 10.11 C
2416 25-05-2016 09:15:00 11.3 C 92 % 10.05 C
2417 25-05-2016 09:20:00 11.5 C 92 % 10.25 C
2418 25-05-2016 09:25:00 11.5 C 90 % 9.92 C
2419 25-05-2016 09:30:00 11.7 C 91 % 10.28 C
2420 25-05-2016 09:35:00 11.8 C 89 % 10.05 C
2421 25-05-2016 09:40:00 11.9 C 90 % 10.31 C
2422 25-05-2016 09:45:00 12.1 C 90 % 10.51 C
2423 25-05-2016 09:50:00 12.2 C 88 % 10.27 C
2424 25-05-2016 09:55:00 12.2 C 88 % 10.27 C
2425 25-05-2016 10:00:00 12.3 C 88 % 10.37 C
Sensor: Nr:Datum:Temp:Feuchte:Taupunkt:
Aussen-T/F 2426 25-05-2016 10:05:00 12.4 C 88 % 10.47 C
2427 25-05-2016 10:10:00 12.6 C 88 % 10.67 C
2428 25-05-2016 10:15:00 12.6 C 87 % 10.5 C
2429 25-05-2016 10:20:00 12.8 C 87 % 10.69 C
2430 25-05-2016 10:25:00 12.9 C 88 % 10.96 C
2431 25-05-2016 10:30:00 13 C 85 % 10.54 C
2432 25-05-2016 10:35:00 13.1 C 86 % 10.81 C
2433 25-05-2016 10:40:00 13.2 C 84 % 10.56 C
2434 25-05-2016 10:45:00 13.3 C 86 % 11.01 C
2435 25-05-2016 10:50:00 13.3 C 85 % 10.83 C
2436 25-05-2016 10:55:00 13.4 C 84 % 10.75 C
2437 25-05-2016 11:00:00 13.4 C 83 % 10.57 C
2438 25-05-2016 11:05:00 13.6 C 84 % 10.95 C
2439 25-05-2016 11:10:00 13.6 C 83 % 10.77 C
2440 25-05-2016 11:15:00 13.7 C 83 % 10.87 C
2441 25-05-2016 11:20:00 13.8 C 81 % 10.6 C
2442 25-05-2016 11:25:00 13.8 C 82 % 10.78 C
2443 25-05-2016 11:30:00 13.9 C 81 % 10.7 C
2444 25-05-2016 11:35:00 14 C 80 % 10.61 C
2445 25-05-2016 11:40:00 14.1 C 80 % 10.71 C
2446 25-05-2016 11:45:00 14.1 C 80 % 10.71 C
2447 25-05-2016 11:50:00 14.2 C 79 % 10.61 C
2448 25-05-2016 11:55:00 14.3 C 77 % 10.33 C
2449 25-05-2016 12:00:00 14.4 C 80 % 11 C
2450 25-05-2016 12:05:00 14.6 C 77 % 10.62 C
Sensor: Nr:Datum:Temp:Feuchte:Taupunkt:
Aussen-T/F 2451 25-05-2016 12:10:00 14.6 C 77 % 10.62 C
2452 25-05-2016 12:15:00 14.5 C 77 % 10.52 C
2453 25-05-2016 12:20:00 14.6 C 78 % 10.81 C
2454 25-05-2016 12:25:00 14.5 C 76 % 10.32 C
2455 25-05-2016 12:30:00 14.4 C 76 % 10.23 C
2456 25-05-2016 12:35:00 14.6 C 83 % 11.75 C
2457 25-05-2016 12:40:00 14.5 C 77 % 10.52 C
2458 25-05-2016 12:45:00 14.4 C 78 % 10.62 C
2459 25-05-2016 12:50:00 14.4 C 77 % 10.42 C
2460 25-05-2016 12:55:00 14.6 C 78 % 10.81 C
2461 25-05-2016 13:00:00 14.7 C 78 % 10.91 C
2462 25-05-2016 13:05:00 14.8 C 77 % 10.81 C
2463 25-05-2016 13:10:00 14.9 C 75 % 10.51 C
2464 25-05-2016 13:15:00 15 C 75 % 10.61 C
2465 25-05-2016 13:20:00 15.1 C 75 % 10.71 C
2466 25-05-2016 13:25:00 15.1 C 75 % 10.71 C
2467 25-05-2016 13:30:00 15.2 C 75 % 10.8 C
2468 25-05-2016 13:35:00 15.3 C 75 % 10.9 C
2469 25-05-2016 13:40:00 15.3 C 75 % 10.9 C
2470 25-05-2016 13:45:00 15.3 C 74 % 10.7 C
2471 25-05-2016 13:50:00 15.2 C 75 % 10.8 C
2472 25-05-2016 13:55:00 15.2 C 74 % 10.6 C
2473 25-05-2016 14:00:00 15.2 C 75 % 10.8 C
2474 25-05-2016 14:05:00 15.2 C 74 % 10.6 C
2475 25-05-2016 14:10:00 15.2 C 75 % 10.8 C
Sensor: Nr:Datum:Temp:Feuchte:Taupunkt:
Aussen-T/F 2476 25-05-2016 14:15:00 15.3 C 76 % 11.1 C
2477 25-05-2016 14:20:00 15.3 C 73 % 10.49 C
2478 25-05-2016 14:25:00 15.4 C 74 % 10.79 C
2479 25-05-2016 14:30:00 15.5 C 76 % 11.29 C
2480 25-05-2016 14:35:00 15.6 C 75 % 11.19 C
2481 25-05-2016 14:40:00 15.6 C 74 % 10.99 C
2482 25-05-2016 14:45:00 15.6 C 75 % 11.19 C
2483 25-05-2016 14:50:00 15.7 C 73 % 10.88 C
2484 25-05-2016 14:55:00 15.7 C 73 % 10.88 C
2485 25-05-2016 15:00:00 15.7 C 73 % 10.88 C
2486 25-05-2016 15:05:00 15.7 C 73 % 10.88 C
2487 25-05-2016 15:10:00 15.7 C 73 % 10.88 C
2488 25-05-2016 15:15:00 15.7 C 73 % 10.88 C
2489 25-05-2016 15:20:00 15.8 C 73 % 10.97 C
2490 25-05-2016 15:25:00 16 C 73 % 11.17 C
2491 25-05-2016 15:30:00 15.9 C 72 % 10.86 C
2492 25-05-2016 15:35:00 15.8 C 71 % 10.56 C
2493 25-05-2016 15:40:00 15.8 C 73 % 10.97 C
2494 25-05-2016 15:45:00 15.8 C 79 % 12.17 C
2495 25-05-2016 15:50:00 15.9 C 82 % 12.83 C
2496 25-05-2016 15:55:00 15.8 C 78 % 11.97 C
2497 25-05-2016 16:00:00 15.8 C 76 % 11.58 C
2498 25-05-2016 16:05:00 15.8 C 74 % 11.18 C
2499 25-05-2016 16:10:00 15.8 C 74 % 11.18 C
2500 25-05-2016 16:15:00 15.8 C 74 % 11.18 C
Sensor: Nr:Datum:Temp:Feuchte:Taupunkt:
Aussen-T/F 2501 25-05-2016 16:20:00 15.8 C 74 % 11.18 C
2502 25-05-2016 16:25:00 15.9 C 74 % 11.28 C
2503 25-05-2016 16:30:00 15.9 C 74 % 11.28 C
2504 25-05-2016 16:35:00 16 C 74 % 11.37 C
2505 25-05-2016 16:40:00 15.9 C 74 % 11.28 C
2506 25-05-2016 16:45:00 15.9 C 74 % 11.28 C
2507 25-05-2016 16:50:00 15.9 C 74 % 11.28 C
2508 25-05-2016 16:55:00 16 C 79 % 12.36 C
2509 25-05-2016 17:00:00 16 C 78 % 12.17 C
2510 25-05-2016 17:05:00 16 C 78 % 12.17 C
2511 25-05-2016 17:10:00 16 C 80 % 12.55 C
2512 25-05-2016 17:15:00 16 C 81 % 12.74 C
2513 25-05-2016 17:20:00 15.9 C 81 % 12.65 C
2514 25-05-2016 17:25:00 15.8 C 83 % 12.92 C
2515 25-05-2016 17:30:00 15.7 C 84 % 13.01 C
2516 25-05-2016 17:35:00 15.6 C 85 % 13.09 C
2517 25-05-2016 17:40:00 15.5 C 85 % 12.99 C
2518 25-05-2016 17:45:00 15.5 C 86 % 13.17 C
2519 25-05-2016 17:50:00 15.4 C 85 % 12.89 C
2520 25-05-2016 17:55:00 15.4 C 86 % 13.07 C
2521 25-05-2016 18:00:00 15.3 C 86 % 12.97 C
2522 25-05-2016 18:05:00 15.3 C 85 % 12.79 C
2523 25-05-2016 18:10:00 15.2 C 85 % 12.7 C
2524 25-05-2016 18:15:00 15.1 C 85 % 12.6 C
2525 25-05-2016 18:20:00 14.9 C 86 % 12.58 C
Sensor: Nr:Datum:Temp:Feuchte:Taupunkt:
Aussen-T/F 2526 25-05-2016 18:25:00 14.9 C 86 % 12.58 C
2527 25-05-2016 18:30:00 14.8 C 87 % 12.66 C
2528 25-05-2016 18:35:00 14.8 C 87 % 12.66 C
2529 25-05-2016 18:40:00 14.7 C 88 % 12.73 C
2530 25-05-2016 18:45:00 14.7 C 88 % 12.73 C
2531 25-05-2016 18:50:00 14.7 C 89 % 12.91 C
2532 25-05-2016 18:55:00 14.7 C 87 % 12.56 C
2533 25-05-2016 19:00:00 14.8 C 86 % 12.48 C
2534 25-05-2016 19:05:00 15 C 86 % 12.68 C
2535 25-05-2016 19:10:00 15.2 C 86 % 12.88 C
2536 25-05-2016 19:15:00 15.4 C 82 % 12.35 C
2537 25-05-2016 19:20:00 15.9 C 78 % 12.07 C
2538 25-05-2016 19:25:00 16.3 C 77 % 12.26 C
2539 25-05-2016 19:30:00 16.6 C 75 % 12.15 C
2540 25-05-2016 19:35:00 16.5 C 74 % 11.85 C
2541 25-05-2016 19:40:00 16.4 C 76 % 12.16 C
2542 25-05-2016 19:45:00 16.6 C 75 % 12.15 C
2543 25-05-2016 19:50:00 16.7 C 74 % 12.05 C
2544 25-05-2016 19:55:00 16.7 C 76 % 12.45 C
2545 25-05-2016 20:00:00 16.8 C 75 % 12.35 C
2546 25-05-2016 20:05:00 16.8 C 79 % 13.14 C
2547 25-05-2016 20:10:00 16.7 C 78 % 12.85 C
2548 25-05-2016 20:15:00 16.5 C 79 % 12.85 C
2549 25-05-2016 20:20:00 16.2 C 80 % 12.75 C
2550 25-05-2016 20:25:00 15.8 C 80 % 12.36 C
Sensor: Nr:Datum:Temp:Feuchte:Taupunkt:
Aussen-T/F 2551 25-05-2016 20:30:00 15.3 C 81 % 12.06 C
2552 25-05-2016 20:35:00 14.9 C 82 % 11.86 C
2553 25-05-2016 20:40:00 14.6 C 83 % 11.75 C
2554 25-05-2016 20:45:00 14.3 C 84 % 11.64 C
2555 25-05-2016 20:50:00 14 C 85 % 11.52 C
2556 25-05-2016 20:55:00 13.8 C 86 % 11.5 C
2557 25-05-2016 21:00:00 13.6 C 86 % 11.3 C
2558 25-05-2016 21:05:00 13.4 C 87 % 11.28 C
2559 25-05-2016 21:10:00 13.2 C 87 % 11.09 C
2560 25-05-2016 21:15:00 13.1 C 88 % 11.16 C
2561 25-05-2016 21:20:00 12.9 C 88 % 10.96 C
2562 25-05-2016 21:25:00 12.8 C 88 % 10.86 C
2563 25-05-2016 21:30:00 12.6 C 89 % 10.84 C
2564 25-05-2016 21:35:00 12.4 C 89 % 10.64 C
2565 25-05-2016 21:40:00 12.3 C 89 % 10.54 C
2566 25-05-2016 21:45:00 12.2 C 89 % 10.44 C
2567 25-05-2016 21:50:00 12.1 C 90 % 10.51 C
2568 25-05-2016 21:55:00 12 C 90 % 10.41 C
2569 25-05-2016 22:00:00 11.9 C 90 % 10.31 C
2570 25-05-2016 22:05:00 11.8 C 91 % 10.38 C
2571 25-05-2016 22:10:00 11.8 C 91 % 10.38 C
2572 25-05-2016 22:15:00 11.7 C 91 % 10.28 C
2573 25-05-2016 22:20:00 11.6 C 91 % 10.18 C
2574 25-05-2016 22:25:00 11.5 C 91 % 10.08 C
2575 25-05-2016 22:30:00 11.4 C 91 % 9.98 C
Sensor: Nr:Datum:Temp:Feuchte:Taupunkt:
Aussen-T/F 2576 25-05-2016 22:35:00 11.3 C 91 % 9.89 C
2577 25-05-2016 22:40:00 11.3 C 92 % 10.05 C
2578 25-05-2016 22:45:00 11.2 C 92 % 9.95 C
2579 25-05-2016 22:50:00 11.1 C 91 % 9.69 C
2580 25-05-2016 22:55:00 10.9 C 92 % 9.65 C
2581 25-05-2016 23:00:00 10.8 C 92 % 9.55 C
2582 25-05-2016 23:05:00 10.7 C 92 % 9.45 C
2583 25-05-2016 23:10:00 10.6 C 92 % 9.36 C
2584 25-05-2016 23:15:00 10.5 C 92 % 9.26 C
2585 25-05-2016 23:20:00 10.4 C 93 % 9.32 C
2586 25-05-2016 23:25:00 10.4 C 93 % 9.32 C
2587 25-05-2016 23:30:00 10.3 C 93 % 9.22 C
2588 25-05-2016 23:35:00 10.2 C 93 % 9.12 C
2589 25-05-2016 23:40:00 10.2 C 93 % 9.12 C
2590 25-05-2016 23:45:00 10.1 C 93 % 9.02 C
2591 25-05-2016 23:50:00 10.1 C 93 % 9.02 C
2592 25-05-2016 23:55:00 9.9 C 93 % 8.82 C
2593 26-05-2016 00:00:00 9.8 C 93 % 8.72 C
2594 26-05-2016 00:05:00 9.8 C 94 % 8.88 C
2595 26-05-2016 00:10:00 9.8 C 94 % 8.88 C
2596 26-05-2016 00:15:00 9.7 C 94 % 8.78 C
2597 26-05-2016 00:20:00 9.6 C 94 % 8.68 C
2598 26-05-2016 00:25:00 9.6 C 94 % 8.68 C
2599 26-05-2016 00:30:00 9.6 C 94 % 8.68 C
2600 26-05-2016 00:35:00 9.6 C 94 % 8.68 C
Sensor: Nr:Datum:Temp:Feuchte:Taupunkt:
Aussen-T/F 2601 26-05-2016 00:40:00 9.5 C 94 % 8.58 C
2602 26-05-2016 00:45:00 9.4 C 94 % 8.48 C
2603 26-05-2016 00:50:00 9.3 C 94 % 8.39 C
2604 26-05-2016 00:55:00 9.3 C 94 % 8.39 C
2605 26-05-2016 01:00:00 9.2 C 95 % 8.44 C
2606 26-05-2016 01:05:00 9.1 C 94 % 8.19 C
2607 26-05-2016 01:10:00 9 C 94 % 8.09 C
2608 26-05-2016 01:15:00 8.9 C 95 % 8.14 C
2609 26-05-2016 01:20:00 8.8 C 94 % 7.89 C
2610 26-05-2016 01:25:00 8.8 C 94 % 7.89 C
2611 26-05-2016 01:30:00 8.8 C 95 % 8.04 C
2612 26-05-2016 01:35:00 8.8 C 95 % 8.04 C
2613 26-05-2016 01:40:00 8.8 C 95 % 8.04 C
2614 26-05-2016 01:45:00 8.9 C 95 % 8.14 C
2615 26-05-2016 01:50:00 8.8 C 95 % 8.04 C
2616 26-05-2016 01:55:00 8.8 C 95 % 8.04 C
2617 26-05-2016 02:00:00 8.7 C 95 % 7.94 C
2618 26-05-2016 02:05:00 8.7 C 95 % 7.94 C
2619 26-05-2016 02:10:00 8.6 C 95 % 7.85 C
2620 26-05-2016 02:15:00 8.5 C 95 % 7.75 C
2621 26-05-2016 02:20:00 8.4 C 95 % 7.65 C
2622 26-05-2016 02:25:00 8.5 C 95 % 7.75 C
2623 26-05-2016 02:30:00 8.4 C 95 % 7.65 C
2624 26-05-2016 02:35:00 8.4 C 95 % 7.65 C
2625 26-05-2016 02:40:00 8.3 C 95 % 7.55 C
Sensor: Nr:Datum:Temp:Feuchte:Taupunkt:
Aussen-T/F 2626 26-05-2016 02:45:00 8.2 C 95 % 7.45 C
2627 26-05-2016 02:50:00 8.1 C 95 % 7.35 C
2628 26-05-2016 02:55:00 8.1 C 95 % 7.35 C
2629 26-05-2016 03:00:00 8 C 95 % 7.25 C
2630 26-05-2016 03:05:00 8.1 C 96 % 7.5 C
2631 26-05-2016 03:10:00 8.2 C 96 % 7.6 C
2632 26-05-2016 03:15:00 8.2 C 96 % 7.6 C
2633 26-05-2016 03:20:00 8 C 95 % 7.25 C
2634 26-05-2016 03:25:00 7.9 C 95 % 7.15 C
2635 26-05-2016 03:30:00 7.9 C 95 % 7.15 C
2636 26-05-2016 03:35:00 7.9 C 96 % 7.3 C
2637 26-05-2016 03:40:00 7.8 C 96 % 7.2 C
2638 26-05-2016 03:45:00 7.9 C 96 % 7.3 C
2639 26-05-2016 03:50:00 7.9 C 96 % 7.3 C
2640 26-05-2016 03:55:00 7.8 C 96 % 7.2 C
2641 26-05-2016 04:00:00 7.7 C 96 % 7.1 C
2642 26-05-2016 04:05:00 7.7 C 95 % 6.95 C
2643 26-05-2016 04:10:00 7.8 C 96 % 7.2 C
2644 26-05-2016 04:15:00 7.9 C 96 % 7.3 C
2645 26-05-2016 04:20:00 8.1 C 96 % 7.5 C
2646 26-05-2016 04:25:00 8.2 C 96 % 7.6 C
2647 26-05-2016 04:30:00 8.3 C 96 % 7.7 C
2648 26-05-2016 04:35:00 8.3 C 96 % 7.7 C
2649 26-05-2016 04:40:00 8.3 C 96 % 7.7 C
2650 26-05-2016 04:45:00 8.3 C 96 % 7.7 C
Sensor: Nr:Datum:Temp:Feuchte:Taupunkt:
Aussen-T/F 2651 26-05-2016 04:50:00 8.3 C 96 % 7.7 C
2652 26-05-2016 04:55:00 8.3 C 96 % 7.7 C
2653 26-05-2016 05:00:00 8.3 C 96 % 7.7 C
2654 26-05-2016 05:05:00 8.2 C 96 % 7.6 C
2655 26-05-2016 05:10:00 8.2 C 96 % 7.6 C
2656 26-05-2016 05:15:00 8.2 C 96 % 7.6 C
2657 26-05-2016 05:20:00 8.2 C 96 % 7.6 C
2658 26-05-2016 05:25:00 8.3 C 96 % 7.7 C
2659 26-05-2016 05:30:00 8.3 C 96 % 7.7 C
2660 26-05-2016 05:35:00 8.2 C 96 % 7.6 C
2661 26-05-2016 05:40:00 8.2 C 96 % 7.6 C
2662 26-05-2016 05:45:00 8.2 C 96 % 7.6 C
2663 26-05-2016 05:50:00 8.1 C 96 % 7.5 C
2664 26-05-2016 05:55:00 8.1 C 96 % 7.5 C
2665 26-05-2016 06:00:00 8.1 C 96 % 7.5 C
2666 26-05-2016 06:05:00 8.1 C 96 % 7.5 C
2667 26-05-2016 06:10:00 8.1 C 96 % 7.5 C
2668 26-05-2016 06:15:00 8.1 C 96 % 7.5 C
2669 26-05-2016 06:20:00 8.1 C 96 % 7.5 C
2670 26-05-2016 06:25:00 8.1 C 96 % 7.5 C
2671 26-05-2016 06:30:00 8.1 C 96 % 7.5 C
2672 26-05-2016 06:35:00 8.1 C 96 % 7.5 C
2673 26-05-2016 06:40:00 8.2 C 96 % 7.6 C
2674 26-05-2016 06:45:00 8.2 C 96 % 7.6 C
2675 26-05-2016 06:50:00 8.2 C 96 % 7.6 C
Sensor: Nr:Datum:Temp:Feuchte:Taupunkt:
Aussen-T/F 2676 26-05-2016 06:55:00 8.2 C 96 % 7.6 C
2677 26-05-2016 07:00:00 8.2 C 96 % 7.6 C
2678 26-05-2016 07:05:00 8.3 C 96 % 7.7 C
2679 26-05-2016 07:10:00 8.3 C 97 % 7.85 C
2680 26-05-2016 07:15:00 8.3 C 97 % 7.85 C
2681 26-05-2016 07:20:00 8.3 C 97 % 7.85 C
2682 26-05-2016 07:25:00 8.3 C 96 % 7.7 C
2683 26-05-2016 07:30:00 8.2 C 96 % 7.6 C
2684 26-05-2016 07:35:00 8.3 C 96 % 7.7 C
2685 26-05-2016 07:40:00 8.3 C 97 % 7.85 C
2686 26-05-2016 07:45:00 8.3 C 97 % 7.85 C
2687 26-05-2016 07:50:00 8.4 C 97 % 7.95 C
2688 26-05-2016 07:55:00 8.4 C 97 % 7.95 C
2689 26-05-2016 08:00:00 8.6 C 97 % 8.15 C
2690 26-05-2016 08:05:00 8.7 C 97 % 8.25 C
2691 26-05-2016 08:10:00 8.7 C 97 % 8.25 C
2692 26-05-2016 08:15:00 8.7 C 97 % 8.25 C
2693 26-05-2016 08:20:00 8.8 C 97 % 8.35 C
2694 26-05-2016 08:25:00 8.9 C 97 % 8.45 C
2695 26-05-2016 08:30:00 9.1 C 97 % 8.65 C
2696 26-05-2016 08:35:00 9.2 C 97 % 8.75 C
2697 26-05-2016 08:40:00 9.3 C 97 % 8.85 C
2698 26-05-2016 08:45:00 9.5 C 97 % 9.05 C
2699 26-05-2016 08:50:00 9.6 C 97 % 9.15 C
2700 26-05-2016 08:55:00 9.7 C 97 % 9.25 C
Sensor: Nr:Datum:Temp:Feuchte:Taupunkt:
Aussen-T/F 2701 26-05-2016 09:00:00 9.7 C 97 % 9.25 C
2702 26-05-2016 09:05:00 9.8 C 97 % 9.35 C
2703 26-05-2016 09:10:00 9.8 C 97 % 9.35 C
2704 26-05-2016 09:15:00 10 C 97 % 9.55 C
2705 26-05-2016 09:20:00 10.1 C 97 % 9.65 C
2706 26-05-2016 09:25:00 10.3 C 97 % 9.85 C
2707 26-05-2016 09:30:00 10.3 C 97 % 9.85 C
2708 26-05-2016 09:35:00 10.4 C 97 % 9.94 C
2709 26-05-2016 09:40:00 10.6 C 97 % 10.14 C
2710 26-05-2016 09:45:00 10.6 C 97 % 10.14 C
2711 26-05-2016 09:50:00 10.7 C 97 % 10.24 C
2712 26-05-2016 09:55:00 10.8 C 97 % 10.34 C
2713 26-05-2016 10:00:00 10.8 C 97 % 10.34 C
2714 26-05-2016 10:05:00 11.1 C 97 % 10.64 C
2715 26-05-2016 10:10:00 11.2 C 97 % 10.74 C
2716 26-05-2016 10:15:00 11.5 C 97 % 11.04 C
2717 26-05-2016 10:20:00 11.8 C 97 % 11.34 C
2718 26-05-2016 10:25:00 12.2 C 97 % 11.74 C
2719 26-05-2016 10:30:00 12.4 C 97 % 11.94 C
2720 26-05-2016 10:35:00 12.7 C 96 % 12.08 C
2721 26-05-2016 10:40:00 13.2 C 96 % 12.58 C
2722 26-05-2016 10:45:00 13.5 C 94 % 12.55 C
2723 26-05-2016 10:50:00 13.8 C 93 % 12.69 C
2724 26-05-2016 10:55:00 14 C 93 % 12.89 C
2725 26-05-2016 11:00:00 14.2 C 90 % 12.58 C
Sensor: Nr:Datum:Temp:Feuchte:Taupunkt:
Aussen-T/F 2726 26-05-2016 11:05:00 14.4 C 89 % 12.61 C
2727 26-05-2016 11:10:00 14.7 C 89 % 12.91 C
2728 26-05-2016 11:15:00 14.9 C 89 % 13.1 C
2729 26-05-2016 11:20:00 15.2 C 88 % 13.23 C
2730 26-05-2016 11:25:00 15.3 C 86 % 12.97 C
2731 26-05-2016 11:30:00 15.6 C 85 % 13.09 C
2732 26-05-2016 11:35:00 15.8 C 83 % 12.92 C
2733 26-05-2016 11:40:00 16.2 C 82 % 13.13 C
2734 26-05-2016 11:45:00 16.4 C 84 % 13.69 C
2735 26-05-2016 11:50:00 16.6 C 78 % 12.75 C
2736 26-05-2016 11:55:00 16.8 C 76 % 12.55 C
2737 26-05-2016 12:00:00 17.2 C 72 % 12.11 C
2738 26-05-2016 12:05:00 17.7 C 71 % 12.38 C
2739 26-05-2016 12:10:00 18 C 70 % 12.45 C
2740 26-05-2016 12:15:00 18.2 C 69 % 12.42 C
2741 26-05-2016 12:20:00 18.3 C 76 % 14 C
2742 26-05-2016 12:25:00 18.2 C 79 % 14.5 C
2743 26-05-2016 12:30:00 18 C 72 % 12.88 C
2744 26-05-2016 12:35:00 18.2 C 69 % 12.42 C
2745 26-05-2016 12:40:00 18.3 C 76 % 14 C
2746 26-05-2016 12:45:00 18.2 C 79 % 14.5 C
2747 26-05-2016 12:50:00 18 C 81 % 14.69 C
2748 26-05-2016 12:55:00 17.8 C 81 % 14.5 C
2749 26-05-2016 13:00:00 17.7 C 81 % 14.4 C
2750 26-05-2016 13:05:00 17.6 C 82 % 14.49 C
Sensor: Nr:Datum:Temp:Feuchte:Taupunkt:
Aussen-T/F 2751 26-05-2016 13:10:00 17.4 C 83 % 14.48 C
2752 26-05-2016 13:15:00 17.3 C 84 % 14.57 C
2753 26-05-2016 13:20:00 17.3 C 77 % 13.23 C
2754 26-05-2016 13:25:00 17.8 C 75 % 13.31 C
2755 26-05-2016 13:30:00 18.3 C 72 % 13.17 C
2756 26-05-2016 13:35:00 18.8 C 68 % 12.77 C
2757 26-05-2016 13:40:00 19.3 C 66 % 12.79 C
2758 26-05-2016 13:45:00 19.6 C 63 % 12.37 C
2759 26-05-2016 13:50:00 19.8 C 62 % 12.31 C
2760 26-05-2016 13:55:00 19.9 C 74 % 15.13 C
2761 26-05-2016 14:00:00 19.8 C 75 % 15.24 C
2762 26-05-2016 14:05:00 19.7 C 75 % 15.15 C
2763 26-05-2016 14:10:00 19.6 C 64 % 12.61 C
2764 26-05-2016 14:15:00 19.9 C 62 % 12.41 C
2765 26-05-2016 14:20:00 20.3 C 60 % 12.29 C
2766 26-05-2016 14:25:00 20.8 C 60 % 12.76 C
2767 26-05-2016 14:30:00 21.2 C 58 % 12.61 C
2768 26-05-2016 14:35:00 21.5 C 54 % 11.81 C
2769 26-05-2016 14:40:00 21.6 C 55 % 12.18 C
2770 26-05-2016 14:45:00 21.6 C 65 % 14.74 C
2771 26-05-2016 14:50:00 21.3 C 69 % 15.38 C
2772 26-05-2016 14:55:00 21.1 C 65 % 14.27 C
2773 26-05-2016 15:00:00 20.9 C 58 % 12.33 C
2774 26-05-2016 15:05:00 21.2 C 59 % 12.87 C
2775 26-05-2016 15:10:00 21.5 C 60 % 13.41 C
Sensor: Nr:Datum:Temp:Feuchte:Taupunkt:
Aussen-T/F 2776 26-05-2016 15:15:00 21.9 C 58 % 13.27 C
2777 26-05-2016 15:20:00 22.2 C 54 % 12.45 C
2778 26-05-2016 15:25:00 22.4 C 54 % 12.64 C
2779 26-05-2016 15:30:00 22.7 C 52 % 12.34 C
2780 26-05-2016 15:35:00 22.7 C 52 % 12.34 C
2781 26-05-2016 15:40:00 22.7 C 51 % 12.05 C
2782 26-05-2016 15:45:00 22.9 C 52 % 12.53 C
2783 26-05-2016 15:50:00 22.8 C 53 % 12.73 C
2784 26-05-2016 15:55:00 22.5 C 54 % 12.73 C
2785 26-05-2016 16:00:00 22.4 C 58 % 13.73 C
2786 26-05-2016 16:05:00 22.2 C 57 % 13.28 C
2787 26-05-2016 16:10:00 22.4 C 53 % 12.36 C
2788 26-05-2016 16:15:00 22.8 C 54 % 13.01 C
2789 26-05-2016 16:20:00 22.9 C 54 % 13.1 C
2790 26-05-2016 16:25:00 23.1 C 50 % 12.11 C
2791 26-05-2016 16:30:00 23.3 C 49 % 11.99 C
2792 26-05-2016 16:35:00 23.4 C 49 % 12.08 C
2793 26-05-2016 16:40:00 23.6 C 49 % 12.27 C
2794 26-05-2016 16:45:00 23.4 C 51 % 12.69 C
2795 26-05-2016 16:50:00 23.3 C 57 % 14.31 C
2796 26-05-2016 16:55:00 23.1 C 55 % 13.57 C
2797 26-05-2016 17:00:00 22.8 C 63 % 15.39 C
2798 26-05-2016 17:05:00 22.6 C 53 % 12.54 C
2799 26-05-2016 17:10:00 22.9 C 53 % 12.82 C
2800 26-05-2016 17:15:00 23.3 C 50 % 12.3 C
Sensor: Nr:Datum:Temp:Feuchte:Taupunkt:
Aussen-T/F 2801 26-05-2016 17:20:00 23.3 C 55 % 13.76 C
2802 26-05-2016 17:25:00 23.3 C 53 % 13.19 C
2803 26-05-2016 17:30:00 23.8 C 49 % 12.45 C
2804 26-05-2016 17:35:00 24.1 C 48 % 12.41 C
2805 26-05-2016 17:40:00 24.4 C 51 % 13.61 C
2806 26-05-2016 17:45:00 24.6 C 48 % 12.87 C
2807 26-05-2016 17:50:00 24.6 C 51 % 13.79 C
2808 26-05-2016 17:55:00 24.6 C 46 % 12.22 C
2809 26-05-2016 18:00:00 24.1 C 48 % 12.41 C
2810 26-05-2016 18:05:00 23.9 C 48 % 12.23 C
2811 26-05-2016 18:10:00 24 C 51 % 13.24 C
2812 26-05-2016 18:15:00 24 C 55 % 14.41 C
2813 26-05-2016 18:20:00 23.8 C 51 % 13.06 C
2814 26-05-2016 18:25:00 23.6 C 50 % 12.57 C
2815 26-05-2016 18:30:00 23.6 C 62 % 15.89 C
2816 26-05-2016 18:35:00 23.8 C 53 % 13.65 C
2817 26-05-2016 18:40:00 24.1 C 49 % 12.72 C
2818 26-05-2016 18:45:00 24.1 C 48 % 12.41 C
2819 26-05-2016 18:50:00 24.3 C 50 % 13.22 C
2820 26-05-2016 18:55:00 24.3 C 49 % 12.91 C
2821 26-05-2016 19:00:00 24.3 C 50 % 13.22 C
2822 26-05-2016 19:05:00 24.5 C 60 % 16.23 C
2823 26-05-2016 19:10:00 24.6 C 49 % 13.18 C
2824 26-05-2016 19:15:00 24.4 C 49 % 13 C
2825 26-05-2016 19:20:00 24.2 C 50 % 13.12 C
Sensor: Nr:Datum:Temp:Feuchte:Taupunkt:
Aussen-T/F 2826 26-05-2016 19:25:00 23.9 C 49 % 12.54 C
2827 26-05-2016 19:30:00 23.6 C 50 % 12.57 C
2828 26-05-2016 19:35:00 23.4 C 57 % 14.4 C
2829 26-05-2016 19:40:00 23.3 C 61 % 15.36 C
2830 26-05-2016 19:45:00 22.9 C 63 % 15.48 C
2831 26-05-2016 19:50:00 22.4 C 64 % 15.26 C
2832 26-05-2016 19:55:00 21.8 C 67 % 15.4 C
2833 26-05-2016 20:00:00 21.3 C 68 % 15.16 C
2834 26-05-2016 20:05:00 20.8 C 70 % 15.13 C
2835 26-05-2016 20:10:00 20.4 C 71 % 14.97 C
2836 26-05-2016 20:15:00 20.1 C 73 % 15.11 C
2837 26-05-2016 20:20:00 19.8 C 73 % 14.82 C
2838 26-05-2016 20:25:00 19.6 C 74 % 14.84 C
2839 26-05-2016 20:30:00 19.4 C 74 % 14.65 C
2840 26-05-2016 20:35:00 19.2 C 75 % 14.66 C
2841 26-05-2016 20:40:00 18.9 C 76 % 14.58 C
2842 26-05-2016 20:45:00 18.7 C 76 % 14.39 C
2843 26-05-2016 20:50:00 18.5 C 77 % 14.39 C
2844 26-05-2016 20:55:00 18.3 C 77 % 14.2 C
2845 26-05-2016 21:00:00 18.2 C 77 % 14.1 C
2846 26-05-2016 21:05:00 18.1 C 78 % 14.21 C
2847 26-05-2016 21:10:00 17.9 C 78 % 14.01 C
2848 26-05-2016 21:15:00 17.8 C 79 % 14.11 C
2849 26-05-2016 21:20:00 17.7 C 79 % 14.01 C
2850 26-05-2016 21:25:00 17.6 C 78 % 13.72 C
Sensor: Nr:Datum:Temp:Feuchte:Taupunkt:
Aussen-T/F 2851 26-05-2016 21:30:00 17.6 C 79 % 13.92 C
2852 26-05-2016 21:35:00 17.4 C 79 % 13.72 C
2853 26-05-2016 21:40:00 17.4 C 79 % 13.72 C
2854 26-05-2016 21:45:00 17.3 C 80 % 13.82 C
2855 26-05-2016 21:50:00 17.3 C 79 % 13.63 C
2856 26-05-2016 21:55:00 17.3 C 80 % 13.82 C
2857 26-05-2016 22:00:00 17.2 C 80 % 13.72 C
2858 26-05-2016 22:05:00 17.2 C 81 % 13.91 C
2859 26-05-2016 22:10:00 17.1 C 82 % 14 C
2860 26-05-2016 22:15:00 16.9 C 83 % 14 C
2861 26-05-2016 22:20:00 16.8 C 85 % 14.26 C
2862 26-05-2016 22:25:00 16.7 C 86 % 14.35 C
2863 26-05-2016 22:30:00 16.5 C 87 % 14.33 C
2864 26-05-2016 22:35:00 16.3 C 87 % 14.13 C
2865 26-05-2016 22:40:00 16.2 C 88 % 14.21 C
2866 26-05-2016 22:45:00 16.1 C 89 % 14.29 C
2867 26-05-2016 22:50:00 16 C 89 % 14.19 C
2868 26-05-2016 22:55:00 15.9 C 90 % 14.26 C
2869 26-05-2016 23:00:00 15.8 C 90 % 14.16 C
2870 26-05-2016 23:05:00 15.7 C 90 % 14.06 C
2871 26-05-2016 23:10:00 15.7 C 90 % 14.06 C
2872 26-05-2016 23:15:00 15.6 C 91 % 14.14 C
2873 26-05-2016 23:20:00 15.5 C 91 % 14.04 C
2874 26-05-2016 23:25:00 15.4 C 92 % 14.11 C
2875 26-05-2016 23:30:00 15.3 C 92 % 14.01 C
Sensor: Nr:Datum:Temp:Feuchte:Taupunkt:
Aussen-T/F 2876 26-05-2016 23:35:00 15.3 C 92 % 14.01 C
2877 26-05-2016 23:40:00 15.3 C 92 % 14.01 C
2878 26-05-2016 23:45:00 15.2 C 92 % 13.91 C
2879 26-05-2016 23:50:00 15.2 C 92 % 13.91 C
2880 26-05-2016 23:55:00 15.1 C 92 % 13.81 C
2881 27-05-2016 00:00:00 15 C 93 % 13.88 C
2882 27-05-2016 00:05:00 15 C 93 % 13.88 C
2883 27-05-2016 00:10:00 15 C 93 % 13.88 C
2884 27-05-2016 00:15:00 14.9 C 93 % 13.78 C
2885 27-05-2016 00:20:00 14.9 C 93 % 13.78 C
2886 27-05-2016 00:25:00 14.8 C 93 % 13.68 C
2887 27-05-2016 00:30:00 14.8 C 93 % 13.68 C
2888 27-05-2016 00:35:00 14.8 C 93 % 13.68 C
2889 27-05-2016 00:40:00 14.7 C 93 % 13.58 C
2890 27-05-2016 00:45:00 14.7 C 93 % 13.58 C
2891 27-05-2016 00:50:00 14.7 C 93 % 13.58 C
2892 27-05-2016 00:55:00 14.6 C 93 % 13.48 C
2893 27-05-2016 01:00:00 14.6 C 93 % 13.48 C
2894 27-05-2016 01:05:00 14.5 C 93 % 13.38 C
2895 27-05-2016 01:10:00 14.4 C 93 % 13.28 C
2896 27-05-2016 01:15:00 14.4 C 93 % 13.28 C
2897 27-05-2016 01:20:00 14.4 C 93 % 13.28 C
2898 27-05-2016 01:25:00 14.3 C 93 % 13.18 C
2899 27-05-2016 01:30:00 14.3 C 94 % 13.35 C
2900 27-05-2016 01:35:00 14.3 C 94 % 13.35 C
Sensor: Nr:Datum:Temp:Feuchte:Taupunkt:
Aussen-T/F 2901 27-05-2016 01:40:00 14.3 C 94 % 13.35 C
2902 27-05-2016 01:45:00 14.3 C 94 % 13.35 C
2903 27-05-2016 01:50:00 14.3 C 94 % 13.35 C
2904 27-05-2016 01:55:00 14.3 C 94 % 13.35 C
2905 27-05-2016 02:00:00 14.3 C 94 % 13.35 C
2906 27-05-2016 02:05:00 14.3 C 94 % 13.35 C
2907 27-05-2016 02:10:00 14.3 C 94 % 13.35 C
2908 27-05-2016 02:15:00 14.4 C 94 % 13.45 C
2909 27-05-2016 02:20:00 14.4 C 94 % 13.45 C
2910 27-05-2016 02:25:00 14.4 C 95 % 13.61 C
2911 27-05-2016 02:30:00 14.5 C 95 % 13.71 C
2912 27-05-2016 02:35:00 14.6 C 95 % 13.81 C
2913 27-05-2016 02:40:00 14.6 C 95 % 13.81 C
2914 27-05-2016 02:45:00 14.6 C 95 % 13.81 C
2915 27-05-2016 02:50:00 14.6 C 95 % 13.81 C
2916 27-05-2016 02:55:00 14.6 C 95 % 13.81 C
2917 27-05-2016 03:00:00 14.6 C 95 % 13.81 C
2918 27-05-2016 03:05:00 14.6 C 95 % 13.81 C
2919 27-05-2016 03:10:00 14.6 C 95 % 13.81 C
2920 27-05-2016 03:15:00 14.7 C 95 % 13.91 C
2921 27-05-2016 03:20:00 14.7 C 95 % 13.91 C
2922 27-05-2016 03:25:00 14.7 C 95 % 13.91 C
2923 27-05-2016 03:30:00 14.6 C 95 % 13.81 C
2924 27-05-2016 03:35:00 14.6 C 95 % 13.81 C
2925 27-05-2016 03:40:00 14.6 C 95 % 13.81 C
Sensor: Nr:Datum:Temp:Feuchte:Taupunkt:
Aussen-T/F 2926 27-05-2016 03:45:00 14.6 C 95 % 13.81 C
2927 27-05-2016 03:50:00 14.6 C 95 % 13.81 C
2928 27-05-2016 03:55:00 14.6 C 95 % 13.81 C
2929 27-05-2016 04:00:00 14.6 C 95 % 13.81 C
2930 27-05-2016 04:05:00 14.6 C 95 % 13.81 C
2931 27-05-2016 04:10:00 14.6 C 95 % 13.81 C
2932 27-05-2016 04:15:00 14.5 C 95 % 13.71 C
2933 27-05-2016 04:20:00 14.5 C 95 % 13.71 C
2934 27-05-2016 04:25:00 14.4 C 96 % 13.77 C
2935 27-05-2016 04:30:00 14.4 C 96 % 13.77 C
2936 27-05-2016 04:35:00 14.4 C 96 % 13.77 C
2937 27-05-2016 04:40:00 14.3 C 95 % 13.51 C
2938 27-05-2016 04:45:00 14.3 C 95 % 13.51 C
2939 27-05-2016 04:50:00 14.2 C 95 % 13.41 C
2940 27-05-2016 04:55:00 14.2 C 95 % 13.41 C
2941 27-05-2016 05:00:00 14.1 C 96 % 13.47 C
2942 27-05-2016 05:05:00 14 C 96 % 13.37 C
2943 27-05-2016 05:10:00 14 C 96 % 13.37 C
2944 27-05-2016 05:15:00 13.9 C 96 % 13.27 C
2945 27-05-2016 05:20:00 13.9 C 96 % 13.27 C
2946 27-05-2016 05:25:00 13.9 C 96 % 13.27 C
2947 27-05-2016 05:30:00 13.9 C 96 % 13.27 C
2948 27-05-2016 05:35:00 13.9 C 96 % 13.27 C
2949 27-05-2016 05:40:00 13.9 C 96 % 13.27 C
2950 27-05-2016 05:45:00 13.9 C 96 % 13.27 C
Sensor: Nr:Datum:Temp:Feuchte:Taupunkt:
Aussen-T/F 2951 27-05-2016 05:50:00 13.9 C 96 % 13.27 C
2952 27-05-2016 08:00:00 14.1 C 96 % 13.47 C
2953 27-05-2016 08:05:00 14.1 C 96 % 13.47 C
2954 27-05-2016 08:10:00 14.2 C 96 % 13.57 C
2955 27-05-2016 08:15:00 14.3 C 96 % 13.67 C
2956 27-05-2016 08:20:00 14.5 C 96 % 13.87 C
2957 27-05-2016 08:25:00 14.6 C 96 % 13.97 C
2958 27-05-2016 08:30:00 14.7 C 96 % 14.07 C
2959 27-05-2016 08:35:00 14.8 C 97 % 14.33 C
2960 27-05-2016 08:40:00 15 C 97 % 14.53 C
2961 27-05-2016 08:45:00 15.1 C 97 % 14.63 C
2962 27-05-2016 08:50:00 15.2 C 97 % 14.73 C
2963 27-05-2016 08:55:00 15.2 C 96 % 14.57 C
2964 27-05-2016 09:00:00 15.2 C 96 % 14.57 C
2965 27-05-2016 09:05:00 15.2 C 96 % 14.57 C
2966 27-05-2016 09:10:00 15.2 C 96 % 14.57 C
2967 27-05-2016 09:15:00 15.2 C 96 % 14.57 C
2968 27-05-2016 09:20:00 15.2 C 96 % 14.57 C
2969 27-05-2016 09:25:00 15.3 C 96 % 14.67 C
2970 27-05-2016 09:30:00 15.3 C 96 % 14.67 C
2971 27-05-2016 09:35:00 15.4 C 96 % 14.77 C
2972 27-05-2016 09:40:00 15.4 C 95 % 14.6 C
2973 27-05-2016 09:45:00 15.6 C 95 % 14.8 C
2974 27-05-2016 09:50:00 15.5 C 95 % 14.7 C
2975 27-05-2016 09:55:00 15.6 C 95 % 14.8 C
Sensor: Nr:Datum:Temp:Feuchte:Taupunkt:
Aussen-T/F 2976 27-05-2016 10:00:00 15.8 C 95 % 15 C
2977 27-05-2016 10:05:00 16 C 95 % 15.2 C
2978 27-05-2016 10:10:00 16.1 C 94 % 15.13 C
2979 27-05-2016 10:15:00 16.2 C 94 % 15.23 C
2980 27-05-2016 10:20:00 16.3 C 94 % 15.33 C
2981 27-05-2016 10:25:00 16.4 C 93 % 15.27 C
2982 27-05-2016 10:30:00 16.6 C 93 % 15.46 C
2983 27-05-2016 10:35:00 16.8 C 92 % 15.49 C
2984 27-05-2016 10:40:00 17 C 91 % 15.52 C
2985 27-05-2016 10:45:00 17.2 C 90 % 15.55 C
2986 27-05-2016 10:50:00 17.3 C 90 % 15.64 C
2987 27-05-2016 10:55:00 17.3 C 89 % 15.47 C
2988 27-05-2016 11:00:00 17.4 C 89 % 15.57 C
2989 27-05-2016 11:05:00 17.4 C 88 % 15.39 C
2990 27-05-2016 11:10:00 17.5 C 88 % 15.49 C
2991 27-05-2016 11:15:00 17.6 C 87 % 15.41 C
2992 27-05-2016 11:20:00 17.6 C 87 % 15.41 C
2993 27-05-2016 11:25:00 17.7 C 88 % 15.69 C
2994 27-05-2016 11:30:00 17.8 C 88 % 15.79 C
2995 27-05-2016 11:35:00 17.9 C 87 % 15.71 C
2996 27-05-2016 11:40:00 18 C 86 % 15.62 C
2997 27-05-2016 11:45:00 18.2 C 85 % 15.64 C
2998 27-05-2016 11:50:00 18.4 C 86 % 16.02 C
2999 27-05-2016 11:55:00 18.6 C 84 % 15.84 C
3000 27-05-2016 12:00:00 18.6 C 84 % 15.84 C
Sensor: Nr:Datum:Temp:Feuchte:Taupunkt:
Aussen-T/F 3001 27-05-2016 12:05:00 18.7 C 82 % 15.57 C
3002 27-05-2016 12:10:00 18.8 C 85 % 16.23 C
3003 27-05-2016 12:15:00 18.9 C 89 % 17.05 C
3004 27-05-2016 12:20:00 18.8 C 89 % 16.95 C
3005 27-05-2016 12:25:00 18.7 C 90 % 17.03 C
3006 27-05-2016 12:30:00 18.6 C 91 % 17.1 C
3007 27-05-2016 12:35:00 18.4 C 92 % 17.08 C
3008 27-05-2016 12:40:00 18.4 C 92 % 17.08 C
3009 27-05-2016 12:45:00 18.3 C 92 % 16.98 C
3010 27-05-2016 12:50:00 18.2 C 90 % 16.53 C
3011 27-05-2016 12:55:00 18.3 C 92 % 16.98 C
3012 27-05-2016 13:00:00 18.3 C 89 % 16.46 C
3013 27-05-2016 13:05:00 18.7 C 89 % 16.85 C
3014 27-05-2016 13:10:00 19 C 91 % 17.5 C
3015 27-05-2016 13:15:00 19.1 C 88 % 17.07 C
3016 27-05-2016 13:20:00 19.2 C 87 % 16.98 C
3017 27-05-2016 13:25:00 19.4 C 86 % 17 C
3018 27-05-2016 13:30:00 19.6 C 90 % 17.91 C
3019 27-05-2016 13:35:00 19.7 C 89 % 17.84 C
3020 27-05-2016 13:40:00 19.6 C 89 % 17.74 C
3021 27-05-2016 13:45:00 19.4 C 83 % 16.44 C
3022 27-05-2016 13:50:00 19.6 C 80 % 16.06 C
3023 27-05-2016 13:55:00 19.9 C 82 % 16.74 C
3024 27-05-2016 14:00:00 20.1 C 78 % 16.14 C
3025 27-05-2016 14:05:00 20.2 C 78 % 16.24 C
Sensor: Nr:Datum:Temp:Feuchte:Taupunkt:
Aussen-T/F 3026 27-05-2016 14:10:00 20.3 C 78 % 16.34 C
3027 27-05-2016 14:15:00 20.3 C 86 % 17.88 C
3028 27-05-2016 14:20:00 20.3 C 87 % 18.06 C
3029 27-05-2016 14:25:00 20.2 C 88 % 18.15 C
3030 27-05-2016 14:30:00 20.2 C 89 % 18.33 C
3031 27-05-2016 14:35:00 20 C 80 % 16.44 C
3032 27-05-2016 14:40:00 20.2 C 76 % 15.83 C
3033 27-05-2016 14:45:00 20.7 C 74 % 15.9 C
3034 27-05-2016 14:50:00 21.1 C 74 % 16.29 C
3035 27-05-2016 14:55:00 21.4 C 72 % 16.14 C
3036 27-05-2016 15:00:00 21.7 C 71 % 16.21 C
3037 27-05-2016 15:05:00 21.8 C 68 % 15.63 C
3038 27-05-2016 15:10:00 22.1 C 67 % 15.69 C
3039 27-05-2016 15:15:00 22.2 C 65 % 15.31 C
3040 27-05-2016 15:20:00 22.4 C 69 % 16.43 C
3041 27-05-2016 15:25:00 22.6 C 66 % 15.93 C
3042 27-05-2016 15:30:00 22.8 C 65 % 15.88 C
3043 27-05-2016 15:35:00 23.1 C 65 % 16.16 C
3044 27-05-2016 15:40:00 23.3 C 65 % 16.35 C
3045 27-05-2016 15:45:00 23.5 C 64 % 16.3 C
3046 27-05-2016 15:50:00 23.6 C 59 % 15.12 C
3047 27-05-2016 15:55:00 23.3 C 64 % 16.11 C
3048 27-05-2016 16:00:00 23.2 C 71 % 17.65 C
3049 27-05-2016 16:05:00 22.9 C 74 % 18.02 C
3050 27-05-2016 16:10:00 22.6 C 76 % 18.15 C
Sensor: Nr:Datum:Temp:Feuchte:Taupunkt:
Aussen-T/F 3051 27-05-2016 16:15:00 22.3 C 79 % 18.48 C
3052 27-05-2016 16:20:00 22.2 C 78 % 18.18 C
3053 27-05-2016 16:25:00 22.3 C 72 % 17.01 C
3054 27-05-2016 16:30:00 22.2 C 79 % 18.38 C
3055 27-05-2016 16:35:00 21.8 C 79 % 18 C
3056 27-05-2016 16:40:00 21.3 C 81 % 17.91 C
3057 27-05-2016 16:45:00 20.9 C 83 % 17.9 C
3058 27-05-2016 16:50:00 20.5 C 84 % 17.7 C
3059 27-05-2016 16:55:00 20.1 C 85 % 17.5 C
3060 27-05-2016 17:00:00 19.7 C 86 % 17.29 C
3061 27-05-2016 17:05:00 19.4 C 86 % 17 C
3062 27-05-2016 17:10:00 18.8 C 84 % 16.04 C
3063 27-05-2016 17:15:00 18.1 C 85 % 15.54 C
3064 27-05-2016 17:20:00 17.4 C 87 % 15.21 C
3065 27-05-2016 17:25:00 16.9 C 89 % 15.08 C
3066 27-05-2016 17:30:00 16.7 C 91 % 15.22 C
3067 27-05-2016 17:35:00 16.6 C 92 % 15.3 C
3068 27-05-2016 17:40:00 16.5 C 92 % 15.2 C
3069 27-05-2016 17:45:00 16.4 C 93 % 15.27 C
3070 27-05-2016 17:50:00 16.4 C 93 % 15.27 C
3071 27-05-2016 17:55:00 16.4 C 93 % 15.27 C
3072 27-05-2016 18:00:00 16.4 C 94 % 15.43 C
3073 27-05-2016 18:05:00 16.4 C 94 % 15.43 C
3074 27-05-2016 18:10:00 16.4 C 94 % 15.43 C
3075 27-05-2016 18:15:00 16.5 C 94 % 15.53 C
Sensor: Nr:Datum:Temp:Feuchte:Taupunkt:
Aussen-T/F 3076 27-05-2016 18:20:00 16.5 C 94 % 15.53 C
3077 27-05-2016 18:25:00 16.6 C 95 % 15.8 C
3078 27-05-2016 18:30:00 16.6 C 95 % 15.8 C
3079 27-05-2016 18:35:00 16.6 C 95 % 15.8 C
3080 27-05-2016 18:40:00 16.7 C 95 % 15.9 C
3081 27-05-2016 18:45:00 16.7 C 95 % 15.9 C
3082 27-05-2016 18:50:00 16.7 C 95 % 15.9 C
3083 27-05-2016 18:55:00 16.7 C 95 % 15.9 C
3084 27-05-2016 19:00:00 16.7 C 95 % 15.9 C
3085 27-05-2016 19:05:00 16.7 C 95 % 15.9 C
3086 27-05-2016 19:10:00 16.7 C 95 % 15.9 C
3087 27-05-2016 19:15:00 16.7 C 95 % 15.9 C
3088 27-05-2016 19:20:00 16.7 C 95 % 15.9 C
3089 27-05-2016 19:25:00 16.7 C 95 % 15.9 C
3090 27-05-2016 19:30:00 16.7 C 95 % 15.9 C
3091 27-05-2016 19:35:00 16.7 C 95 % 15.9 C
3092 27-05-2016 19:40:00 16.7 C 95 % 15.9 C
3093 27-05-2016 19:45:00 16.7 C 95 % 15.9 C
3094 27-05-2016 19:50:00 16.7 C 95 % 15.9 C
3095 27-05-2016 19:55:00 16.7 C 95 % 15.9 C
3096 27-05-2016 20:00:00 16.7 C 95 % 15.9 C
3097 27-05-2016 20:05:00 16.7 C 95 % 15.9 C
3098 27-05-2016 20:10:00 16.7 C 95 % 15.9 C
3099 27-05-2016 20:15:00 16.7 C 95 % 15.9 C
3100 27-05-2016 20:20:00 16.7 C 95 % 15.9 C
Sensor: Nr:Datum:Temp:Feuchte:Taupunkt:
Aussen-T/F 3101 27-05-2016 20:25:00 16.6 C 95 % 15.8 C
3102 27-05-2016 20:30:00 16.6 C 95 % 15.8 C
3103 27-05-2016 20:35:00 16.5 C 95 % 15.7 C
3104 27-05-2016 20:40:00 16.4 C 96 % 15.76 C
3105 27-05-2016 20:45:00 16.4 C 95 % 15.6 C
3106 27-05-2016 20:50:00 16.3 C 95 % 15.5 C
3107 27-05-2016 20:55:00 16.2 C 95 % 15.4 C
3108 27-05-2016 21:00:00 16.2 C 95 % 15.4 C
3109 27-05-2016 21:05:00 16.1 C 95 % 15.3 C
3110 27-05-2016 21:10:00 16.1 C 95 % 15.3 C
3111 27-05-2016 21:15:00 15.9 C 95 % 15.1 C
3112 27-05-2016 21:20:00 15.9 C 95 % 15.1 C
3113 27-05-2016 21:25:00 15.9 C 96 % 15.26 C
3114 27-05-2016 21:30:00 15.8 C 96 % 15.16 C
3115 27-05-2016 21:35:00 15.8 C 96 % 15.16 C
3116 27-05-2016 21:40:00 15.7 C 96 % 15.06 C
3117 27-05-2016 21:45:00 15.7 C 96 % 15.06 C
3118 27-05-2016 21:50:00 15.6 C 96 % 14.96 C
3119 27-05-2016 21:55:00 15.6 C 96 % 14.96 C
3120 27-05-2016 22:00:00 15.6 C 96 % 14.96 C
3121 27-05-2016 22:05:00 15.6 C 96 % 14.96 C
3122 27-05-2016 22:10:00 15.5 C 96 % 14.86 C
3123 27-05-2016 22:15:00 15.4 C 96 % 14.77 C
3124 27-05-2016 22:20:00 15.3 C 96 % 14.67 C
3125 27-05-2016 22:25:00 15.1 C 96 % 14.47 C
Sensor: Nr:Datum:Temp:Feuchte:Taupunkt:
Aussen-T/F 3126 27-05-2016 22:30:00 14.9 C 95 % 14.11 C
3127 27-05-2016 22:35:00 14.9 C 96 % 14.27 C
3128 27-05-2016 22:40:00 14.8 C 96 % 14.17 C
3129 27-05-2016 22:45:00 14.8 C 96 % 14.17 C
3130 27-05-2016 22:50:00 14.8 C 96 % 14.17 C
3131 27-05-2016 22:55:00 14.8 C 96 % 14.17 C
3132 28-05-2016 01:30:00 13.3 C 96 % 12.68 C
3133 28-05-2016 01:35:00 13.3 C 96 % 12.68 C
3134 28-05-2016 01:40:00 13.7 C 97 % 13.23 C
3135 28-05-2016 01:45:00 13.9 C 97 % 13.43 C
3136 28-05-2016 01:50:00 14.1 C 97 % 13.63 C
3137 28-05-2016 01:55:00 14.1 C 97 % 13.63 C
3138 28-05-2016 02:00:00 14.2 C 97 % 13.73 C
3139 28-05-2016 02:05:00 14.2 C 97 % 13.73 C
3140 28-05-2016 02:10:00 14.2 C 97 % 13.73 C
3141 28-05-2016 02:15:00 14.2 C 97 % 13.73 C
3142 28-05-2016 02:20:00 14.3 C 97 % 13.83 C
3143 28-05-2016 02:25:00 14.3 C 97 % 13.83 C
3144 28-05-2016 02:30:00 14.2 C 97 % 13.73 C
3145 28-05-2016 02:35:00 14.1 C 97 % 13.63 C
3146 28-05-2016 02:40:00 14.1 C 97 % 13.63 C
3147 28-05-2016 02:45:00 14 C 97 % 13.53 C
3148 28-05-2016 02:50:00 13.9 C 97 % 13.43 C
3149 28-05-2016 02:55:00 13.9 C 97 % 13.43 C
3150 28-05-2016 03:00:00 13.9 C 97 % 13.43 C
Sensor: Nr:Datum:Temp:Feuchte:Taupunkt:
Aussen-T/F 3151 28-05-2016 03:05:00 13.8 C 97 % 13.33 C
3152 28-05-2016 03:10:00 13.8 C 97 % 13.33 C
3153 28-05-2016 03:15:00 13.8 C 97 % 13.33 C
3154 28-05-2016 03:20:00 13.9 C 97 % 13.43 C
3155 28-05-2016 03:25:00 13.9 C 97 % 13.43 C
3156 28-05-2016 03:30:00 13.9 C 97 % 13.43 C
3157 28-05-2016 03:35:00 13.8 C 97 % 13.33 C
3158 28-05-2016 03:40:00 13.8 C 97 % 13.33 C
3159 28-05-2016 03:45:00 13.8 C 97 % 13.33 C
3160 28-05-2016 03:50:00 13.7 C 97 % 13.23 C
3161 28-05-2016 03:55:00 13.7 C 97 % 13.23 C
3162 28-05-2016 04:00:00 13.7 C 97 % 13.23 C
3163 28-05-2016 04:05:00 13.7 C 97 % 13.23 C
3164 28-05-2016 04:10:00 13.7 C 97 % 13.23 C
3165 28-05-2016 12:50:00 18.2 C 91 % 16.71 C
3166 28-05-2016 12:55:00 18.4 C 90 % 16.73 C
3167 28-05-2016 13:00:00 18.6 C 90 % 16.93 C
3168 28-05-2016 13:05:00 18.8 C 90 % 17.12 C
3169 28-05-2016 13:10:00 18.9 C 90 % 17.22 C
3170 28-05-2016 13:15:00 19.2 C 89 % 17.34 C
3171 28-05-2016 13:20:00 19.3 C 87 % 17.08 C
3172 28-05-2016 13:25:00 19.6 C 86 % 17.19 C
3173 28-05-2016 13:30:00 19.9 C 85 % 17.3 C
3174 28-05-2016 13:35:00 20.1 C 84 % 17.31 C
3175 28-05-2016 13:40:00 20.3 C 83 % 17.32 C
Sensor: Nr:Datum:Temp:Feuchte:Taupunkt:
Aussen-T/F 3176 28-05-2016 13:45:00 20.6 C 81 % 17.22 C
3177 28-05-2016 13:50:00 20.7 C 78 % 16.73 C
3178 28-05-2016 13:55:00 20.8 C 76 % 16.41 C
3179 28-05-2016 14:00:00 20.9 C 76 % 16.51 C
3180 28-05-2016 14:05:00 21.1 C 76 % 16.7 C
3181 28-05-2016 14:10:00 21.2 C 75 % 16.59 C
3182 28-05-2016 14:15:00 21.3 C 74 % 16.48 C
3183 28-05-2016 14:20:00 21.4 C 73 % 16.36 C
3184 28-05-2016 14:25:00 21.7 C 73 % 16.65 C
3185 28-05-2016 14:30:00 21.9 C 71 % 16.4 C
3186 28-05-2016 14:35:00 22.1 C 73 % 17.03 C
3187 28-05-2016 14:40:00 22.1 C 71 % 16.6 C
3188 28-05-2016 14:45:00 22.2 C 69 % 16.24 C
3189 28-05-2016 14:50:00 22.5 C 70 % 16.76 C
3190 28-05-2016 14:55:00 22.6 C 70 % 16.85 C
3191 28-05-2016 15:00:00 22.6 C 64 % 15.45 C
3192 28-05-2016 15:05:00 22.5 C 79 % 18.67 C
3193 28-05-2016 15:10:00 22.3 C 78 % 18.28 C
3194 28-05-2016 15:15:00 22.2 C 76 % 17.77 C
3195 28-05-2016 15:20:00 22.4 C 70 % 16.66 C
3196 28-05-2016 15:25:00 22.8 C 66 % 16.12 C
3197 28-05-2016 15:30:00 23 C 76 % 18.54 C
3198 28-05-2016 15:35:00 23.2 C 80 % 19.56 C
3199 28-05-2016 15:40:00 23 C 80 % 19.36 C
3200 28-05-2016 15:45:00 22.8 C 81 % 19.37 C
Sensor: Nr:Datum:Temp:Feuchte:Taupunkt:
Aussen-T/F 3201 28-05-2016 15:50:00 22.7 C 82 % 19.47 C
3202 28-05-2016 15:55:00 22.7 C 77 % 18.46 C
3203 28-05-2016 16:00:00 23.1 C 64 % 15.92 C
3204 28-05-2016 16:05:00 23.6 C 65 % 16.64 C
3205 28-05-2016 16:10:00 23.9 C 61 % 15.92 C
3206 28-05-2016 16:15:00 24.1 C 72 % 18.73 C
3207 28-05-2016 16:20:00 23.9 C 76 % 19.41 C
3208 28-05-2016 16:25:00 23.6 C 77 % 19.33 C
3209 28-05-2016 16:30:00 23.1 C 77 % 18.85 C
3210 28-05-2016 16:35:00 22.7 C 78 % 18.67 C
3211 28-05-2016 16:40:00 22.4 C 80 % 18.78 C
3212 28-05-2016 16:45:00 22.2 C 81 % 18.78 C
3213 28-05-2016 16:50:00 22 C 82 % 18.78 C
3214 28-05-2016 16:55:00 21.8 C 84 % 18.97 C
3215 28-05-2016 17:00:00 21.8 C 84 % 18.97 C
3216 28-05-2016 17:05:00 21.6 C 83 % 18.59 C
3217 28-05-2016 17:10:00 21.4 C 83 % 18.39 C
3218 28-05-2016 17:15:00 21.2 C 84 % 18.39 C
3219 28-05-2016 17:20:00 21 C 84 % 18.19 C
3220 28-05-2016 17:25:00 20.7 C 84 % 17.9 C
3221 28-05-2016 17:30:00 20.5 C 85 % 17.89 C
3222 28-05-2016 17:35:00 20.3 C 86 % 17.88 C
3223 28-05-2016 17:40:00 20.1 C 87 % 17.87 C
3224 28-05-2016 17:45:00 19.9 C 87 % 17.67 C
3225 28-05-2016 17:50:00 19.7 C 88 % 17.66 C
Sensor: Nr:Datum:Temp:Feuchte:Taupunkt:
Aussen-T/F 3226 28-05-2016 17:55:00 19.6 C 88 % 17.56 C
3227 28-05-2016 18:00:00 19.4 C 89 % 17.54 C
3228 28-05-2016 18:05:00 19.3 C 90 % 17.62 C
3229 28-05-2016 18:10:00 19.2 C 90 % 17.52 C
3230 28-05-2016 18:15:00 19.1 C 90 % 17.42 C
3231 28-05-2016 18:20:00 19.1 C 91 % 17.6 C
3232 28-05-2016 18:25:00 18.9 C 91 % 17.4 C
3233 28-05-2016 18:30:00 18.9 C 91 % 17.4 C
3234 28-05-2016 18:35:00 18.8 C 91 % 17.3 C
3235 28-05-2016 18:40:00 18.7 C 92 % 17.37 C
3236 28-05-2016 18:45:00 18.7 C 92 % 17.37 C
3237 28-05-2016 18:50:00 18.6 C 92 % 17.27 C
3238 28-05-2016 18:55:00 18.4 C 92 % 17.08 C
3239 28-05-2016 19:00:00 18.3 C 92 % 16.98 C
3240 28-05-2016 19:05:00 18.3 C 92 % 16.98 C
3241 28-05-2016 19:10:00 18.2 C 93 % 17.05 C
3242 28-05-2016 19:15:00 18.2 C 93 % 17.05 C
3243 28-05-2016 19:20:00 18.1 C 93 % 16.95 C
3244 28-05-2016 19:25:00 18.1 C 93 % 16.95 C
3245 28-05-2016 19:30:00 18 C 93 % 16.85 C
3246 28-05-2016 19:35:00 17.9 C 93 % 16.75 C
3247 28-05-2016 19:40:00 18 C 94 % 17.02 C
3248 28-05-2016 19:45:00 18 C 94 % 17.02 C
3249 28-05-2016 19:50:00 18.1 C 94 % 17.12 C
3250 28-05-2016 19:55:00 18 C 94 % 17.02 C
Sensor: Nr:Datum:Temp:Feuchte:Taupunkt:
Aussen-T/F 3251 28-05-2016 20:00:00 18 C 94 % 17.02 C
3252 28-05-2016 20:05:00 18 C 94 % 17.02 C
3253 28-05-2016 20:10:00 17.9 C 94 % 16.92 C
3254 28-05-2016 20:15:00 17.9 C 94 % 16.92 C
3255 28-05-2016 20:20:00 17.9 C 94 % 16.92 C
3256 28-05-2016 20:25:00 17.8 C 94 % 16.82 C
3257 28-05-2016 20:30:00 17.8 C 94 % 16.82 C
3258 28-05-2016 20:35:00 17.7 C 94 % 16.72 C
3259 28-05-2016 20:40:00 17.6 C 94 % 16.62 C
3260 28-05-2016 20:45:00 17.5 C 94 % 16.52 C
3261 28-05-2016 20:50:00 17.4 C 94 % 16.42 C
3262 28-05-2016 20:55:00 17.3 C 94 % 16.33 C
3263 28-05-2016 21:00:00 17.1 C 94 % 16.13 C
3264 28-05-2016 21:05:00 17 C 94 % 16.03 C
3265 28-05-2016 21:10:00 16.8 C 94 % 15.83 C
3266 28-05-2016 21:15:00 16.7 C 94 % 15.73 C
3267 28-05-2016 21:20:00 16.6 C 94 % 15.63 C
3268 28-05-2016 21:25:00 16.5 C 94 % 15.53 C
3269 28-05-2016 21:30:00 16.4 C 94 % 15.43 C
3270 28-05-2016 21:35:00 16.3 C 94 % 15.33 C
3271 28-05-2016 21:40:00 16.2 C 94 % 15.23 C
3272 28-05-2016 21:45:00 16.2 C 94 % 15.23 C
3273 28-05-2016 21:50:00 16.1 C 94 % 15.13 C
3274 28-05-2016 21:55:00 16.1 C 95 % 15.3 C
3275 28-05-2016 22:00:00 16.1 C 95 % 15.3 C
Sensor: Nr:Datum:Temp:Feuchte:Taupunkt:
Aussen-T/F 3276 28-05-2016 22:05:00 16.1 C 95 % 15.3 C
3277 28-05-2016 22:10:00 16 C 95 % 15.2 C
3278 28-05-2016 22:15:00 16 C 95 % 15.2 C
3279 28-05-2016 22:20:00 15.9 C 95 % 15.1 C
3280 28-05-2016 22:25:00 15.9 C 95 % 15.1 C
3281 28-05-2016 22:30:00 15.9 C 95 % 15.1 C
3282 28-05-2016 22:35:00 15.8 C 95 % 15 C
3283 28-05-2016 22:40:00 15.8 C 95 % 15 C
3284 28-05-2016 22:45:00 15.7 C 95 % 14.9 C
3285 28-05-2016 22:50:00 15.6 C 95 % 14.8 C
3286 28-05-2016 22:55:00 15.6 C 95 % 14.8 C
3287 28-05-2016 23:00:00 15.5 C 95 % 14.7 C
3288 28-05-2016 23:05:00 15.6 C 95 % 14.8 C
3289 28-05-2016 23:10:00 15.5 C 95 % 14.7 C
3290 28-05-2016 23:15:00 15.5 C 95 % 14.7 C
3291 28-05-2016 23:20:00 15.4 C 95 % 14.6 C
3292 28-05-2016 23:25:00 15.4 C 95 % 14.6 C
3293 28-05-2016 23:30:00 15.4 C 95 % 14.6 C
3294 28-05-2016 23:35:00 15.4 C 95 % 14.6 C
3295 28-05-2016 23:40:00 15.3 C 95 % 14.5 C
3296 28-05-2016 23:45:00 15.3 C 95 % 14.5 C
3297 28-05-2016 23:50:00 15.3 C 95 % 14.5 C
3298 28-05-2016 23:55:00 15.2 C 95 % 14.4 C
3299 29-05-2016 00:00:00 15.2 C 96 % 14.57 C
3300 29-05-2016 00:05:00 15.2 C 96 % 14.57 C
Sensor: Nr:Datum:Temp:Feuchte:Taupunkt:
Aussen-T/F 3301 29-05-2016 00:10:00 15.1 C 96 % 14.47 C
3302 29-05-2016 00:15:00 15.1 C 96 % 14.47 C
3303 29-05-2016 00:20:00 14.9 C 95 % 14.11 C
3304 29-05-2016 00:25:00 14.8 C 95 % 14.01 C
3305 29-05-2016 00:30:00 14.7 C 95 % 13.91 C
3306 29-05-2016 00:35:00 14.7 C 96 % 14.07 C
3307 29-05-2016 00:40:00 14.6 C 95 % 13.81 C
3308 29-05-2016 00:45:00 14.6 C 96 % 13.97 C
3309 29-05-2016 00:50:00 14.6 C 96 % 13.97 C
3310 29-05-2016 00:55:00 14.5 C 96 % 13.87 C
3311 29-05-2016 01:00:00 14.4 C 96 % 13.77 C
3312 29-05-2016 01:05:00 14.5 C 96 % 13.87 C
3313 29-05-2016 01:10:00 14.6 C 96 % 13.97 C
3314 29-05-2016 01:15:00 14.6 C 96 % 13.97 C
3315 29-05-2016 01:20:00 14.4 C 96 % 13.77 C
3316 29-05-2016 01:25:00 14.4 C 96 % 13.77 C
3317 29-05-2016 01:30:00 14.3 C 96 % 13.67 C
3318 29-05-2016 01:35:00 14.3 C 96 % 13.67 C
3319 29-05-2016 01:40:00 14.3 C 96 % 13.67 C
3320 29-05-2016 01:45:00 14.2 C 96 % 13.57 C
3321 29-05-2016 01:50:00 14.3 C 96 % 13.67 C
3322 29-05-2016 01:55:00 14.3 C 96 % 13.67 C
3323 29-05-2016 02:00:00 14.3 C 96 % 13.67 C
3324 29-05-2016 02:05:00 14.2 C 96 % 13.57 C
3325 29-05-2016 02:10:00 14.2 C 96 % 13.57 C
Sensor: Nr:Datum:Temp:Feuchte:Taupunkt:
Aussen-T/F 3326 29-05-2016 02:15:00 14.2 C 96 % 13.57 C
3327 29-05-2016 02:20:00 14.1 C 96 % 13.47 C
3328 29-05-2016 02:25:00 14.1 C 96 % 13.47 C
3329 29-05-2016 02:30:00 14.1 C 96 % 13.47 C
3330 29-05-2016 02:35:00 14.1 C 96 % 13.47 C
3331 29-05-2016 02:40:00 14.1 C 96 % 13.47 C
3332 29-05-2016 02:45:00 14.1 C 96 % 13.47 C
3333 29-05-2016 02:50:00 13.9 C 96 % 13.27 C
3334 29-05-2016 02:55:00 13.8 C 96 % 13.17 C
3335 29-05-2016 03:00:00 13.7 C 96 % 13.07 C
3336 29-05-2016 03:05:00 13.6 C 96 % 12.97 C
3337 29-05-2016 03:10:00 13.5 C 96 % 12.87 C
3338 29-05-2016 03:15:00 13.4 C 96 % 12.78 C
3339 29-05-2016 03:20:00 13.4 C 96 % 12.78 C
3340 29-05-2016 03:25:00 13.3 C 96 % 12.68 C
3341 29-05-2016 03:30:00 13.3 C 96 % 12.68 C
3342 29-05-2016 03:35:00 13.2 C 96 % 12.58 C
3343 29-05-2016 03:40:00 13.2 C 96 % 12.58 C
3344 29-05-2016 03:45:00 13.2 C 96 % 12.58 C
3345 29-05-2016 03:50:00 13.1 C 96 % 12.48 C
3346 29-05-2016 03:55:00 12.9 C 96 % 12.28 C
3347 29-05-2016 04:00:00 12.8 C 96 % 12.18 C
3348 29-05-2016 04:05:00 12.8 C 96 % 12.18 C
3349 29-05-2016 04:10:00 12.8 C 96 % 12.18 C
3350 29-05-2016 04:15:00 12.7 C 96 % 12.08 C
Sensor: Nr:Datum:Temp:Feuchte:Taupunkt:
Aussen-T/F 3351 29-05-2016 04:20:00 12.8 C 97 % 12.34 C
3352 29-05-2016 04:25:00 12.9 C 97 % 12.44 C
3353 29-05-2016 04:30:00 12.8 C 96 % 12.18 C
3354 29-05-2016 04:35:00 12.7 C 96 % 12.08 C
3355 29-05-2016 04:40:00 12.7 C 97 % 12.24 C
3356 29-05-2016 04:45:00 12.8 C 97 % 12.34 C
3357 29-05-2016 04:50:00 12.9 C 97 % 12.44 C
3358 29-05-2016 04:55:00 12.9 C 97 % 12.44 C
3359 29-05-2016 05:00:00 12.9 C 97 % 12.44 C
3360 29-05-2016 05:05:00 13 C 97 % 12.54 C
3361 29-05-2016 05:10:00 13.1 C 97 % 12.63 C
3362 29-05-2016 05:15:00 13.1 C 97 % 12.63 C
3363 29-05-2016 05:20:00 13.1 C 97 % 12.63 C
3364 29-05-2016 05:25:00 13.2 C 97 % 12.73 C
3365 29-05-2016 05:30:00 13.1 C 97 % 12.63 C
3366 29-05-2016 05:35:00 13.1 C 97 % 12.63 C
3367 29-05-2016 05:40:00 13.2 C 97 % 12.73 C
3368 29-05-2016 05:45:00 13.1 C 97 % 12.63 C
3369 29-05-2016 05:50:00 13.1 C 97 % 12.63 C
3370 29-05-2016 05:55:00 13.1 C 97 % 12.63 C
3371 29-05-2016 06:00:00 13.1 C 97 % 12.63 C
3372 29-05-2016 06:05:00 13.2 C 97 % 12.73 C
3373 29-05-2016 06:10:00 13.2 C 97 % 12.73 C
3374 29-05-2016 06:15:00 13.3 C 97 % 12.83 C
3375 29-05-2016 06:20:00 13.4 C 97 % 12.93 C
Sensor: Nr:Datum:Temp:Feuchte:Taupunkt:
Aussen-T/F 3376 29-05-2016 06:25:00 13.4 C 97 % 12.93 C
3377 29-05-2016 06:30:00 13.6 C 97 % 13.13 C
3378 29-05-2016 06:35:00 13.6 C 97 % 13.13 C
3379 29-05-2016 06:40:00 13.6 C 97 % 13.13 C
3380 29-05-2016 06:45:00 13.7 C 97 % 13.23 C
3381 29-05-2016 06:50:00 13.7 C 97 % 13.23 C
3382 29-05-2016 06:55:00 13.7 C 97 % 13.23 C
3383 29-05-2016 07:00:00 13.7 C 97 % 13.23 C
3384 29-05-2016 07:05:00 13.7 C 97 % 13.23 C
3385 29-05-2016 07:10:00 13.7 C 97 % 13.23 C
3386 29-05-2016 07:15:00 13.7 C 97 % 13.23 C
3387 29-05-2016 07:20:00 13.8 C 97 % 13.33 C
3388 29-05-2016 07:25:00 13.8 C 97 % 13.33 C
3389 29-05-2016 07:30:00 13.9 C 97 % 13.43 C
3390 29-05-2016 07:35:00 14 C 97 % 13.53 C
3391 29-05-2016 07:40:00 14.1 C 97 % 13.63 C
3392 29-05-2016 07:45:00 14.2 C 97 % 13.73 C
3393 29-05-2016 07:50:00 14.2 C 97 % 13.73 C
3394 29-05-2016 07:55:00 14.3 C 97 % 13.83 C
3395 29-05-2016 08:00:00 14.3 C 97 % 13.83 C
3396 29-05-2016 08:05:00 14.3 C 97 % 13.83 C
3397 29-05-2016 08:10:00 14.3 C 97 % 13.83 C
3398 29-05-2016 08:15:00 14.3 C 97 % 13.83 C
3399 29-05-2016 08:20:00 14.3 C 97 % 13.83 C
3400 29-05-2016 08:25:00 14.3 C 97 % 13.83 C
Sensor: Nr:Datum:Temp:Feuchte:Taupunkt:
Aussen-T/F 3401 29-05-2016 08:30:00 14.4 C 97 % 13.93 C
3402 29-05-2016 08:35:00 14.5 C 97 % 14.03 C
3403 29-05-2016 08:40:00 14.6 C 97 % 14.13 C
3404 29-05-2016 08:45:00 14.7 C 97 % 14.23 C
3405 29-05-2016 08:50:00 14.8 C 97 % 14.33 C
3406 29-05-2016 08:55:00 15.1 C 98 % 14.79 C
3407 29-05-2016 09:00:00 15.2 C 97 % 14.73 C
3408 29-05-2016 09:05:00 15.3 C 98 % 14.99 C
3409 29-05-2016 09:10:00 15.5 C 97 % 15.03 C
3410 29-05-2016 09:15:00 15.6 C 97 % 15.13 C
3411 29-05-2016 09:20:00 15.7 C 98 % 15.38 C
3412 29-05-2016 09:25:00 15.7 C 97 % 15.23 C
3413 29-05-2016 09:30:00 15.7 C 97 % 15.23 C
3414 29-05-2016 09:35:00 15.7 C 97 % 15.23 C
3415 29-05-2016 09:40:00 15.8 C 97 % 15.32 C
3416 29-05-2016 09:45:00 15.8 C 97 % 15.32 C
3417 29-05-2016 09:50:00 15.8 C 97 % 15.32 C
3418 29-05-2016 09:55:00 15.9 C 97 % 15.42 C
3419 29-05-2016 10:00:00 16.1 C 97 % 15.62 C
3420 29-05-2016 10:05:00 16.2 C 96 % 15.56 C
3421 29-05-2016 10:10:00 16.2 C 96 % 15.56 C
3422 29-05-2016 10:15:00 16.3 C 96 % 15.66 C
3423 29-05-2016 10:20:00 16.3 C 95 % 15.5 C
3424 29-05-2016 10:25:00 16.3 C 94 % 15.33 C
3425 29-05-2016 10:30:00 16.3 C 94 % 15.33 C
Sensor: Nr:Datum:Temp:Feuchte:Taupunkt:
Aussen-T/F 3426 29-05-2016 10:35:00 16.4 C 93 % 15.27 C
3427 29-05-2016 10:40:00 16.4 C 92 % 15.1 C
3428 29-05-2016 10:45:00 16.5 C 93 % 15.36 C
3429 29-05-2016 10:50:00 16.5 C 92 % 15.2 C
3430 29-05-2016 10:55:00 16.6 C 92 % 15.3 C
3431 29-05-2016 11:00:00 16.7 C 91 % 15.22 C
3432 29-05-2016 11:05:00 16.7 C 91 % 15.22 C
3433 29-05-2016 11:10:00 16.8 C 91 % 15.32 C
3434 29-05-2016 11:15:00 16.8 C 91 % 15.32 C
3435 29-05-2016 11:20:00 17 C 90 % 15.35 C
3436 29-05-2016 11:25:00 17.1 C 90 % 15.45 C
3437 29-05-2016 11:30:00 17.2 C 90 % 15.55 C
3438 29-05-2016 11:35:00 17.3 C 89 % 15.47 C
3439 29-05-2016 11:40:00 17.4 C 89 % 15.57 C
3440 29-05-2016 11:45:00 17.5 C 88 % 15.49 C
3441 29-05-2016 11:50:00 17.6 C 88 % 15.59 C
3442 29-05-2016 11:55:00 17.7 C 89 % 15.86 C
3443 29-05-2016 12:00:00 17.8 C 88 % 15.79 C
3444 29-05-2016 12:05:00 17.8 C 88 % 15.79 C
3445 29-05-2016 12:10:00 17.8 C 88 % 15.79 C
3446 29-05-2016 12:15:00 17.9 C 87 % 15.71 C
3447 29-05-2016 12:20:00 17.9 C 87 % 15.71 C
3448 29-05-2016 12:25:00 18.1 C 88 % 16.08 C
3449 29-05-2016 12:30:00 18.3 C 87 % 16.1 C
3450 29-05-2016 12:35:00 18.5 C 87 % 16.3 C
Sensor: Nr:Datum:Temp:Feuchte:Taupunkt:
Aussen-T/F 3451 29-05-2016 12:40:00 18.7 C 86 % 16.31 C
3452 29-05-2016 12:45:00 18.8 C 86 % 16.41 C
3453 29-05-2016 12:50:00 19.1 C 85 % 16.52 C
3454 29-05-2016 12:55:00 19.2 C 84 % 16.43 C
3455 29-05-2016 13:00:00 19.3 C 84 % 16.53 C
3456 29-05-2016 13:05:00 19.3 C 83 % 16.34 C
3457 29-05-2016 13:10:00 19.5 C 85 % 16.91 C
3458 29-05-2016 13:15:00 19.8 C 85 % 17.21 C
3459 29-05-2016 13:20:00 20.1 C 82 % 16.93 C
3460 29-05-2016 13:25:00 20.2 C 80 % 16.64 C
3461 29-05-2016 13:30:00 20.2 C 81 % 16.84 C
3462 29-05-2016 13:35:00 20.3 C 82 % 17.13 C
3463 29-05-2016 13:40:00 20.3 C 80 % 16.74 C
3464 29-05-2016 13:45:00 20.3 C 80 % 16.74 C
3465 29-05-2016 13:50:00 20.3 C 82 % 17.13 C
3466 29-05-2016 13:55:00 20.4 C 80 % 16.83 C
3467 29-05-2016 14:00:00 20.5 C 80 % 16.93 C
3468 29-05-2016 14:05:00 20.6 C 79 % 16.83 C
3469 29-05-2016 14:10:00 20.6 C 79 % 16.83 C
3470 29-05-2016 14:15:00 20.7 C 78 % 16.73 C
3471 29-05-2016 14:20:00 20.7 C 78 % 16.73 C
3472 29-05-2016 14:25:00 20.8 C 79 % 17.02 C
3473 29-05-2016 14:30:00 20.9 C 78 % 16.92 C
3474 29-05-2016 14:35:00 21.1 C 79 % 17.32 C
3475 29-05-2016 14:40:00 21.2 C 77 % 17.01 C
Sensor: Nr:Datum:Temp:Feuchte:Taupunkt:
Aussen-T/F 3476 29-05-2016 14:45:00 21.3 C 77 % 17.1 C
3477 29-05-2016 14:50:00 21.3 C 82 % 18.1 C
3478 29-05-2016 14:55:00 21.2 C 83 % 18.2 C
3479 29-05-2016 15:00:00 21 C 82 % 17.81 C
3480 29-05-2016 15:05:00 20.8 C 82 % 17.61 C
3481 29-05-2016 15:10:00 20.9 C 83 % 17.9 C
3482 29-05-2016 15:15:00 21.1 C 82 % 17.91 C
3483 29-05-2016 15:20:00 21.4 C 79 % 17.61 C
3484 29-05-2016 15:25:00 21.8 C 79 % 18 C
3485 29-05-2016 15:30:00 22.2 C 76 % 17.77 C
3486 29-05-2016 15:35:00 22.6 C 75 % 17.94 C
3487 29-05-2016 15:40:00 23 C 74 % 18.12 C
3488 29-05-2016 15:45:00 23.3 C 71 % 17.75 C
3489 29-05-2016 15:50:00 23.4 C 70 % 17.62 C
3490 29-05-2016 15:55:00 23.6 C 71 % 18.03 C
3491 29-05-2016 16:00:00 23.7 C 70 % 17.9 C
3492 29-05-2016 16:05:00 23.7 C 70 % 17.9 C
3493 29-05-2016 16:10:00 23.8 C 68 % 17.54 C
3494 29-05-2016 16:15:00 23.5 C 68 % 17.25 C
3495 29-05-2016 16:20:00 23.3 C 69 % 17.29 C
3496 29-05-2016 16:25:00 23.1 C 71 % 17.55 C
3497 29-05-2016 16:30:00 23.1 C 71 % 17.55 C
3498 29-05-2016 16:35:00 23.1 C 72 % 17.78 C
3499 29-05-2016 16:40:00 23.3 C 72 % 17.97 C
3500 29-05-2016 16:45:00 23.4 C 69 % 17.39 C
Sensor: Nr:Datum:Temp:Feuchte:Taupunkt:
Aussen-T/F 3501 29-05-2016 16:50:00 23.4 C 68 % 17.16 C
3502 29-05-2016 16:55:00 23.5 C 67 % 17.02 C
3503 29-05-2016 17:00:00 23.6 C 68 % 17.35 C
3504 29-05-2016 17:05:00 23.7 C 68 % 17.44 C
3505 29-05-2016 17:10:00 23.9 C 66 % 17.16 C
3506 29-05-2016 17:15:00 24.2 C 66 % 17.45 C
3507 29-05-2016 17:20:00 24.2 C 64 % 16.96 C
3508 29-05-2016 17:25:00 24.2 C 66 % 17.45 C
3509 29-05-2016 17:30:00 24.2 C 66 % 17.45 C
3510 29-05-2016 17:35:00 24.1 C 67 % 17.59 C
3511 29-05-2016 17:40:00 23.8 C 67 % 17.3 C
3512 29-05-2016 17:45:00 23.6 C 72 % 18.26 C
3513 29-05-2016 17:50:00 23.4 C 76 % 18.93 C
3514 29-05-2016 17:55:00 23.3 C 77 % 19.04 C
3515 29-05-2016 18:00:00 23.1 C 78 % 19.05 C
3516 29-05-2016 18:05:00 22.7 C 78 % 18.67 C
3517 29-05-2016 18:10:00 22.4 C 79 % 18.58 C
3518 29-05-2016 18:15:00 22.1 C 79 % 18.29 C
3519 29-05-2016 18:20:00 21.8 C 80 % 18.2 C
3520 29-05-2016 18:25:00 21.6 C 82 % 18.39 C
3521 29-05-2016 18:30:00 21.3 C 82 % 18.1 C
3522 29-05-2016 18:35:00 21.2 C 83 % 18.2 C
3523 29-05-2016 18:40:00 21.1 C 84 % 18.29 C
3524 29-05-2016 18:45:00 21.1 C 85 % 18.48 C
3525 29-05-2016 18:50:00 21.1 C 85 % 18.48 C
Sensor: Nr:Datum:Temp:Feuchte:Taupunkt:
Aussen-T/F 3526 29-05-2016 18:55:00 21 C 86 % 18.57 C
3527 29-05-2016 19:00:00 21 C 86 % 18.57 C
3528 29-05-2016 19:05:00 21 C 86 % 18.57 C
3529 29-05-2016 19:10:00 21.1 C 86 % 18.67 C
3530 29-05-2016 19:15:00 21.1 C 85 % 18.48 C
3531 29-05-2016 19:20:00 21.1 C 85 % 18.48 C
3532 29-05-2016 19:25:00 21 C 85 % 18.38 C
3533 29-05-2016 19:30:00 20.9 C 84 % 18.09 C
3534 29-05-2016 19:35:00 20.8 C 85 % 18.18 C
3535 29-05-2016 19:40:00 20.8 C 85 % 18.18 C
3536 29-05-2016 19:45:00 20.7 C 85 % 18.09 C
3537 29-05-2016 19:50:00 20.6 C 85 % 17.99 C
3538 29-05-2016 19:55:00 20.3 C 86 % 17.88 C
3539 29-05-2016 20:00:00 20.1 C 86 % 17.68 C
3540 29-05-2016 20:05:00 19.9 C 86 % 17.49 C
3541 29-05-2016 20:10:00 19.7 C 87 % 17.47 C
3542 29-05-2016 20:15:00 19.5 C 87 % 17.28 C
3543 29-05-2016 20:20:00 19.3 C 87 % 17.08 C
3544 29-05-2016 20:25:00 19.2 C 88 % 17.16 C
3545 29-05-2016 20:30:00 19.2 C 89 % 17.34 C
3546 29-05-2016 20:35:00 19 C 89 % 17.15 C
3547 29-05-2016 20:40:00 18.9 C 90 % 17.22 C
3548 29-05-2016 20:45:00 18.8 C 90 % 17.12 C
3549 29-05-2016 20:50:00 18.7 C 91 % 17.2 C
3550 29-05-2016 20:55:00 18.7 C 91 % 17.2 C
Sensor: Nr:Datum:Temp:Feuchte:Taupunkt:
Aussen-T/F 3551 29-05-2016 21:00:00 18.6 C 92 % 17.27 C
3552 29-05-2016 21:05:00 18.4 C 92 % 17.08 C
3553 29-05-2016 21:10:00 18.4 C 92 % 17.08 C
3554 29-05-2016 21:15:00 18.3 C 92 % 16.98 C
3555 29-05-2016 21:20:00 18.3 C 93 % 17.15 C
3556 29-05-2016 21:25:00 18.2 C 93 % 17.05 C
3557 29-05-2016 21:30:00 18.1 C 93 % 16.95 C
3558 29-05-2016 21:35:00 17.9 C 92 % 16.58 C
3559 29-05-2016 21:40:00 17.9 C 93 % 16.75 C
3560 29-05-2016 21:45:00 17.8 C 93 % 16.65 C
3561 29-05-2016 21:50:00 17.7 C 93 % 16.55 C
3562 29-05-2016 21:55:00 17.6 C 93 % 16.45 C
3563 29-05-2016 22:00:00 17.6 C 93 % 16.45 C
3564 29-05-2016 22:05:00 17.5 C 94 % 16.52 C
3565 29-05-2016 22:10:00 17.4 C 94 % 16.42 C
3566 29-05-2016 22:15:00 17.4 C 94 % 16.42 C
3567 29-05-2016 22:20:00 17.3 C 94 % 16.33 C
3568 29-05-2016 22:25:00 17.3 C 94 % 16.33 C
3569 29-05-2016 22:30:00 17.3 C 94 % 16.33 C
3570 29-05-2016 22:35:00 17.2 C 94 % 16.23 C
3571 29-05-2016 22:40:00 17.2 C 95 % 16.39 C
3572 29-05-2016 22:45:00 17.2 C 95 % 16.39 C
3573 29-05-2016 22:50:00 17.2 C 95 % 16.39 C
3574 29-05-2016 22:55:00 17.2 C 95 % 16.39 C
3575 29-05-2016 23:00:00 17.3 C 95 % 16.49 C
Sensor: Nr:Datum:Temp:Feuchte:Taupunkt:
Aussen-T/F 3576 29-05-2016 23:05:00 17.3 C 95 % 16.49 C
3577 29-05-2016 23:10:00 17.4 C 96 % 16.76 C
3578 29-05-2016 23:15:00 17.5 C 96 % 16.85 C
3579 29-05-2016 23:20:00 17.5 C 96 % 16.85 C
3580 29-05-2016 23:25:00 17.6 C 96 % 16.95 C
3581 29-05-2016 23:30:00 17.5 C 96 % 16.85 C
3582 29-05-2016 23:35:00 17.5 C 96 % 16.85 C
3583 29-05-2016 23:40:00 17.4 C 96 % 16.76 C
3584 29-05-2016 23:45:00 17.4 C 96 % 16.76 C
3585 29-05-2016 23:50:00 17.3 C 96 % 16.66 C
3586 29-05-2016 23:55:00 17.2 C 96 % 16.56 C
3587 30-05-2016 00:00:00 17.2 C 96 % 16.56 C
3588 30-05-2016 00:05:00 17.1 C 95 % 16.29 C
3589 30-05-2016 00:10:00 17.1 C 95 % 16.29 C
3590 30-05-2016 00:15:00 17.1 C 95 % 16.29 C
3591 30-05-2016 00:20:00 17 C 96 % 16.36 C
3592 30-05-2016 00:25:00 17 C 96 % 16.36 C
3593 30-05-2016 00:30:00 16.9 C 96 % 16.26 C
3594 30-05-2016 00:35:00 16.9 C 96 % 16.26 C
3595 30-05-2016 00:40:00 16.9 C 96 % 16.26 C
3596 30-05-2016 00:45:00 16.9 C 96 % 16.26 C
3597 30-05-2016 00:50:00 16.9 C 96 % 16.26 C
3598 30-05-2016 00:55:00 16.8 C 96 % 16.16 C
3599 30-05-2016 01:00:00 16.9 C 96 % 16.26 C
3600 30-05-2016 01:05:00 16.9 C 96 % 16.26 C
Sensor: Nr:Datum:Temp:Feuchte:Taupunkt:
Aussen-T/F 3601 30-05-2016 01:10:00 16.9 C 96 % 16.26 C
3602 30-05-2016 01:15:00 16.9 C 96 % 16.26 C
3603 30-05-2016 01:20:00 16.9 C 96 % 16.26 C
3604 30-05-2016 01:25:00 17 C 96 % 16.36 C
3605 30-05-2016 01:30:00 17 C 96 % 16.36 C
3606 30-05-2016 01:35:00 17 C 96 % 16.36 C
3607 30-05-2016 01:40:00 17 C 96 % 16.36 C
3608 30-05-2016 01:45:00 16.9 C 96 % 16.26 C
3609 30-05-2016 01:50:00 16.9 C 96 % 16.26 C
3610 30-05-2016 01:55:00 16.9 C 96 % 16.26 C
3611 30-05-2016 02:00:00 16.8 C 96 % 16.16 C
3612 30-05-2016 02:05:00 16.8 C 96 % 16.16 C
3613 30-05-2016 02:10:00 16.8 C 96 % 16.16 C
3614 30-05-2016 02:15:00 16.7 C 96 % 16.06 C
3615 30-05-2016 02:20:00 16.7 C 96 % 16.06 C
3616 30-05-2016 02:25:00 16.7 C 96 % 16.06 C
3617 30-05-2016 02:30:00 16.6 C 96 % 15.96 C
3618 30-05-2016 02:35:00 16.6 C 96 % 15.96 C
3619 30-05-2016 02:40:00 16.6 C 96 % 15.96 C
3620 30-05-2016 02:45:00 16.6 C 96 % 15.96 C
3621 30-05-2016 02:50:00 16.6 C 96 % 15.96 C
3622 30-05-2016 02:55:00 16.5 C 96 % 15.86 C
3623 30-05-2016 03:00:00 16.5 C 96 % 15.86 C
3624 30-05-2016 03:05:00 16.4 C 96 % 15.76 C
3625 30-05-2016 03:10:00 16.4 C 96 % 15.76 C
Sensor: Nr:Datum:Temp:Feuchte:Taupunkt:
Aussen-T/F 3626 30-05-2016 03:15:00 16.4 C 96 % 15.76 C
3627 30-05-2016 03:20:00 16.4 C 96 % 15.76 C
3628 30-05-2016 03:25:00 16.4 C 96 % 15.76 C
3629 30-05-2016 03:30:00 16.4 C 96 % 15.76 C
3630 30-05-2016 03:35:00 16.4 C 96 % 15.76 C
3631 30-05-2016 03:40:00 16.3 C 96 % 15.66 C
3632 30-05-2016 03:45:00 16.3 C 96 % 15.66 C
3633 30-05-2016 03:50:00 16.3 C 96 % 15.66 C
3634 30-05-2016 03:55:00 16.3 C 96 % 15.66 C
3635 30-05-2016 04:00:00 16.3 C 96 % 15.66 C
3636 30-05-2016 04:05:00 16.3 C 96 % 15.66 C
3637 30-05-2016 04:10:00 16.2 C 96 % 15.56 C
3638 30-05-2016 04:15:00 16.2 C 96 % 15.56 C
3639 30-05-2016 04:20:00 16.2 C 96 % 15.56 C
3640 30-05-2016 04:25:00 16.1 C 96 % 15.46 C
3641 30-05-2016 04:30:00 16.1 C 96 % 15.46 C
3642 30-05-2016 04:35:00 16.1 C 96 % 15.46 C
3643 30-05-2016 04:40:00 16.1 C 96 % 15.46 C
3644 30-05-2016 04:45:00 16.1 C 96 % 15.46 C
3645 30-05-2016 04:50:00 16 C 96 % 15.36 C
3646 30-05-2016 04:55:00 16 C 96 % 15.36 C
3647 30-05-2016 05:00:00 15.9 C 96 % 15.26 C
3648 30-05-2016 05:05:00 15.9 C 96 % 15.26 C
3649 30-05-2016 05:10:00 15.9 C 96 % 15.26 C
3650 30-05-2016 05:15:00 15.8 C 96 % 15.16 C
Sensor: Nr:Datum:Temp:Feuchte:Taupunkt:
Aussen-T/F 3651 30-05-2016 05:20:00 15.8 C 96 % 15.16 C
3652 30-05-2016 05:25:00 15.8 C 96 % 15.16 C
3653 30-05-2016 05:30:00 15.8 C 96 % 15.16 C
3654 30-05-2016 05:35:00 15.8 C 96 % 15.16 C
3655 30-05-2016 05:40:00 15.8 C 96 % 15.16 C
3656 30-05-2016 05:45:00 15.8 C 96 % 15.16 C
3657 30-05-2016 05:50:00 15.8 C 96 % 15.16 C
3658 30-05-2016 05:55:00 15.8 C 96 % 15.16 C
3659 30-05-2016 06:00:00 15.8 C 96 % 15.16 C
3660 30-05-2016 06:05:00 15.8 C 96 % 15.16 C
3661 30-05-2016 06:10:00 15.8 C 97 % 15.32 C
3662 30-05-2016 06:15:00 15.8 C 97 % 15.32 C
3663 30-05-2016 06:20:00 15.9 C 97 % 15.42 C
3664 30-05-2016 06:25:00 15.9 C 97 % 15.42 C
3665 30-05-2016 06:30:00 15.9 C 97 % 15.42 C
3666 30-05-2016 06:35:00 15.9 C 97 % 15.42 C
3667 30-05-2016 06:40:00 15.9 C 97 % 15.42 C
3668 30-05-2016 06:45:00 15.9 C 97 % 15.42 C
3669 30-05-2016 06:50:00 15.9 C 97 % 15.42 C
3670 30-05-2016 06:55:00 16 C 97 % 15.52 C
3671 30-05-2016 07:00:00 16 C 97 % 15.52 C
3672 30-05-2016 07:05:00 16 C 97 % 15.52 C
3673 30-05-2016 07:10:00 16.1 C 97 % 15.62 C
3674 30-05-2016 07:15:00 16.1 C 97 % 15.62 C
3675 30-05-2016 07:20:00 16.1 C 97 % 15.62 C
Sensor: Nr:Datum:Temp:Feuchte:Taupunkt:
Aussen-T/F 3676 30-05-2016 07:25:00 16.1 C 97 % 15.62 C
3677 30-05-2016 07:30:00 16.1 C 97 % 15.62 C
3678 30-05-2016 07:35:00 16.2 C 97 % 15.72 C
3679 30-05-2016 07:40:00 16.2 C 97 % 15.72 C
3680 30-05-2016 07:45:00 16.2 C 97 % 15.72 C
3681 30-05-2016 07:50:00 16.2 C 97 % 15.72 C
3682 30-05-2016 07:55:00 16.3 C 97 % 15.82 C
3683 30-05-2016 08:00:00 16.3 C 97 % 15.82 C
3684 30-05-2016 08:05:00 16.3 C 97 % 15.82 C
3685 30-05-2016 08:10:00 16.3 C 97 % 15.82 C
3686 30-05-2016 08:15:00 16.3 C 97 % 15.82 C
3687 30-05-2016 08:20:00 16.4 C 97 % 15.92 C
3688 30-05-2016 08:25:00 16.4 C 97 % 15.92 C
3689 30-05-2016 08:30:00 16.4 C 97 % 15.92 C
3690 30-05-2016 08:35:00 16.6 C 97 % 16.12 C
3691 30-05-2016 08:40:00 16.8 C 97 % 16.32 C
3692 30-05-2016 08:45:00 17 C 97 % 16.52 C
3693 30-05-2016 08:50:00 17.1 C 97 % 16.62 C
3694 30-05-2016 08:55:00 17.1 C 97 % 16.62 C
3695 30-05-2016 09:00:00 17.1 C 97 % 16.62 C
3696 30-05-2016 09:05:00 17.1 C 97 % 16.62 C
3697 30-05-2016 09:10:00 17 C 97 % 16.52 C
3698 30-05-2016 09:15:00 16.9 C 97 % 16.42 C
3699 30-05-2016 09:20:00 16.9 C 97 % 16.42 C
3700 30-05-2016 09:25:00 16.9 C 97 % 16.42 C
Sensor: Nr:Datum:Temp:Feuchte:Taupunkt:
Aussen-T/F 3701 30-05-2016 09:30:00 16.9 C 97 % 16.42 C
3702 30-05-2016 09:35:00 17 C 97 % 16.52 C
3703 30-05-2016 09:40:00 17 C 97 % 16.52 C
3704 30-05-2016 09:45:00 16.9 C 97 % 16.42 C
3705 30-05-2016 09:50:00 16.9 C 97 % 16.42 C
3706 30-05-2016 09:55:00 16.9 C 97 % 16.42 C
3707 30-05-2016 10:00:00 17 C 97 % 16.52 C
3708 30-05-2016 10:05:00 17.1 C 97 % 16.62 C
3709 30-05-2016 10:10:00 17.1 C 97 % 16.62 C
3710 30-05-2016 10:15:00 17.3 C 97 % 16.82 C
3711 30-05-2016 10:20:00 17.3 C 97 % 16.82 C
3712 30-05-2016 10:25:00 17.3 C 97 % 16.82 C
3713 30-05-2016 10:30:00 17.4 C 97 % 16.92 C
3714 30-05-2016 10:35:00 17.4 C 97 % 16.92 C
3715 30-05-2016 10:40:00 17.4 C 97 % 16.92 C
3716 30-05-2016 10:45:00 17.5 C 96 % 16.85 C
3717 30-05-2016 10:50:00 17.6 C 96 % 16.95 C
3718 30-05-2016 10:55:00 17.6 C 96 % 16.95 C
3719 30-05-2016 11:00:00 17.7 C 95 % 16.89 C
3720 30-05-2016 11:05:00 17.7 C 95 % 16.89 C
3721 30-05-2016 11:10:00 17.8 C 95 % 16.99 C
3722 30-05-2016 11:15:00 17.9 C 94 % 16.92 C
3723 30-05-2016 11:20:00 17.9 C 94 % 16.92 C
3724 30-05-2016 11:25:00 17.8 C 93 % 16.65 C
3725 30-05-2016 11:30:00 17.9 C 93 % 16.75 C
Sensor: Nr:Datum:Temp:Feuchte:Taupunkt:
Aussen-T/F 3726 30-05-2016 11:35:00 17.9 C 93 % 16.75 C
3727 30-05-2016 11:40:00 18 C 93 % 16.85 C
3728 30-05-2016 11:45:00 18.2 C 93 % 17.05 C
3729 30-05-2016 11:50:00 18.3 C 93 % 17.15 C
3730 30-05-2016 11:55:00 18.4 C 92 % 17.08 C
3731 30-05-2016 12:00:00 18.6 C 92 % 17.27 C
3732 30-05-2016 12:05:00 18.6 C 90 % 16.93 C
3733 30-05-2016 12:10:00 18.8 C 90 % 17.12 C
3734 30-05-2016 12:15:00 18.9 C 90 % 17.22 C
3735 30-05-2016 12:20:00 19.1 C 88 % 17.07 C
3736 30-05-2016 12:25:00 19.2 C 88 % 17.16 C
3737 30-05-2016 12:30:00 19.3 C 88 % 17.26 C
3738 30-05-2016 12:35:00 19.3 C 88 % 17.26 C
3739 30-05-2016 12:40:00 19.4 C 88 % 17.36 C
3740 30-05-2016 12:45:00 19.4 C 88 % 17.36 C
3741 30-05-2016 12:50:00 19.4 C 87 % 17.18 C
3742 30-05-2016 12:55:00 19.4 C 87 % 17.18 C
3743 30-05-2016 13:00:00 19.6 C 87 % 17.38 C
3744 30-05-2016 13:05:00 19.6 C 87 % 17.38 C
3745 30-05-2016 13:10:00 19.7 C 89 % 17.84 C
3746 30-05-2016 13:15:00 19.7 C 89 % 17.84 C
3747 30-05-2016 13:20:00 19.6 C 88 % 17.56 C
3748 30-05-2016 13:25:00 19.3 C 89 % 17.44 C
3749 30-05-2016 13:30:00 19.1 C 90 % 17.42 C
3750 30-05-2016 13:35:00 19.1 C 91 % 17.6 C
Sensor: Nr:Datum:Temp:Feuchte:Taupunkt:
Aussen-T/F 3751 30-05-2016 13:40:00 19.1 C 92 % 17.77 C
3752 30-05-2016 13:45:00 19.2 C 92 % 17.87 C
3753 30-05-2016 13:50:00 19.2 C 92 % 17.87 C
3754 30-05-2016 13:55:00 19.3 C 91 % 17.79 C
3755 30-05-2016 14:00:00 19.4 C 90 % 17.72 C
3756 30-05-2016 14:05:00 19.6 C 90 % 17.91 C
3757 30-05-2016 14:10:00 19.7 C 90 % 18.01 C
3758 30-05-2016 14:15:00 19.9 C 89 % 18.03 C
3759 30-05-2016 14:20:00 20.1 C 88 % 18.05 C
3760 30-05-2016 14:25:00 20.1 C 86 % 17.68 C
3761 30-05-2016 14:30:00 20.2 C 87 % 17.97 C
3762 30-05-2016 14:35:00 20.3 C 87 % 18.06 C
3763 30-05-2016 14:40:00 20.4 C 85 % 17.79 C
3764 30-05-2016 14:45:00 20.4 C 86 % 17.98 C
3765 30-05-2016 14:50:00 20.3 C 86 % 17.88 C
3766 30-05-2016 14:55:00 20.2 C 87 % 17.97 C
3767 30-05-2016 15:00:00 20.1 C 89 % 18.23 C
3768 30-05-2016 15:05:00 19.9 C 89 % 18.03 C
3769 30-05-2016 15:10:00 19.9 C 90 % 18.21 C
3770 30-05-2016 15:15:00 19.9 C 91 % 18.39 C
3771 30-05-2016 15:20:00 20.2 C 90 % 18.51 C
3772 30-05-2016 15:25:00 20.3 C 89 % 18.43 C
3773 30-05-2016 15:30:00 20.6 C 90 % 18.9 C
3774 30-05-2016 15:35:00 20.6 C 86 % 18.18 C
3775 30-05-2016 15:40:00 20.8 C 87 % 18.56 C
Sensor: Nr:Datum:Temp:Feuchte:Taupunkt:
Aussen-T/F 3776 30-05-2016 15:45:00 20.8 C 85 % 18.18 C
3777 30-05-2016 15:50:00 20.9 C 87 % 18.65 C
3778 30-05-2016 15:55:00 20.8 C 85 % 18.18 C
3779 30-05-2016 16:00:00 20.7 C 85 % 18.09 C
3780 30-05-2016 16:05:00 20.4 C 86 % 17.98 C
3781 30-05-2016 16:10:00 20.3 C 86 % 17.88 C
3782 30-05-2016 16:15:00 20.4 C 87 % 18.16 C
3783 30-05-2016 16:20:00 20.8 C 86 % 18.37 C
3784 30-05-2016 16:25:00 21.4 C 84 % 18.58 C
3785 30-05-2016 16:30:00 21.9 C 84 % 19.07 C
3786 30-05-2016 16:35:00 22.1 C 81 % 18.69 C
3787 30-05-2016 16:40:00 22.2 C 81 % 18.78 C
3788 30-05-2016 16:45:00 22.1 C 80 % 18.49 C
3789 30-05-2016 16:50:00 21.7 C 80 % 18.1 C
3790 30-05-2016 16:55:00 21.6 C 81 % 18.2 C
3791 30-05-2016 17:00:00 21.2 C 81 % 17.81 C
3792 30-05-2016 17:05:00 20.9 C 83 % 17.9 C
3793 30-05-2016 17:10:00 20.8 C 84 % 18 C
3794 30-05-2016 17:15:00 20.5 C 84 % 17.7 C
3795 30-05-2016 17:20:00 20.2 C 84 % 17.41 C
3796 30-05-2016 17:25:00 19.8 C 83 % 16.83 C
3797 30-05-2016 17:30:00 19.6 C 84 % 16.82 C
3798 30-05-2016 17:35:00 19.4 C 85 % 16.81 C
3799 30-05-2016 17:40:00 19.3 C 86 % 16.9 C
3800 30-05-2016 17:45:00 19.2 C 87 % 16.98 C
Sensor: Nr:Datum:Temp:Feuchte:Taupunkt:
Aussen-T/F 3801 30-05-2016 17:50:00 19.2 C 88 % 17.16 C
3802 30-05-2016 17:55:00 19 C 86 % 16.6 C
3803 30-05-2016 18:00:00 18.9 C 88 % 16.87 C
3804 30-05-2016 18:05:00 18.9 C 88 % 16.87 C
3805 30-05-2016 18:10:00 18.8 C 88 % 16.77 C
3806 30-05-2016 18:15:00 18.7 C 89 % 16.85 C
3807 30-05-2016 18:20:00 18.7 C 89 % 16.85 C
3808 30-05-2016 18:25:00 18.5 C 90 % 16.83 C
3809 30-05-2016 18:30:00 18.4 C 91 % 16.9 C
3810 30-05-2016 18:35:00 18.3 C 91 % 16.81 C
3811 30-05-2016 18:40:00 18.3 C 91 % 16.81 C
3812 30-05-2016 18:45:00 18.2 C 92 % 16.88 C
3813 30-05-2016 18:50:00 18.1 C 93 % 16.95 C
3814 30-05-2016 18:55:00 18.1 C 93 % 16.95 C
3815 30-05-2016 19:00:00 18.1 C 93 % 16.95 C
3816 30-05-2016 19:05:00 18.1 C 93 % 16.95 C
3817 30-05-2016 19:10:00 17.9 C 93 % 16.75 C
3818 30-05-2016 19:15:00 17.8 C 93 % 16.65 C
3819 30-05-2016 19:20:00 17.8 C 94 % 16.82 C
3820 30-05-2016 19:25:00 17.8 C 94 % 16.82 C
3821 30-05-2016 19:30:00 17.8 C 94 % 16.82 C
3822 30-05-2016 19:35:00 17.7 C 94 % 16.72 C
3823 30-05-2016 19:40:00 17.6 C 94 % 16.62 C
3824 30-05-2016 19:45:00 17.6 C 94 % 16.62 C
3825 30-05-2016 19:50:00 17.5 C 94 % 16.52 C
Sensor: Nr:Datum:Temp:Feuchte:Taupunkt:
Aussen-T/F 3826 30-05-2016 19:55:00 17.4 C 94 % 16.42 C
3827 30-05-2016 20:00:00 17.4 C 94 % 16.42 C
3828 30-05-2016 20:05:00 17.4 C 94 % 16.42 C
3829 30-05-2016 20:10:00 17.3 C 94 % 16.33 C
3830 30-05-2016 20:15:00 17.2 C 94 % 16.23 C
3831 30-05-2016 20:20:00 17.1 C 94 % 16.13 C
3832 30-05-2016 20:25:00 17 C 94 % 16.03 C
3833 30-05-2016 20:30:00 16.9 C 94 % 15.93 C
3834 30-05-2016 20:35:00 16.8 C 94 % 15.83 C
3835 30-05-2016 20:40:00 16.8 C 94 % 15.83 C
3836 30-05-2016 20:45:00 16.7 C 94 % 15.73 C
3837 30-05-2016 20:50:00 16.6 C 94 % 15.63 C
3838 30-05-2016 20:55:00 16.5 C 94 % 15.53 C
3839 30-05-2016 21:00:00 16.4 C 94 % 15.43 C
3840 30-05-2016 21:05:00 16.3 C 94 % 15.33 C
3841 30-05-2016 21:10:00 16.3 C 94 % 15.33 C
3842 30-05-2016 21:15:00 16.2 C 94 % 15.23 C
3843 30-05-2016 21:20:00 16.1 C 94 % 15.13 C
3844 30-05-2016 21:25:00 15.9 C 94 % 14.94 C
3845 30-05-2016 21:30:00 15.8 C 94 % 14.84 C
3846 30-05-2016 21:35:00 15.8 C 94 % 14.84 C
3847 30-05-2016 21:40:00 15.8 C 95 % 15 C
3848 30-05-2016 21:45:00 15.7 C 95 % 14.9 C
3849 30-05-2016 21:50:00 15.7 C 95 % 14.9 C
3850 30-05-2016 21:55:00 15.6 C 95 % 14.8 C
Sensor: Nr:Datum:Temp:Feuchte:Taupunkt:
Aussen-T/F 3851 30-05-2016 22:00:00 15.6 C 95 % 14.8 C
3852 30-05-2016 22:05:00 15.6 C 95 % 14.8 C
3853 30-05-2016 22:10:00 15.6 C 95 % 14.8 C
3854 30-05-2016 22:15:00 15.6 C 95 % 14.8 C
3855 30-05-2016 22:20:00 15.6 C 95 % 14.8 C
3856 30-05-2016 22:25:00 15.6 C 95 % 14.8 C
3857 30-05-2016 22:30:00 15.6 C 95 % 14.8 C
3858 30-05-2016 22:35:00 15.6 C 95 % 14.8 C
3859 30-05-2016 22:40:00 15.6 C 95 % 14.8 C
3860 30-05-2016 22:45:00 15.6 C 95 % 14.8 C
3861 30-05-2016 22:50:00 15.5 C 95 % 14.7 C
3862 30-05-2016 22:55:00 15.4 C 95 % 14.6 C
3863 30-05-2016 23:00:00 15.4 C 95 % 14.6 C
3864 30-05-2016 23:05:00 15.4 C 95 % 14.6 C
3865 30-05-2016 23:10:00 15.4 C 95 % 14.6 C
3866 30-05-2016 23:15:00 15.4 C 95 % 14.6 C
3867 30-05-2016 23:20:00 15.3 C 95 % 14.5 C
3868 30-05-2016 23:25:00 15.3 C 95 % 14.5 C
3869 30-05-2016 23:30:00 15.3 C 95 % 14.5 C
3870 30-05-2016 23:35:00 15.2 C 95 % 14.4 C
3871 30-05-2016 23:40:00 15.2 C 95 % 14.4 C
3872 30-05-2016 23:45:00 15.1 C 95 % 14.31 C
3873 30-05-2016 23:50:00 14.9 C 95 % 14.11 C
3874 30-05-2016 23:55:00 14.9 C 95 % 14.11 C
3875 31-05-2016 00:00:00 14.8 C 95 % 14.01 C
Sensor: Nr:Datum:Temp:Feuchte:Taupunkt:
Aussen-T/F 3876 31-05-2016 00:05:00 14.7 C 95 % 13.91 C
3877 31-05-2016 00:10:00 14.6 C 95 % 13.81 C
3878 31-05-2016 00:15:00 14.6 C 95 % 13.81 C
3879 31-05-2016 00:20:00 14.6 C 95 % 13.81 C
3880 31-05-2016 00:25:00 14.6 C 95 % 13.81 C
3881 31-05-2016 00:30:00 14.7 C 95 % 13.91 C
3882 31-05-2016 00:35:00 14.7 C 95 % 13.91 C